[[{"header":{"parameterUnit":"m.s-1","parameterCategory":1,"la1":30.6,"la2":28.766,"lo1":-90.7593,"lo2":-88.6598,"dy":0.0162,"dx":0.0183,"nx":116,"ny":114,"refTime":"2024-04-09T06:00:00:Z","depth":0,"parameterNumber":2,"parameterNumberName":"U-component_of_WINDS"},"data":[0.0,0.0,0.0,0.0,0.0,0.0,0.0,0.0,0.0,0.0,0.0,0.0,0.0,0.0,0.0,0.0,0.0,0.0,0.0,0.0,0.0,0.0,0.0,0.0,0.0,0.0,0.0,0.0,0.0,0.0,0.0,0.0,0.0,0.0,0.0,0.0,0.0,0.0,0.0,0.0,0.0,0.0,0.0,0.0,0.0,0.0,0.0,0.0,0.0,0.0,0.0,0.0,0.0,0.0,0.0,0.0,0.0,0.0,0.0,0.0,0.0,0.0,0.0,0.0,0.0,0.0,0.0,0.0,0.0,0.0,0.0,0.0,0.0,0.0,0.0,0.0,0.0,0.0,0.0,0.0,0.0,0.0,0.0,0.0,0.0,0.0,0.0,0.0,0.0,0.0,0.0,0.0,0.0,0.0,0.0,0.0,0.0,0.0,0.0,0.0,0.0,0.0,0.0,0.0,0.0,0.0,0.0,0.0,0.0,0.0,0.0,0.0,0.0,0.0,0.0,0.0,0.0,0.0,0.0,0.0,0.0,0.0,0.0,0.0,0.0,0.0,0.0,0.0,0.0,0.0,0.0,0.0,0.0,0.0,0.0,0.0,0.0,0.0,0.0,0.0,0.0,0.0,0.0,0.0,0.0,0.0,0.0,0.0,0.0,0.0,0.0,0.0,0.0,0.0,0.0,0.0,0.0,0.0,0.0,0.0,0.0,0.0,0.0,0.0,0.0,0.0,0.0,0.0,0.0,0.0,0.0,0.0,0.0,0.0,0.0,0.0,0.0,0.0,0.0,0.0,0.0,0.0,0.0,0.0,0.0,0.0,0.0,0.0,0.0,0.0,0.0,0.0,0.0,0.0,0.0,0.0,0.0,0.0,0.0,0.0,0.0,0.0,0.0,0.0,0.0,0.0,0.0,0.0,0.0,0.0,0.0,0.0,0.0,0.0,0.0,0.0,0.0,0.0,0.0,0.0,0.0,0.0,0.0,0.0,0.0,0.0,0.0,0.0,0.0,0.0,0.0,0.0,0.0,0.0,0.0,0.0,0.0,0.0,0.0,0.0,0.0,0.0,0.0,0.0,0.0,0.0,0.0,0.0,0.0,0.0,0.0,0.0,0.0,0.0,0.0,0.0,0.0,0.0,0.0,0.0,0.0,0.0,0.0,0.0,0.0,0.0,0.0,0.0,0.0,0.0,0.0,0.0,0.0,0.0,0.0,0.0,0.0,0.0,0.0,0.0,0.0,0.0,0.0,0.0,0.0,0.0,0.0,0.0,0.0,0.0,0.0,0.0,0.0,0.0,0.0,0.0,0.0,0.0,0.0,0.0,0.0,0.0,0.0,0.0,0.0,0.0,0.0,0.0,0.0,0.0,0.0,0.0,0.0,0.0,0.0,0.0,0.0,0.0,0.0,0.0,0.0,0.0,0.0,0.0,0.0,0.0,0.0,0.0,0.0,0.0,0.0,0.0,0.0,0.0,0.0,0.0,0.0,0.0,0.0,0.0,0.0,0.0,0.0,0.0,0.0,0.0,0.0,0.0,0.0,0.0,0.0,0.0,0.0,0.0,0.0,0.0,0.0,0.0,0.0,0.0,0.0,0.0,0.0,0.0,0.0,0.0,0.0,0.0,0.0,0.0,0.0,0.0,0.0,0.0,0.0,0.0,0.0,0.0,0.0,0.0,0.0,0.0,0.0,0.0,0.0,0.0,0.0,0.0,0.0,0.0,0.0,0.0,0.0,0.0,0.0,0.0,0.0,0.0,0.0,0.0,0.0,0.0,0.0,0.0,0.0,0.0,0.0,0.0,0.0,0.0,0.0,0.0,0.0,0.0,0.0,0.0,0.0,0.0,0.0,0.0,0.0,0.0,0.0,0.0,0.0,0.0,0.0,0.0,0.0,0.0,0.0,0.0,0.0,0.0,0.0,0.0,0.0,0.0,0.0,0.0,0.0,0.0,0.0,0.0,0.0,0.0,0.0,0.0,0.0,0.0,0.0,0.0,0.0,0.0,0.0,0.0,0.0,0.0,0.0,0.0,0.0,0.0,0.0,0.0,0.0,0.0,0.0,0.0,0.0,0.0,0.0,0.0,0.0,0.0,0.0,0.0,0.0,0.0,0.0,0.0,0.0,0.0,0.0,0.0,0.0,0.0,0.0,0.0,0.0,0.0,0.0,0.0,0.0,0.0,0.0,0.0,0.0,0.0,0.0,0.0,0.0,0.0,0.0,0.0,0.0,0.0,0.0,0.0,0.0,0.0,0.0,0.0,0.0,0.0,0.0,0.0,0.0,0.0,0.0,0.0,0.0,0.0,0.0,0.0,0.0,0.0,0.0,0.0,0.0,0.0,0.0,0.0,0.0,0.0,0.0,0.0,0.0,0.0,0.0,0.0,0.0,0.0,0.0,0.0,0.0,0.0,0.0,0.0,0.0,0.0,0.0,0.0,0.0,0.0,0.0,0.0,0.0,0.0,0.0,0.0,0.0,0.0,0.0,0.0,0.0,0.0,0.0,0.0,0.0,0.0,0.0,0.0,0.0,0.0,0.0,0.0,0.0,0.0,0.0,0.0,0.0,0.0,0.0,0.0,0.0,0.0,0.0,0.0,0.0,0.0,0.0,0.0,0.0,0.0,0.0,0.0,0.0,0.0,0.0,0.0,0.0,0.0,0.0,0.0,0.0,0.0,0.0,0.0,0.0,0.0,0.0,0.0,0.0,0.0,0.0,0.0,0.0,0.0,0.0,0.0,0.0,0.0,0.0,0.0,0.0,0.0,0.0,0.0,0.0,0.0,0.0,0.0,0.0,0.0,0.0,0.0,0.0,0.0,0.0,0.0,0.0,0.0,0.0,0.0,0.0,0.0,0.0,0.0,0.0,0.0,0.0,0.0,0.0,0.0,0.0,0.0,0.0,0.0,0.0,0.0,0.0,0.0,0.0,0.0,0.0,0.0,0.0,0.0,0.0,0.0,0.0,0.0,0.0,0.0,0.0,0.0,0.0,0.0,0.0,0.0,0.0,0.0,0.0,0.0,0.0,0.0,0.0,0.0,0.0,0.0,0.0,0.0,0.0,0.0,0.0,0.0,0.0,0.0,0.0,0.0,0.0,0.0,0.0,0.0,0.0,0.0,0.0,0.0,0.0,0.0,0.0,0.0,0.0,0.0,0.0,0.0,0.0,0.0,0.0,0.0,0.0,0.0,0.0,0.0,0.0,0.0,0.0,0.0,0.0,0.0,0.0,0.0,0.0,0.0,0.0,0.0,0.0,0.0,0.0,0.0,0.0,0.0,0.0,0.0,0.0,0.0,0.0,0.0,0.0,0.0,0.0,0.0,0.0,0.0,0.0,0.0,0.0,0.0,0.0,0.0,0.0,0.0,0.0,0.0,0.0,0.0,0.0,0.0,0.0,0.0,0.0,0.0,0.0,0.0,0.0,0.0,0.0,0.0,0.0,0.0,0.0,0.0,0.0,0.0,0.0,0.0,0.0,0.0,0.0,0.0,0.0,0.0,0.0,0.0,0.0,0.0,0.0,0.0,0.0,0.0,0.0,0.0,0.0,0.0,0.0,0.0,0.0,0.0,0.0,0.0,0.0,0.0,0.0,0.0,0.0,0.0,0.0,0.0,0.0,0.0,0.0,0.0,0.0,0.0,0.0,0.0,0.0,0.0,0.0,0.0,0.0,0.0,0.0,0.0,0.0,0.0,0.0,0.0,0.0,0.0,0.0,0.0,0.0,0.0,0.0,0.0,0.0,0.0,0.0,0.0,0.0,0.0,0.0,0.0,0.0,0.0,0.0,0.0,0.0,0.0,0.0,0.0,0.0,0.0,0.0,0.0,0.0,0.0,0.0,0.0,0.0,0.0,0.0,0.0,0.0,0.0,0.0,0.0,0.0,0.0,0.0,0.0,0.0,0.0,0.0,0.0,0.0,0.0,0.0,0.0,0.0,0.0,0.0,0.0,0.0,0.0,0.0,0.0,0.0,0.0,0.0,0.0,0.0,0.0,0.0,0.0,0.0,0.0,0.0,0.0,0.0,0.0,0.0,0.0,0.0,0.0,0.0,0.0,0.0,0.0,0.0,0.0,0.0,0.0,0.0,0.0,0.0,0.0,0.0,0.0,0.0,0.0,0.0,0.0,0.0,0.0,0.0,0.0,0.0,0.0,0.0,0.0,0.0,0.0,0.0,0.0,0.0,0.0,0.0,0.0,0.0,0.0,0.0,0.0,0.0,0.0,0.0,0.0,0.0,0.0,0.0,0.0,0.0,0.0,0.0,0.0,0.0,0.0,0.0,0.0,0.0,0.0,0.0,0.0,0.0,0.0,0.0,0.0,0.0,0.0,0.0,0.0,0.0,0.0,0.0,0.0,0.0,0.0,0.0,0.0,0.0,0.0,0.0,0.0,0.0,0.0,0.0,0.0,0.0,0.0,0.0,0.0,0.0,0.0,0.0,0.0,0.0,0.0,0.0,0.0,0.0,0.0,0.0,0.0,0.0,0.0,0.0,0.0,0.0,0.0,0.0,0.0,0.0,0.0,0.0,0.0,0.0,0.0,0.0,0.0,0.0,0.0,0.0,0.0,0.0,0.0,0.0,0.0,0.0,0.0,0.0,0.0,0.0,0.0,0.0,0.0,0.0,0.0,0.0,0.0,0.0,0.0,0.0,0.0,0.0,0.0,0.0,0.0,0.0,0.0,0.0,0.0,0.0,0.0,0.0,0.0,0.0,0.0,0.0,0.0,0.0,0.0,0.0,0.0,0.0,0.0,0.0,0.0,0.0,0.0,0.0,0.0,0.0,0.0,0.0,0.0,0.0,0.0,0.0,0.0,0.0,0.0,0.0,0.0,0.0,0.0,0.0,0.0,0.0,0.0,0.0,0.0,0.0,0.0,0.0,0.0,0.0,0.0,0.0,0.0,0.0,0.0,0.0,0.0,0.0,0.0,0.0,0.0,0.0,0.0,0.0,0.0,0.0,0.0,0.0,0.0,0.0,0.0,0.0,0.0,0.0,0.0,0.0,0.0,0.0,0.0,0.0,0.0,0.0,0.0,0.0,0.0,0.0,0.0,0.0,0.0,0.0,0.0,0.0,0.0,0.0,0.0,0.0,0.0,0.0,0.0,0.0,0.0,0.0,0.0,0.0,0.0,0.0,0.0,0.0,0.0,0.0,0.0,0.0,0.0,0.0,0.0,0.0,0.0,0.0,0.0,0.0,0.0,0.0,0.0,0.0,0.0,0.0,0.0,0.0,0.0,0.0,0.0,0.0,0.0,0.0,0.0,0.0,0.0,0.0,0.0,0.0,0.0,0.0,0.0,0.0,0.0,0.0,0.0,0.0,0.0,0.0,0.0,0.0,0.0,0.0,0.0,0.0,0.0,0.0,0.0,0.0,0.0,0.0,0.0,0.0,0.0,0.0,0.0,0.0,0.0,0.0,0.0,0.0,0.0,0.0,0.0,0.0,0.0,0.0,0.0,0.0,0.0,0.0,0.0,0.0,0.0,0.0,0.0,0.0,0.0,0.0,0.0,0.0,0.0,0.0,0.0,0.0,0.0,0.0,0.0,0.0,0.0,0.0,0.0,0.0,0.0,0.0,0.0,0.0,0.0,0.0,0.0,0.0,0.0,0.0,0.0,0.0,0.0,0.0,0.0,0.0,0.0,0.0,0.0,0.0,0.0,0.0,0.0,0.0,0.0,0.0,0.0,0.0,0.0,0.0,0.0,0.0,0.0,0.0,0.0,0.0,0.0,0.0,0.0,0.0,0.0,0.0,0.0,0.0,0.0,0.0,0.0,0.0,0.0,0.0,0.0,0.0,0.0,0.0,0.0,0.0,0.0,0.0,0.0,0.0,0.0,0.0,0.0,0.0,0.0,0.0,0.0,0.0,0.0,0.0,0.0,0.0,0.0,0.0,0.0,0.0,0.0,0.0,0.0,0.0,0.0,0.0,0.0,0.0,0.0,0.0,0.0,0.0,0.0,0.0,0.0,0.0,0.0,0.0,0.0,0.0,0.0,0.0,0.0,0.0,0.0,0.0,0.0,0.0,0.0,0.0,0.0,0.0,0.0,0.0,0.0,0.0,0.0,0.0,0.0,0.0,0.0,0.0,0.0,3.6281,0.0,0.0,0.0,0.0,0.0,0.0,0.0,0.0,0.0,0.0,0.0,0.0,0.0,0.0,0.0,0.0,0.0,0.0,0.0,0.0,0.0,0.0,0.0,0.0,2.7162,2.7668,2.9288,2.9121,2.9518,3.0905,0.0,0.0,0.0,0.0,0.0,3.2425,3.2782,3.3362,3.4068,3.3813,3.409,3.4743,3.3905,3.3357,3.3016,0.0,0.0,0.0,0.0,0.0,0.0,0.0,0.0,0.0,0.0,0.0,0.0,0.0,0.0,0.0,0.0,0.0,0.0,0.0,0.0,0.0,0.0,0.0,0.0,0.0,0.0,0.0,0.0,0.0,0.0,0.0,0.0,0.0,0.0,0.0,0.0,0.0,0.0,0.0,0.0,0.0,0.0,0.0,0.0,0.0,0.0,0.0,0.0,0.0,0.0,0.0,0.0,0.0,0.0,0.0,0.0,0.0,0.0,0.0,0.0,0.0,0.0,0.0,0.0,0.0,0.0,0.0,0.0,0.0,0.0,0.0,3.8574,0.0,0.0,0.0,0.0,0.0,0.0,0.0,0.0,0.0,0.0,0.0,0.0,0.0,0.0,0.0,0.0,0.0,0.0,0.0,0.0,0.0,2.6473,2.7881,2.7723,2.8371,3.0495,3.0439,3.0864,3.2072,3.228,0.0,0.0,0.0,3.289,3.3006,3.3478,3.3806,3.4025,3.4882,3.5722,3.6478,3.6783,3.6468,3.58,3.5292,0.0,0.0,0.0,0.0,0.0,0.0,0.0,0.0,0.0,0.0,0.0,0.0,0.0,0.0,0.0,0.0,0.0,0.0,0.0,0.0,0.0,0.0,0.0,0.0,0.0,0.0,0.0,0.0,0.0,0.0,0.0,0.0,0.0,0.0,0.0,0.0,0.0,0.0,0.0,0.0,0.0,0.0,0.0,0.0,0.0,0.0,0.0,0.0,0.0,0.0,0.0,0.0,0.0,0.0,0.0,0.0,0.0,0.0,0.0,0.0,0.0,0.0,0.0,0.0,4.2702,4.3282,4.3892,4.4472,4.485,4.2586,4.1285,4.0689,0.0,0.0,0.0,0.0,0.0,0.0,0.0,0.0,0.0,0.0,0.0,0.0,0.0,0.0,0.0,0.0,0.0,0.0,0.0,0.0,2.7974,2.9878,2.8556,2.8541,3.1128,3.0387,3.004,3.0829,3.1351,3.1874,3.2367,3.3529,3.4428,3.498,3.4747,3.4844,3.5341,3.6921,3.815,3.8979,4.0114,4.0517,4.0189,3.7689,3.7234,3.8207,0.0,0.0,0.0,0.0,0.0,0.0,0.0,0.0,0.0,0.0,0.0,0.0,0.0,0.0,0.0,0.0,0.0,0.0,0.0,0.0,0.0,0.0,0.0,0.0,0.0,0.0,0.0,0.0,0.0,0.0,0.0,0.0,0.0,0.0,0.0,0.0,0.0,0.0,0.0,0.0,0.0,3.5241,3.5241,0.0,0.0,0.0,0.0,0.0,0.0,0.0,0.0,0.0,0.0,0.0,0.0,0.0,0.0,4.2353,4.3544,4.4472,4.514,4.6882,4.7753,4.7869,4.8508,4.8856,4.8885,4.7985,0.0,4.4182,4.3079,0.0,0.0,0.0,0.0,0.0,0.0,0.0,0.0,0.0,0.0,0.0,0.0,0.0,0.0,0.0,0.0,0.0,0.0,0.0,0.0,0.0,2.9343,3.0127,3.2082,3.3122,3.3616,3.3398,3.4747,3.5088,3.4138,3.4632,3.499,3.4971,3.4777,3.5654,3.76,3.9222,4.1189,4.3548,4.4128,4.4895,4.5632,4.4347,4.1949,3.887,3.8368,0.0,0.0,0.0,0.0,0.0,0.0,0.0,0.0,0.0,0.0,0.0,0.0,0.0,0.0,0.0,0.0,0.0,0.0,0.0,0.0,0.0,0.0,0.0,0.0,0.0,0.0,0.0,0.0,0.0,0.0,0.0,0.0,0.0,0.0,0.0,0.0,0.0,0.0,0.0,3.527,3.5764,3.5485,3.6186,3.6534,0.0,0.0,0.0,0.0,0.0,0.0,0.0,0.0,0.0,4.2731,4.3776,4.4937,4.6214,4.7491,4.8478,4.9117,5.0307,5.1062,5.1439,5.2107,5.2397,5.2397,5.2455,5.1439,4.9465,4.604,4.4385,4.3979,0.0,0.0,0.0,0.0,0.0,4.3805,0.0,0.0,0.0,0.0,0.0,0.0,0.0,0.0,0.0,0.0,0.0,0.0,2.9638,3.0926,3.2306,3.3973,3.5701,3.634,3.5634,3.6728,3.6716,3.5252,3.527,3.535,3.5195,3.5732,3.7364,3.9936,4.1936,4.4539,4.7671,4.8101,4.9023,5.0294,5.0216,4.6858,4.1459,4.1053,3.9938,3.8232,0.0,0.0,0.0,0.0,0.0,0.0,0.0,0.0,0.0,0.0,0.0,0.0,0.0,0.0,0.0,0.0,0.0,0.0,0.0,0.0,0.0,0.0,0.0,0.0,0.0,0.0,0.0,0.0,0.0,0.0,0.0,0.0,0.0,0.0,0.0,0.0,0.0,3.588,3.6548,3.5938,3.7302,3.7883,0.0,0.0,0.0,0.0,0.0,0.0,4.1976,4.2847,4.424,4.6301,4.7462,4.874,5.0191,5.1323,5.2194,5.2862,5.3646,5.4284,5.4749,5.5445,5.5736,5.5765,5.6026,5.5533,5.411,4.932,4.6969,4.6272,4.5314,4.5053,4.5256,4.5692,4.5776,4.5801,0.0,0.0,0.0,0.0,0.0,0.0,0.0,0.0,0.0,0.0,0.0,2.9951,3.3064,3.3686,3.4882,3.7411,3.6655,3.5937,3.5673,3.4618,3.4105,3.4428,3.5038,3.5787,3.6512,3.8663,4.0591,4.2222,4.5424,4.8027,5.0094,5.1664,5.2757,5.3464,5.2815,5.0985,4.8162,4.4978,4.4141,4.4507,3.9955,0.0,0.0,0.0,0.0,0.0,0.0,0.0,0.0,0.0,0.0,0.0,0.0,0.0,0.0,0.0,0.0,0.0,0.0,0.0,0.0,0.0,0.0,0.0,0.0,0.0,0.0,0.0,0.0,0.0,0.0,0.0,0.0,0.0,0.0,0.0,0.0,0.0,0.0,3.7273,3.9392,0.0,0.0,0.0,0.0,4.0002,4.1192,4.2731,4.4589,4.5895,4.7753,5.0307,5.1033,5.231,5.4197,5.4865,5.5503,5.6171,5.7419,5.8029,5.8087,5.8755,5.9074,5.9016,5.8435,5.7768,5.681,5.292,5.0946,5.0191,4.8333,4.7956,4.8508,4.8508,4.8537,4.8624,0.0,0.0,0.0,0.0,0.0,0.0,2.5229,2.5959,2.6903,2.8319,2.9758,3.15,3.3513,3.5915,3.803,3.9787,4.0829,4.1097,4.0529,3.9062,3.8121,3.7697,3.6733,3.6816,3.8161,4.0829,4.3698,4.68,5.0451,5.396,5.7368,5.8744,5.9473,5.9846,5.9674,5.8255,5.5683,4.979,4.6764,4.5547,4.2592,4.0353,0.0,0.0,0.0,0.0,0.0,0.0,0.0,0.0,0.0,0.0,0.0,0.0,0.0,0.0,0.0,0.0,0.0,0.0,0.0,0.0,0.0,0.0,0.0,0.0,0.0,0.0,0.0,0.0,0.0,0.0,0.0,0.0,0.0,0.0,0.0,0.0,0.0,4.035,4.2266,0.0,0.0,4.2905,4.3515,4.4356,4.5256,4.6766,4.9088,5.0046,5.1497,5.3646,5.4749,5.5823,5.6926,5.7971,5.861,5.8871,5.9742,6.0177,6.0177,6.0409,6.0526,6.0496,6.0264,5.98,5.9016,5.7274,5.4952,5.2397,5.1294,5.0743,5.0598,5.0598,5.0336,5.0017,0.0,0.0,0.0,0.0,0.0,2.4305,2.5318,2.6141,2.7141,2.8438,3.0732,3.2949,3.4987,3.8413,4.1292,4.3051,4.4056,4.4116,4.2773,4.1104,3.9635,3.8456,3.7916,3.8399,4.007,4.3578,4.7212,5.1183,5.479,5.8338,6.169,6.2775,6.3284,6.3166,6.3166,6.2418,6.0754,5.5077,5.1371,4.9046,4.6255,4.4257,4.2567,0.0,0.0,0.0,0.0,0.0,0.0,0.0,0.0,0.0,0.0,0.0,0.0,0.0,0.0,0.0,0.0,0.0,0.0,0.0,0.0,0.0,0.0,0.0,0.0,0.0,0.0,0.0,0.0,0.0,0.0,0.0,0.0,0.0,0.0,0.0,4.2382,4.3282,4.5227,4.6417,4.6214,4.6592,4.7288,4.8362,4.9233,5.0656,5.2775,5.3704,5.4952,5.6665,5.7739,5.861,5.9277,6.0119,6.0526,6.0526,6.099,6.1193,6.1193,6.1193,6.1193,6.1193,6.1193,6.0932,6.0496,6.0119,5.829,5.5649,5.4371,5.3471,5.2891,5.2891,5.2514,5.1962,0.0,0.0,0.0,0.0,0.0,2.4155,2.4732,2.5884,2.7205,2.8657,3.1321,3.4428,3.7901,4.1368,4.4496,4.716,4.6142,4.4363,4.206,3.9946,3.8091,3.6431,3.8604,4.066,4.2238,4.6954,5.1304,5.4978,5.8375,6.0858,6.2513,6.3707,6.3728,6.2955,6.3015,6.3203,6.3252,6.0656,5.813,5.5511,5.1092,4.9628,4.9378,0.0,0.0,0.0,0.0,0.0,0.0,0.0,0.0,0.0,0.0,0.0,0.0,0.0,0.0,0.0,0.0,0.0,0.0,0.0,0.0,0.0,0.0,0.0,0.0,0.0,0.0,0.0,0.0,0.0,0.0,0.0,0.0,0.0,4.035,4.2498,4.4647,4.5982,4.8333,4.9611,4.903,5.0104,5.112,5.1759,5.2949,5.4226,5.5474,5.6723,5.8,5.9335,5.9916,6.0526,6.1193,6.1222,6.1222,6.1222,6.1222,6.1222,6.1251,6.1222,6.1222,6.1222,6.1222,6.1193,6.1193,6.1193,6.0816,5.9974,5.7507,5.6113,5.5533,5.5533,5.5126,5.4604,0.0,0.0,0.0,0.0,0.0,2.3801,2.5329,2.6277,2.7503,2.9296,3.2811,3.6281,3.9297,4.316,4.6561,4.9194,4.7339,4.5729,4.4911,4.1074,3.8546,3.8121,4.0229,4.312,4.6506,5.0242,5.4059,5.7976,6.1929,6.4389,6.5393,6.7785,6.8295,6.7076,6.7076,6.6898,6.6419,6.5607,6.4318,6.216,5.6042,5.2507,5.0529,0.0,0.0,0.0,0.0,0.0,0.0,0.0,0.0,0.0,0.0,0.0,0.0,0.0,0.0,0.0,0.0,0.0,0.0,0.0,0.0,0.0,0.0,0.0,0.0,0.0,0.0,0.0,0.0,0.0,0.0,0.0,0.0,4.3776,4.3602,4.6185,4.8943,5.1149,5.2833,5.3965,5.4255,5.4633,5.5097,5.5707,5.652,5.7536,5.8813,5.9219,5.98,6.0642,6.0845,6.1019,6.1193,6.1629,6.1832,6.1832,6.1832,6.2093,6.2529,6.1629,6.1425,6.1832,6.1396,6.1193,6.1193,6.1193,6.1077,6.0816,5.9626,5.8784,5.8232,5.8232,5.7507,5.649,0.0,0.0,0.0,0.0,0.0,2.4587,2.5605,2.7066,2.8441,2.9662,3.3652,3.7375,3.9787,4.3528,4.6655,4.8536,4.6688,4.4757,4.3412,4.0418,3.9298,4.0541,4.3426,4.6837,5.069,5.3982,5.7553,6.1353,6.4706,6.6664,6.7483,6.978,7.0096,6.8672,6.8672,6.844,6.8042,6.7744,6.7148,6.5932,6.1731,5.8543,5.5889,5.215,5.0348,4.9341,4.7088,4.6329,4.6055,4.3251,0.0,0.0,0.0,0.0,0.0,0.0,0.0,0.0,0.0,0.0,0.0,0.0,0.0,0.0,0.0,0.0,0.0,0.0,0.0,0.0,0.0,0.0,0.0,0.0,4.5227,4.7782,4.9117,5.0452,5.2223,5.4807,5.5997,5.6897,5.7565,5.7855,5.8145,5.8493,5.9132,5.9829,6.0584,6.0845,6.1164,6.1542,6.1571,6.1716,6.1977,6.1803,6.1832,6.2093,6.2093,6.2296,6.2645,6.1919,6.1774,0.0,6.1454,6.1193,6.1193,6.1193,6.1193,0.0,0.0,0.0,0.0,0.0,5.8813,5.8087,0.0,0.0,0.0,2.3065,2.4474,2.5694,2.5897,2.7892,2.9538,2.987,3.3914,3.75,3.9268,4.2763,4.5263,4.6313,4.4828,4.2752,4.0118,3.9442,4.0536,4.3775,4.7614,5.128,5.47,5.7752,6.102,6.4412,6.6406,6.7875,6.8657,7.0268,7.0298,6.9069,6.9069,6.9069,6.9003,6.8307,6.7943,6.7811,6.7049,6.5425,6.2875,5.7364,5.6075,5.658,5.2441,5.0237,4.901,4.6993,0.0,0.0,0.0,0.0,0.0,0.0,0.0,0.0,0.0,0.0,0.0,0.0,0.0,0.0,0.0,0.0,0.0,0.0,0.0,0.0,0.0,0.0,0.0,0.0,4.9001,5.2194,5.53,5.4952,5.5184,5.7361,5.8232,5.8871,5.9451,6.0061,6.038,6.0322,6.099,6.1338,6.1222,0.0,0.0,0.0,0.0,6.2441,6.2964,6.2006,6.1774,6.2296,6.2296,6.2354,6.2412,6.2267,6.2209,6.218,6.1658,6.1338,6.1193,6.128,6.1251,6.1193,6.1193,6.0845,6.0235,5.9713,5.948,5.9393,0.0,0.0,0.0,2.3065,2.3826,2.4906,2.6459,2.7475,2.8663,3.036,3.3761,3.6329,3.7323,4.0482,4.3175,4.4925,4.3301,4.2208,4.2128,4.2199,4.4169,4.8477,5.2121,5.5329,5.8112,5.9847,6.1808,6.4069,6.5975,6.7512,6.8585,7.0397,7.132,7.1355,7.1355,7.1355,7.1322,7.056,6.9931,6.9301,6.8572,6.6618,6.3868,6.0919,5.9663,5.9069,5.6402,5.5994,5.6211,5.24,5.1318,5.0723,4.6475,4.5007,0.0,0.0,0.0,0.0,0.0,0.0,0.0,0.0,0.0,0.0,0.0,0.0,0.0,0.0,0.0,0.0,0.0,0.0,0.0,4.8537,5.1672,5.4691,5.7361,5.8871,5.9684,5.9626,6.0235,6.07,6.0816,6.1367,6.1513,6.1048,6.2064,6.2267,6.1251,6.2267,0.0,6.1396,6.2354,6.2703,6.2296,6.308,6.3545,6.3661,0.0,0.0,6.4386,6.337,6.2906,6.2906,6.279,6.2151,6.1222,6.1716,6.1629,6.1193,6.1193,6.1106,6.099,6.0874,6.0496,6.0032,0.0,0.0,0.0,2.3527,2.4315,2.5314,2.6614,2.7865,2.901,3.0086,3.2867,3.4999,3.5546,3.787,3.9711,4.0422,3.9706,3.99,4.1676,4.3493,4.678,5.1912,5.5388,5.8381,6.1044,6.2391,6.3875,6.5359,6.726,6.8642,6.9372,7.1298,7.2345,7.2548,7.215,7.2216,7.2515,7.1753,7.1024,7.0328,6.9931,6.8705,6.6883,6.5061,6.3902,6.304,6.1185,6.0324,5.9481,5.6192,5.4787,5.3815,5.0538,4.9224,4.8289,0.0,0.0,0.0,0.0,0.0,0.0,0.0,0.0,0.0,0.0,0.0,0.0,0.0,0.0,4.4269,4.5227,0.0,5.0075,5.263,5.5213,5.7681,5.9887,6.1338,6.189,6.1222,6.1745,6.2151,6.2151,6.2412,6.247,6.218,6.2732,6.2819,6.218,6.3051,6.3283,6.2645,6.3225,6.3719,6.4009,6.3719,6.4038,6.4967,6.4328,6.4357,6.4967,6.4009,6.3399,6.308,6.308,6.2383,6.1222,6.1513,6.1454,6.1193,6.1193,6.1193,6.1193,6.1193,6.099,6.07,0.0,0.0,0.0,2.3966,2.4895,2.5887,2.676,2.8283,2.9482,2.9747,3.2095,3.3755,3.3819,3.54,3.6377,3.6112,3.6558,3.8267,4.1735,4.5149,4.9491,5.5119,5.8381,6.1134,6.3408,6.4691,6.5732,6.6606,6.8383,6.9554,7.0317,7.1934,7.2874,7.3276,7.268,7.2746,7.3276,7.2548,7.1885,7.1289,7.1024,7.0527,6.9831,6.8374,6.7446,6.6717,6.516,6.3073,6.0821,5.8866,5.7243,5.5819,5.446,5.3665,5.2627,4.9394,4.7845,0.0,0.0,0.0,0.0,0.0,0.0,0.0,0.0,0.0,4.3195,4.4472,4.6243,4.7956,4.9233,5.1585,5.411,5.6578,5.8493,6.0293,6.2035,6.2848,6.3022,6.2354,6.2645,6.2964,6.308,6.308,6.308,6.308,6.3312,6.3341,6.3109,6.3806,6.4154,6.4038,6.427,6.4909,6.5925,6.4532,6.459,6.6099,6.4967,6.4677,6.5141,6.4502,6.3806,6.308,6.2964,6.2325,6.1367,6.1367,6.1309,6.1193,6.1193,6.1193,6.1193,6.1193,6.1193,6.1193,0.0,0.0,0.0,0.0,0.0,2.5625,2.7309,2.8235,2.9124,3.03,3.2251,3.3129,3.1961,3.3499,3.4932,3.5415,3.6875,4.0094,4.5664,4.8893,5.3294,5.9159,6.2002,6.3887,6.4784,6.5931,6.6412,6.6132,6.7402,6.8945,7.06,7.0775,7.2036,7.4038,7.3972,7.3972,7.4005,7.3276,7.2945,7.2746,7.1421,7.0858,7.0626,6.9136,6.8506,6.8175,6.6055,6.3504,6.0953,6.0059,5.8767,5.7409,5.6581,5.6282,5.56,5.2223,5.0262,4.8433,4.5026,4.3844,4.3822,4.5397,4.4941,4.4549,0.0,0.0,4.5837,4.7085,4.8914,5.0627,5.1904,5.4255,5.6636,5.8639,6.0119,6.1454,6.279,6.3516,6.369,6.3051,6.2529,6.2441,6.3022,6.308,6.308,6.308,6.4125,6.427,6.3138,6.4241,6.4619,6.4067,6.5141,6.578,6.5925,6.6273,6.6564,6.6767,6.607,6.5751,6.5809,6.517,6.4212,6.3051,6.247,6.2122,6.2006,6.2006,6.1687,6.1193,6.1193,6.1193,6.1193,6.1193,6.1193,6.1193,0.0,0.0,0.0,0.0,0.0,2.5655,2.6419,2.7714,2.8806,2.9362,3.0787,3.1729,3.1526,3.2251,3.3006,3.3645,3.5624,3.9534,4.6079,4.966,5.4309,6.0731,6.3145,6.4666,6.5592,6.6402,6.718,6.7573,6.8829,7.0203,7.1701,7.2379,7.3252,7.4171,7.4171,7.4171,7.4138,7.384,7.3475,7.3011,7.1951,7.1289,7.0693,6.8804,6.7281,6.5955,6.4167,6.2477,0.0,5.827,5.7044,5.6415,5.5653,5.5421,5.4939,5.2637,5.1173,4.9888,4.7572,4.6591,0.0,0.0,4.8966,4.9282,5.077,5.0728,5.0639,5.1695,5.3024,5.4517,5.6171,5.7971,5.9829,0.0,6.2499,6.3167,6.4067,6.4096,6.3661,6.2645,6.2267,6.2499,6.3545,6.3632,6.3806,6.4183,6.4677,6.4764,6.4212,6.4706,6.5025,6.5141,6.5664,6.6302,6.7057,6.6941,6.7086,6.7463,6.6418,6.5925,6.5896,6.5286,6.4502,6.3574,6.2529,6.2093,6.2064,6.1716,6.1425,6.1193,6.1193,6.1193,6.1193,6.1193,6.1193,6.1193,0.0,0.0,0.0,0.0,0.0,2.5914,2.625,2.7583,2.876,2.91,3.0122,3.1003,3.1467,3.1526,3.1729,3.2193,3.4325,3.8282,4.4555,4.906,5.4327,6.0535,6.3296,6.5173,6.6251,6.7095,6.7759,6.8325,6.9808,7.1044,7.195,7.3149,7.3833,7.4171,7.4171,7.4171,7.4171,7.4171,7.3773,7.3045,7.2084,7.1123,6.9997,6.7181,6.5028,6.3305,6.2013,6.0291,5.8247,5.5688,5.4557,5.4207,5.4076,5.4043,5.3705,5.2085,5.0797,4.9798,4.9407,0.0,0.0,5.2191,5.2997,5.3648,5.5669,5.5627,5.553,5.6466,5.7506,5.8519,5.9797,6.1028,0.0,6.3516,6.3922,6.4212,6.4648,6.4183,6.3167,6.1513,6.1338,6.1687,6.2645,6.3196,6.3835,6.4677,6.488,6.4996,6.4996,6.5315,6.5635,6.5925,6.6273,6.6941,6.787,6.758,6.7667,6.8131,6.6825,6.6302,6.6447,6.5431,6.4648,6.398,6.2848,6.2267,6.2064,6.1832,6.16,6.1454,6.1454,6.1454,6.1425,6.1251,6.1193,6.1193,0.0,0.0,0.0,0.0,0.0,2.6301,2.7448,2.8217,2.9145,3.0393,3.109,3.1496,3.1526,3.1526,3.1526,3.1555,3.3492,3.6699,4.1331,4.7555,5.3357,5.8654,6.2844,6.5622,6.6939,6.8087,6.8237,6.7091,6.9463,7.0599,7.0711,7.195,7.3044,7.4171,7.4171,7.4171,7.4171,7.4171,7.3773,7.2978,7.1521,7.0063,6.8274,6.3968,6.1881,6.1119,6.0159,5.653,5.2365,5.2833,5.201,5.1013,5.2395,5.2813,5.2493,5.0794,4.8698,4.7572,0.0,0.0,5.1761,5.5556,5.6301,5.6828,5.9581,5.9727,5.9581,6.0882,6.1939,6.2472,6.2048,6.2903,6.3684,6.324,6.3632,6.4038,6.4067,6.3516,6.218,5.9684,5.9393,5.9393,0.0,6.1077,6.2674,6.398,6.4648,6.4996,6.4996,6.6157,6.6535,6.5954,6.7173,6.7841,6.787,6.8479,6.877,6.877,6.7463,6.7202,6.7754,6.5867,6.4648,6.4009,6.3341,6.2703,6.2151,6.2761,6.2645,6.2064,6.2064,6.2064,6.2006,6.1425,6.1193,6.1193,0.0,0.0,0.0,0.0,0.0,0.0,2.7614,2.7963,2.8397,2.9261,3.0597,0.0,0.0,0.0,0.0,0.0,3.2703,3.5488,4.0275,4.4672,4.9287,5.4156,5.9155,6.1931,6.2162,6.4868,6.6456,6.6894,6.8433,6.9899,7.1103,7.2358,7.314,7.3475,7.3972,7.3906,7.3475,7.3475,7.3343,7.2846,6.9898,6.9003,6.8771,6.2941,5.9597,5.7575,0.0,5.2997,5.1647,4.8679,4.7978,4.8519,4.9,4.9448,4.9941,5.0381,4.9873,4.9769,0.0,0.0,5.5361,5.9317,6.0967,6.2016,6.3635,6.4127,6.4202,6.4403,6.2872,6.1502,6.1783,6.1067,6.0856,6.1909,6.275,6.3545,6.398,6.3486,6.1977,5.8987,5.9393,0.0,0.0,0.0,0.0,6.3864,6.4619,6.517,6.5606,6.6418,6.6999,6.7231,6.7638,6.8073,6.8509,6.8712,6.8625,6.8189,6.6883,6.6157,6.5925,6.5286,6.4648,6.4038,6.3806,6.3341,6.2761,6.2993,6.2964,6.2761,6.2761,6.2761,6.2732,6.2529,6.218,6.1745,0.0,0.0,0.0,0.0,0.0,0.0,0.0,0.0,0.0,0.0,0.0,0.0,0.0,0.0,0.0,0.0,0.0,3.3951,3.7796,4.1522,4.5346,4.9186,5.395,5.6581,5.6852,5.9249,6.0967,6.1673,6.3636,6.5258,6.6602,6.8569,6.9808,7.0394,7.1388,7.172,7.1521,7.1256,7.0991,7.0428,6.6351,6.5008,6.4655,5.8573,5.5037,0.0,4.9363,4.87,4.9038,4.5865,4.5509,4.636,4.6613,4.7225,4.8147,4.966,5.0843,5.2202,0.0,5.7412,5.9572,6.2868,6.463,6.5841,6.7031,6.7492,6.7327,6.6305,6.388,6.1865,6.1052,5.9429,5.8821,6.0456,6.1167,6.1996,6.308,6.2699,6.1321,5.8581,5.9016,0.0,0.0,0.0,0.0,6.2877,6.4038,6.4938,6.5548,6.6651,6.7318,6.7522,6.7986,6.8305,6.8479,6.8712,6.8509,6.787,6.726,6.6506,6.5664,6.5664,6.5315,6.4677,6.4241,6.3806,6.3428,6.3428,6.3428,6.3428,6.3428,6.3428,6.337,6.2906,6.247,6.2035,0.0,0.0,0.0,0.0,0.0,0.0,0.0,0.0,0.0,0.0,0.0,0.0,0.0,0.0,0.0,0.0,0.0,0.0,3.4196,3.8091,4.1498,4.4082,4.7583,5.0011,5.1313,5.2023,5.2378,5.2378,5.5652,5.7428,5.7774,6.1133,6.3563,6.5015,6.6436,6.7519,6.8082,6.742,6.6726,6.5676,6.1075,5.8464,5.6711,5.1403,4.8889,4.7949,4.4734,4.4159,4.4799,4.451,0.0,0.0,0.0,4.6269,4.7449,4.9069,5.1784,5.4825,5.7277,6.0672,6.3968,6.6154,6.7214,6.8109,6.9467,6.9541,6.869,6.6516,6.4997,6.3047,0.0,0.0,5.7801,5.8981,5.9123,5.9767,6.1679,6.1357,6.0309,0.0,0.0,0.0,0.0,0.0,0.0,6.1193,0.0,6.4386,6.5054,6.6883,6.7638,6.6999,6.8189,6.8538,6.7928,6.8509,6.8509,6.7899,6.8479,6.8102,6.6883,6.6854,6.6506,6.5867,6.4619,6.4096,6.4096,6.4096,6.4096,6.4096,6.4096,6.4096,6.3922,6.2703,6.2209,6.2151,0.0,0.0,0.0,0.0,0.0,0.0,0.0,0.0,0.0,0.0,0.0,0.0,0.0,0.0,0.0,0.0,0.0,0.0,3.2948,3.531,3.7652,3.9751,4.3617,4.5932,4.6285,4.8499,4.9656,4.9656,5.1364,5.3006,5.4514,5.6283,5.7828,5.9191,6.012,6.0618,6.0866,6.0071,5.991,5.9966,5.6039,5.5185,5.5637,5.0542,4.8562,4.8309,4.5889,4.5112,0.0,0.0,0.0,0.0,0.0,4.8615,5.0302,5.3052,5.5136,5.7591,6.2141,6.4476,6.622,6.8407,6.9103,6.9334,6.9699,6.8876,6.7619,6.5932,6.2508,5.9278,0.0,0.0,0.0,5.6807,5.9288,0.0,6.3199,6.3326,0.0,0.0,0.0,6.1761,5.9917,6.1615,0.0,0.0,6.3922,6.5228,6.6331,6.7783,6.8509,6.8334,6.8654,6.8741,6.8596,6.8741,6.8509,6.787,6.8044,6.7696,6.6854,6.6389,6.607,6.5896,6.5083,6.4764,6.4764,6.4764,6.4764,6.4764,6.4764,6.4764,6.4706,6.4357,6.3661,6.2848,0.0,0.0,0.0,0.0,0.0,0.0,0.0,0.0,0.0,0.0,0.0,0.0,0.0,0.0,0.0,0.0,0.0,0.0,0.0,3.3529,3.498,3.6867,3.9168,4.0529,4.0821,4.2708,4.3789,4.4053,4.5125,4.6546,4.8279,4.9894,5.1445,5.2881,5.4522,5.5479,5.5729,5.498,5.4908,0.0,0.0,5.0297,5.0979,4.7079,4.5875,4.6036,4.4852,0.0,0.0,0.0,0.0,4.9459,5.0898,5.2845,5.5139,5.7522,0.0,6.1712,6.5425,6.738,6.8738,6.9964,7.0262,6.9864,6.8241,6.7247,6.57,6.2623,5.9449,0.0,0.0,0.0,0.0,0.0,0.0,0.0,6.4236,6.5201,6.5374,0.0,6.5256,0.0,6.4186,6.4784,6.5473,0.0,6.5932,6.6129,6.6796,6.8342,6.9148,6.8828,6.8828,6.8828,6.8828,6.8828,6.8654,6.8276,6.8276,6.8102,6.7725,6.7086,6.6796,6.6738,0.0,6.5548,6.578,6.5228,6.5141,6.5373,6.5083,6.4996,6.4938,6.4677,6.4125,6.3457,0.0,0.0,0.0,0.0,0.0,0.0,0.0,0.0,0.0,0.0,3.1061,3.1438,0.0,0.0,0.0,0.0,0.0,0.0,0.0,0.0,0.0,3.5154,3.5328,3.5619,3.617,3.6751,3.7273,3.7709,3.8485,3.955,4.1113,4.3213,4.5033,4.6639,4.9228,5.0778,5.1393,5.0632,5.032,5.0008,4.6641,4.5191,4.4989,0.0,4.2586,4.3253,0.0,0.0,0.0,0.0,5.0944,5.2611,5.4861,5.7687,6.034,6.189,6.3892,6.6055,6.7645,6.9533,7.1024,7.0924,7.0759,6.9699,6.622,6.5127,6.3384,5.8393,0.0,0.0,5.3236,0.0,5.3775,5.7482,0.0,6.1504,6.5385,6.6985,6.7841,6.8427,6.8084,6.8211,6.913,6.8331,6.8485,7.0086,6.8788,6.7777,6.7305,6.909,6.9973,6.9308,6.9308,6.9366,6.9454,6.9366,6.9366,6.9454,6.9366,6.9308,6.9308,6.8531,6.8136,6.8048,0.0,0.0,6.6796,6.5606,6.5431,6.5867,6.5228,6.4996,6.4909,6.4357,6.4125,6.3951,0.0,0.0,0.0,0.0,0.0,0.0,0.0,0.0,0.0,0.0,3.0655,3.0945,0.0,0.0,0.0,0.0,0.0,0.0,0.0,0.0,0.0,0.0,3.5067,3.5415,3.5532,0.0,0.0,0.0,0.0,3.5962,3.7272,3.8722,4.0088,4.1499,4.3064,4.4214,4.4841,4.405,4.3826,4.3844,4.3064,4.2714,4.2714,4.2262,0.0,0.0,0.0,0.0,0.0,0.0,5.3422,5.5282,5.7516,5.9845,6.2179,6.4178,6.5989,6.7678,6.9765,7.1057,7.1653,7.1057,6.9964,6.844,6.5955,6.357,0.0,0.0,0.0,5.4109,5.278,0.0,0.0,5.8328,0.0,0.0,0.0,0.0,6.9401,0.0,0.0,0.0,0.0,0.0,0.0,0.0,0.0,0.0,6.9376,7.1153,7.2208,7.2048,7.2078,7.2448,7.3028,7.2479,7.2479,7.3028,7.2448,7.2078,7.2048,7.0239,6.9456,6.9397,0.0,0.0,6.6825,6.607,6.5838,6.5867,6.5228,6.4996,6.4967,6.4851,6.4502,6.4038,0.0,0.0,0.0,0.0,0.0,0.0,0.0,2.961,2.9958,3.0945,3.1061,3.1061,3.1032,3.1613,3.199,0.0,0.0,0.0,0.0,0.0,0.0,0.0,0.0,0.0,0.0,0.0,0.0,0.0,0.0,0.0,0.0,0.0,0.0,0.0,0.0,0.0,4.2607,4.2228,4.2135,4.2166,4.2111,4.2092,4.2092,0.0,0.0,0.0,0.0,0.0,0.0,0.0,5.3618,5.6624,6.0125,6.3206,6.5856,6.7281,6.8473,6.9633,7.109,7.2018,7.2415,7.1653,7.0063,6.7711,6.4034,0.0,0.0,0.0,0.0,5.286,5.2128,0.0,0.0,0.0,0.0,0.0,0.0,0.0,0.0,0.0,0.0,0.0,0.0,0.0,0.0,0.0,0.0,0.0,7.1435,7.2608,7.3168,7.2829,7.3476,7.3845,7.3971,7.3845,7.3999,7.4464,7.366,7.3353,7.3322,7.1262,7.032,7.0162,6.8298,0.0,6.8749,6.7423,6.7275,6.7776,6.645,6.5777,6.5431,6.5112,6.4793,6.4532,0.0,0.0,0.0,0.0,0.0,0.0,2.9726,2.9929,3.0393,3.138,3.1642,3.1496,3.0858,3.1351,3.1729,0.0,0.0,0.0,0.0,0.0,0.0,0.0,0.0,0.0,0.0,0.0,0.0,0.0,0.0,0.0,0.0,0.0,0.0,0.0,0.0,0.0,0.0,4.2092,4.2005,0.0,0.0,0.0,0.0,0.0,0.0,0.0,0.0,0.0,0.0,0.0,5.3018,5.6751,6.0754,6.484,6.8307,6.8738,6.9931,7.1223,7.1653,7.2415,7.2912,7.1985,6.9732,6.6585,6.2113,5.9032,0.0,0.0,0.0,5.2079,5.1769,0.0,0.0,0.0,0.0,0.0,0.0,0.0,0.0,0.0,0.0,0.0,0.0,0.0,0.0,0.0,0.0,0.0,7.3811,7.3942,7.4004,7.369,7.4717,7.5154,7.4936,7.5278,7.5558,7.5808,7.5029,7.4624,7.4468,7.2544,7.1668,7.151,6.9773,0.0,0.0,6.9321,6.9231,6.9983,6.8271,6.7135,6.6429,6.5786,6.5513,6.5402,0.0,0.0,0.0,0.0,0.0,0.0,3.0393,3.0974,3.138,3.1496,3.2048,3.2164,3.1496,3.2019,3.2425,0.0,0.0,0.0,0.0,0.0,0.0,0.0,0.0,0.0,0.0,0.0,0.0,0.0,0.0,0.0,0.0,0.0,0.0,0.0,0.0,0.0,0.0,0.0,0.0,0.0,0.0,0.0,0.0,0.0,0.0,0.0,0.0,0.0,0.0,0.0,0.0,5.5273,5.7182,6.1923,6.6585,6.5989,0.0,0.0,7.1156,7.2051,7.278,7.1355,6.7844,6.4067,6.1649,0.0,0.0,0.0,5.223,5.2356,5.2389,0.0,0.0,0.0,5.8194,6.072,0.0,0.0,0.0,0.0,0.0,0.0,0.0,0.0,0.0,0.0,0.0,0.0,0.0,7.5337,7.522,7.6442,7.6539,7.7184,7.8409,7.7829,7.7861,7.8506,7.7764,7.7119,7.6507,7.507,7.4414,7.4382,7.2984,0.0,0.0,7.1783,7.1507,7.1507,7.0093,6.9123,6.8549,6.7767,6.7187,6.6709,0.0,0.0,0.0,0.0,0.0,0.0,3.048,3.1119,3.1671,3.2077,3.2687,3.2977,3.2716,3.26,3.2513,3.2513,3.1555,0.0,0.0,0.0,0.0,0.0,0.0,0.0,0.0,0.0,0.0,0.0,0.0,0.0,0.0,0.0,0.0,0.0,0.0,0.0,0.0,0.0,0.0,0.0,0.0,0.0,0.0,0.0,0.0,0.0,0.0,0.0,0.0,0.0,0.0,0.0,5.2941,5.6507,0.0,0.0,6.6891,6.9136,7.1057,7.1985,7.2316,7.172,6.7579,6.3239,6.1516,0.0,5.3493,5.2317,5.223,5.2329,5.2155,5.2441,5.3357,5.5096,5.541,5.7126,0.0,0.0,0.0,0.0,0.0,0.0,0.0,0.0,0.0,0.0,0.0,0.0,0.0,7.797,7.7616,7.6848,7.8046,7.8758,7.8888,7.8596,7.8823,7.9536,7.8791,7.8078,7.7398,7.5996,7.515,7.4771,7.3415,0.0,0.0,7.3271,7.2989,7.2895,7.1925,7.103,7.0037,6.9732,6.9456,6.9325,0.0,0.0,0.0,0.0,0.0,3.0045,3.051,3.1119,3.17,3.2164,3.2774,3.318,3.318,3.26,3.2367,3.2774,3.1613,0.0,0.0,0.0,0.0,0.0,0.0,0.0,0.0,0.0,3.7186,3.7564,3.6925,0.0,0.0,0.0,0.0,0.0,0.0,0.0,0.0,0.0,0.0,0.0,0.0,0.0,0.0,0.0,0.0,0.0,0.0,0.0,0.0,0.0,0.0,0.0,0.0,0.0,0.0,0.0,6.4387,6.6924,6.9401,7.0858,7.162,7.1388,6.6949,6.2378,0.0,0.0,5.2897,5.2362,5.2302,5.2302,5.1941,5.2425,5.3039,5.3716,5.3896,5.528,5.934,0.0,0.0,0.0,0.0,0.0,0.0,0.0,0.0,0.0,0.0,0.0,0.0,7.9892,7.9309,7.7172,7.8564,7.9082,7.8564,7.8791,7.9147,7.9633,7.9147,7.8499,7.7819,7.6795,7.6028,7.5274,0.0,0.0,0.0,7.4849,7.4658,7.4594,7.3894,7.3011,7.1956,7.1738,7.156,7.1504,0.0,0.0,0.0,0.0,0.0,3.0568,3.0568,3.1119,3.1526,3.1526,3.2106,3.2542,3.2542,3.1932,3.2048,3.3354,3.2251,0.0,0.0,0.0,0.0,0.0,0.0,0.0,3.6286,3.6315,3.6925,3.8202,3.7593,3.7941,3.916,3.8522,0.0,0.0,0.0,0.0,0.0,0.0,4.0495,0.0,0.0,0.0,0.0,0.0,0.0,0.0,0.0,0.0,0.0,0.0,0.0,0.0,0.0,0.0,0.0,0.0,6.1132,6.608,6.5568,6.8142,7.0726,6.9997,6.5425,6.1119,0.0,5.6581,5.2407,5.2373,5.2373,5.2302,5.2086,5.2499,5.2964,5.3486,5.463,5.6413,5.9295,0.0,0.0,0.0,0.0,0.0,0.0,0.0,0.0,0.0,0.0,0.0,0.0,8.0637,8.0021,7.7884,7.7819,7.7819,7.7819,7.8532,7.8888,7.8888,7.8888,7.8499,7.7819,7.7819,7.7431,0.0,0.0,0.0,0.0,7.6783,7.6783,7.6718,7.6006,7.5278,7.4676,7.3981,7.3307,7.2798,0.0,0.0,0.0,0.0,0.0,0.0,3.0568,3.1119,3.1526,3.1526,3.2106,3.2513,3.2513,3.1932,3.2048,3.3354,3.228,0.0,0.0,0.0,0.0,0.0,0.0,0.0,3.6286,3.6751,3.7186,3.7593,3.7825,3.8115,3.8522,3.8783,3.8841,3.8841,3.9712,3.9857,0.0,3.9915,4.0495,0.0,0.0,0.0,0.0,0.0,0.0,0.0,0.0,0.0,0.0,0.0,0.0,0.0,0.0,0.0,0.0,5.2529,5.6146,0.0,6.2319,6.3616,6.4266,6.4531,6.1318,5.8071,5.8071,5.5123,5.2506,5.3003,5.2705,5.2672,5.3592,5.2836,5.2679,5.4305,5.4644,5.5458,5.7539,0.0,0.0,0.0,0.0,0.0,0.0,0.0,0.0,0.0,0.0,0.0,0.0,8.0646,7.9964,7.8596,7.9017,7.905,7.8564,7.8791,7.8888,7.8888,7.8888,7.8499,7.7819,7.7819,0.0,0.0,0.0,0.0,0.0,7.6783,7.6491,7.6103,7.6362,7.604,7.5474,7.5731,7.5727,7.5539,0.0,0.0,0.0,0.0,0.0,0.0,3.0568,3.0916,3.1148,3.1148,3.1526,3.1874,3.2106,3.1555,3.1787,3.3325,3.2513,0.0,0.0,0.0,0.0,0.0,0.0,0.0,3.5938,3.6373,3.6693,3.6925,3.7796,3.8202,3.8202,3.8638,3.8725,3.858,3.8899,3.8957,0.0,3.9741,4.035,4.0757,0.0,0.0,4.2092,0.0,0.0,0.0,0.0,0.0,0.0,0.0,0.0,0.0,0.0,0.0,0.0,0.0,5.2921,5.5357,0.0,6.0423,6.1218,6.1565,5.9198,0.0,5.6603,5.4386,5.2506,5.2937,5.2831,5.2897,5.3599,5.3033,5.2964,5.4459,5.4607,5.5247,5.7395,0.0,0.0,0.0,0.0,0.0,0.0,0.0,0.0,0.0,0.0,0.0,0.0,0.0,8.0373,7.9425,7.9704,7.9444,7.873,7.8874,7.8758,7.8499,7.905,7.8791,7.7819,7.8078,0.0,0.0,0.0,0.0,0.0,7.6783,7.6524,7.6168,7.6621,7.6524,7.6168,7.6621,7.6783,7.6783,0.0,0.0,0.0,0.0,0.0,0.0,0.0,3.0568,3.0568,3.0568,3.0568,3.08,3.138,3.0945,3.1322,3.3238,3.2861,0.0,0.0,0.0,0.0,0.0,0.0,3.4632,3.527,3.5398,3.5677,3.6315,3.7506,3.8086,3.8144,3.8086,3.8434,3.9015,3.7825,3.7651,3.8289,3.9421,3.9944,4.0147,0.0,4.1976,0.0,0.0,0.0,0.0,0.0,0.0,0.0,0.0,0.0,0.0,0.0,0.0,0.0,0.0,0.0,0.0,0.0,5.8243,6.0407,6.0208,5.8243,5.6305,5.615,5.4146,0.0,0.0,0.0,0.0,5.2705,5.3189,5.3803,5.4283,5.4567,5.5766,5.8535,0.0,0.0,0.0,0.0,0.0,0.0,0.0,0.0,0.0,0.0,0.0,0.0,0.0,8.1011,8.0294,7.9642,7.9072,7.8307,7.8712,7.8564,7.7819,7.9179,7.9115,7.7819,7.8467,0.0,0.0,0.0,0.0,0.0,7.6783,7.6783,7.6783,7.6783,7.6783,7.6783,7.6783,7.6783,7.6783,0.0,0.0,0.0,0.0,0.0,0.0,0.0,0.0,0.0,0.0,3.0568,3.0626,3.0771,3.0655,3.1177,0.0,0.0,0.0,0.0,0.0,0.0,0.0,3.3616,3.3993,3.4632,3.5125,3.5677,3.6315,3.6606,3.7012,3.7506,3.6983,3.7099,3.7738,3.7447,3.7651,3.8202,3.8028,3.8522,3.9479,4.0263,4.0873,0.0,0.0,0.0,0.0,4.2555,4.3663,0.0,0.0,0.0,0.0,0.0,0.0,0.0,0.0,5.135,5.1662,5.2464,0.0,5.4053,5.4128,5.3676,5.3181,0.0,0.0,0.0,0.0,0.0,0.0,0.0,5.4435,5.4405,5.5476,5.5726,5.6366,5.8198,0.0,0.0,0.0,0.0,0.0,0.0,0.0,0.0,0.0,0.0,0.0,0.0,0.0,8.0049,7.9135,7.9196,7.892,7.8274,7.9198,7.9198,7.8161,7.8258,7.8258,7.8161,7.7577,0.0,0.0,0.0,0.0,7.6783,7.6783,7.6783,7.6783,7.6783,7.6783,7.6783,7.6783,7.6783,7.6783,0.0,0.0,0.0,0.0,0.0,0.0,0.0,0.0,0.0,0.0,3.0568,3.0684,3.0974,3.1003,3.1526,0.0,0.0,0.0,0.0,0.0,0.0,0.0,3.3906,3.408,3.4399,3.4748,3.5241,3.588,3.646,3.7099,3.7709,3.7331,3.736,3.768,3.7099,3.736,3.8173,3.7854,3.8289,3.9247,3.9857,0.0,0.0,0.0,0.0,0.0,4.2688,4.3741,0.0,4.667,4.7977,4.9289,0.0,0.0,0.0,0.0,5.1275,5.135,5.135,5.1647,5.1941,5.1941,5.2086,5.223,5.223,0.0,0.0,0.0,0.0,0.0,0.0,0.0,0.0,5.5632,5.6014,5.7167,0.0,0.0,0.0,0.0,0.0,0.0,0.0,0.0,0.0,0.0,0.0,0.0,0.0,0.0,7.9616,7.8232,7.9188,7.911,7.801,7.8779,7.8779,7.7786,7.8324,7.8291,7.7786,7.7641,7.722,0.0,0.0,0.0,7.6783,7.6783,7.6783,7.6783,7.6783,7.6783,7.6783,7.6783,7.6783,7.6783,0.0,0.0,0.0,0.0,0.0,0.0,0.0,0.0,0.0,0.0,0.0,0.0,0.0,0.0,0.0,0.0,0.0,0.0,0.0,0.0,0.0,0.0,3.4312,3.4312,3.4399,3.4399,3.4777,3.5503,3.6519,3.736,3.8057,3.797,3.797,3.7999,3.6838,3.7012,3.8202,3.7999,3.8405,3.9247,3.9741,0.0,0.0,0.0,0.0,0.0,0.0,0.0,0.0,4.6925,4.8211,4.9256,5.0584,0.0,0.0,0.0,0.0,0.0,5.1199,5.1712,5.2178,5.19,5.2086,5.2302,5.2158,0.0,0.0,0.0,0.0,0.0,0.0,0.0,0.0,0.0,5.6533,5.8641,0.0,0.0,0.0,0.0,0.0,0.0,0.0,0.0,0.0,0.0,0.0,0.0,0.0,0.0,0.0,7.7588,7.8958,7.9023,7.7555,7.8075,7.8028,7.7311,7.8518,7.8452,7.7343,7.793,7.7673,0.0,0.0,0.0,7.6896,7.6896,7.6896,7.6896,7.6896,7.6896,7.6896,7.6783,7.6783,7.6783,0.0,0.0,0.0,0.0,0.0,0.0,0.0,0.0,0.0,0.0,0.0,0.0,0.0,0.0,0.0,0.0,0.0,0.0,0.0,0.0,0.0,3.4399,3.3906,3.3877,3.4399,3.4399,3.498,3.617,3.5822,3.6286,3.7447,3.6867,3.6896,3.7418,3.6664,3.7012,3.8144,3.7041,3.7622,3.9218,0.0,0.0,0.0,0.0,0.0,0.0,0.0,0.0,0.0,4.6391,4.7828,4.9159,5.0001,0.0,0.0,0.0,0.0,0.0,5.1199,5.1922,5.2655,5.1925,5.1941,5.2158,5.2302,0.0,0.0,0.0,0.0,0.0,0.0,0.0,0.0,0.0,0.0,0.0,0.0,0.0,0.0,0.0,0.0,0.0,0.0,0.0,0.0,0.0,0.0,0.0,0.0,0.0,0.0,7.705,7.7602,7.7602,7.7082,7.8146,7.8441,7.7971,7.7949,7.7949,7.7971,7.7741,7.7598,0.0,0.0,7.7499,7.7499,7.7499,7.7499,7.7499,7.7199,7.7088,7.7088,7.6896,7.6783,7.6783,0.0,0.0,0.0,0.0,0.0,0.0,0.0,0.0,0.0,0.0,0.0,0.0,0.0,0.0,0.0,0.0,0.0,0.0,0.0,0.0,3.4399,3.4399,3.4138,3.4109,3.4399,3.4399,3.5038,3.6315,3.6025,3.6722,3.8318,3.7302,3.7186,3.7709,3.6025,3.6199,3.7651,3.6722,3.7418,3.9189,0.0,0.0,0.0,0.0,0.0,0.0,0.0,0.0,0.0,0.0,4.8128,4.9159,4.9872,0.0,0.0,0.0,0.0,0.0,5.1199,5.1652,5.2072,5.186,5.2309,5.2792,5.2937,0.0,0.0,0.0,0.0,0.0,0.0,0.0,0.0,0.0,0.0,0.0,0.0,0.0,0.0,0.0,0.0,0.0,0.0,0.0,0.0,0.0,0.0,0.0,0.0,0.0,0.0,0.0,7.7206,7.751,7.78,7.8353,7.8409,7.8079,7.7938,7.7971,7.8079,7.7938,7.7719,7.761,0.0,7.761,7.761,7.761,7.761,7.761,7.7499,7.7389,7.7389,7.7088,7.7088,7.7199,0.0,0.0,0.0,0.0,0.0,0.0,0.0,0.0,0.0,0.0,0.0,0.0,0.0,0.0,0.0,0.0,0.0,0.0,0.0,3.4399,3.4399,3.4399,3.4545,3.4574,3.4399,3.4545,3.5183,3.6315,3.646,3.7447,3.9189,3.8202,3.7999,3.8347,3.6083,3.5996,3.7476,3.6954,3.7709,3.9189,0.0,0.0,0.0,0.0,0.0,0.0,0.0,0.0,0.0,0.0,0.0,0.0,0.0,0.0,0.0,5.1199,5.1199,5.1199,5.1199,5.148,5.1727,5.1754,5.2408,5.3228,0.0,0.0,0.0,0.0,0.0,0.0,0.0,0.0,0.0,0.0,0.0,0.0,0.0,0.0,0.0,0.0,0.0,0.0,0.0,0.0,0.0,0.0,0.0,0.0,0.0,0.0,0.0,0.0,7.7146,7.7517,7.8246,7.8444,7.8403,7.8188,7.8188,7.8188,7.8188,7.8188,7.8079,7.7829,7.7829,7.7829,7.7829,7.7829,7.7829,7.7829,7.7719,7.7719,7.761,7.7389,7.7499,7.7719,0.0,0.0,0.0,0.0,0.0,0.0,0.0,0.0,0.0,0.0,0.0,0.0,0.0,0.0,0.0,0.0,0.0,0.0,0.0,3.4399,3.4399,3.4399,3.498,3.5009,3.4428,3.498,3.5619,3.6315,3.6925,3.7912,3.9189,3.9102,3.9102,3.9073,3.7709,3.7476,3.8144,3.8086,3.8492,3.9189,3.9189,0.0,0.0,0.0,0.0,0.0,0.0,0.0,0.0,0.0,0.0,0.0,0.0,0.0,5.1199,5.1199,5.1199,5.1199,5.1199,5.1837,5.2346,5.1662,0.0,0.0,0.0,0.0,0.0,0.0,0.0,0.0,0.0,0.0,0.0,0.0,0.0,0.0,0.0,0.0,0.0,0.0,0.0,0.0,0.0,0.0,0.0,0.0,0.0,0.0,0.0,0.0,0.0,0.0,0.0,7.6755,7.7484,7.8179,7.8511,7.8511,7.8511,7.8511,7.8511,7.8511,7.8403,7.8403,7.8403,7.8403,7.8403,7.8403,7.8403,7.8403,7.8188,7.7829,7.761,7.761,7.7719,7.8079,0.0,0.0,0.0,0.0,0.0,0.0,0.0,0.0,0.0,0.0,0.0,3.2658,3.3064,0.0,0.0,0.0,0.0,0.0,3.4399,3.4399,3.4399,3.4399,3.4632,3.4835,3.5009,3.5619,3.6286,3.6925,3.797,3.8725,3.9189,3.8783,3.8376,3.7999,3.7506,3.7651,3.8231,3.8638,3.9421,4.0379,4.0379,4.0757,0.0,0.0,0.0,0.0,0.0,0.0,0.0,0.0,4.7845,4.9062,4.9354,5.0228,5.1199,5.1199,5.1199,5.1199,5.1199,5.1544,5.1857,5.1564,0.0,0.0,0.0,0.0,0.0,0.0,0.0,0.0,0.0,0.0,0.0,0.0,0.0,0.0,0.0,0.0,0.0,0.0,0.0,0.0,0.0,0.0,0.0,0.0,0.0,0.0,0.0,0.0,0.0,0.0,0.0,7.5993,7.6722,7.702,7.7152,7.7152,7.808,7.8511,7.8511,7.8511,7.8511,7.8511,7.8511,7.8246,7.7881,7.8345,7.8246,7.7881,7.8238,7.8296,7.8188,7.7938,7.8079,7.8296,0.0,0.0,0.0,0.0,0.0,0.0,0.0,0.0,3.0922,0.0,0.0,0.0,0.0,3.3906,0.0,0.0,0.0,0.0,3.4399,3.4399,3.4399,3.4399,3.4603,3.4922,3.5427,3.6199,3.6838,3.7302,3.8783,3.9479,3.9479,3.9015,3.858,3.8173,3.7999,3.8231,3.8841,3.9305,3.9973,4.0786,4.0786,4.1324,0.0,0.0,0.0,0.0,0.0,0.0,0.0,0.0,4.7813,4.9062,4.9289,5.0196,5.1199,5.1199,5.1275,5.1275,5.1275,5.1424,5.1573,5.1573,0.0,0.0,0.0,0.0,0.0,0.0,0.0,0.0,0.0,0.0,0.0,0.0,0.0,0.0,0.0,0.0,0.0,0.0,0.0,0.0,0.0,0.0,0.0,0.0,0.0,0.0,0.0,0.0,0.0,0.0,0.0,7.5496,7.5993,7.6192,7.6192,7.5993,7.7219,7.7947,7.8179,7.8179,7.8179,7.8179,7.8411,7.798,7.7152,7.8113,7.8212,7.7815,7.8312,7.8511,7.8511,7.8296,7.8296,7.8511,0.0,0.0,0.0,0.0,0.0,0.0,0.0,0.0,3.0836,3.0836,3.1791,0.0,0.0,0.0,0.0,0.0,0.0,0.0,3.4399,3.4399,3.4399,3.4399,3.5009,3.5427,3.5427,3.6635,3.7331,3.7331,3.916,4.0089,4.0089,4.0089,4.0089,4.006,3.9479,3.9538,4.0089,4.0118,4.0089,4.0089,4.0118,4.1018,4.2329,0.0,0.0,0.0,0.0,0.0,0.0,0.0,4.7805,4.9159,4.9872,5.0584,5.1199,5.1199,5.135,5.1499,5.1499,5.1647,5.1794,0.0,0.0,0.0,0.0,0.0,0.0,0.0,0.0,0.0,0.0,0.0,0.0,0.0,0.0,0.0,0.0,0.0,0.0,0.0,0.0,0.0,0.0,0.0,0.0,0.0,0.0,0.0,0.0,0.0,0.0,0.0,7.5264,7.5264,7.5264,7.5927,7.5927,7.5264,7.596,7.6689,7.7417,7.7417,7.7417,7.745,7.8179,7.7682,7.6424,7.7881,7.8511,7.8511,7.8511,7.8511,7.8511,7.8511,7.8511,7.8511,0.0,0.0,0.0,0.0,0.0,0.0,0.0,0.0,3.1131,3.145,3.2178,0.0,0.0,0.0,0.0,0.0,0.0,0.0,3.4399,3.4399,3.4399,3.4399,3.4603,3.4893,3.5427,3.6635,3.7738,3.8638,3.8725,3.8754,3.8783,3.9247,3.9218,3.8783,3.9509,3.9915,4.0118,4.0583,4.1155,4.1703,4.2179,4.2585,4.3049,0.0,0.0,0.0,0.0,0.0,0.0,0.0,0.0,0.0,4.9289,5.0196,5.1199,5.1199,5.1275,5.135,5.1424,0.0,0.0,0.0,0.0,0.0,0.0,0.0,0.0,0.0,0.0,0.0,0.0,0.0,0.0,0.0,0.0,0.0,0.0,0.0,0.0,0.0,0.0,0.0,0.0,0.0,0.0,0.0,0.0,0.0,0.0,0.0,0.0,0.0,7.3475,7.374,7.374,7.3442,7.3707,7.4502,7.4204,7.4966,7.6655,7.7185,7.7119,7.6689,7.7417,7.692,7.5628,7.6059,7.6821,7.7749,7.7749,7.7749,7.7815,7.8345,7.8511,7.8511,0.0,0.0,0.0,0.0,0.0,0.0,3.1394,3.1249,3.1368,3.1957,3.2482,3.3128,0.0,0.0,0.0,3.4773,3.4601,0.0,3.4399,3.4399,3.4399,3.4399,3.4399,3.4719,3.5427,3.6629,3.7682,3.8463,3.8551,3.8609,3.8609,3.9247,3.9479,3.9392,4.0437,4.1033,4.1351,4.1762,4.208,4.2312,4.3089,4.3576,4.3897,0.0,0.0,0.0,0.0,0.0,0.0,0.0,0.0,0.0,4.9354,5.026,5.1199,5.1199,5.1275,5.135,5.1573,0.0,0.0,0.0,0.0,0.0,0.0,0.0,0.0,0.0,0.0,0.0,0.0,0.0,0.0,0.0,0.0,0.0,0.0,0.0,0.0,0.0,0.0,0.0,0.0,0.0,0.0,0.0,0.0,0.0,0.0,0.0,0.0,0.0,7.2448,7.268,7.268,7.2216,7.2581,7.374,7.331,7.3939,7.5496,7.6225,7.6324,7.5894,7.6059,7.596,7.5662,7.5397,7.596,7.702,7.7318,7.7417,7.7517,7.8246,7.8511,7.8477,0.0,0.0,3.1482,3.1482,0.0,0.0,3.1597,3.1511,3.1692,3.2258,3.2882,3.366,0.0,0.0,0.0,3.54,3.5067,3.4698,3.4428,3.4467,3.4467,3.4534,3.4593,3.4952,3.5496,3.6832,3.7416,3.7302,3.8522,3.9102,3.9131,3.9799,4.0546,4.1266,4.1878,4.2496,4.325,4.3289,4.2929,4.2359,4.3302,4.4075,4.4662,4.5478,0.0,0.0,0.0,0.0,0.0,0.0,0.0,0.0,4.9904,5.0617,5.1199,5.1199,5.135,5.1606,0.0,0.0,0.0,0.0,0.0,0.0,0.0,0.0,0.0,0.0,0.0,0.0,0.0,0.0,0.0,0.0,0.0,0.0,0.0,0.0,0.0,0.0,0.0,0.0,0.0,0.0,0.0,0.0,0.0,0.0,0.0,0.0,0.0,0.0,7.1852,7.1918,7.1918,7.1819,7.2216,0.0,7.2945,7.3276,7.4005,7.48,7.5165,7.5132,7.4403,7.49,7.6159,7.5397,7.5529,7.6291,7.6954,7.7219,7.7318,7.8047,7.8312,7.8212,0.0,0.0,3.1482,3.1482,0.0,0.0,3.2104,3.2532,3.284,3.2907,3.4414,3.5303,3.4912,3.5518,0.0,3.5563,3.5464,3.5264,3.4698,3.4971,3.5299,3.5429,3.63,3.6663,3.6216,3.8068,3.8491,3.7302,3.8057,3.8405,3.8434,3.9567,4.0803,4.2127,4.2198,4.2634,4.3349,4.3396,4.3363,4.3376,4.4642,4.5321,4.5551,4.6372,4.6372,0.0,0.0,0.0,0.0,0.0,0.0,0.0,5.0066,5.0617,5.1275,5.1424,5.1424,0.0,0.0,0.0,0.0,0.0,0.0,0.0,0.0,0.0,0.0,0.0,0.0,0.0,0.0,0.0,0.0,0.0,0.0,0.0,0.0,0.0,0.0,0.0,0.0,0.0,0.0,0.0,0.0,0.0,0.0,0.0,0.0,0.0,0.0,7.0295,7.0825,7.1123,7.1123,7.056,7.0924,0.0,7.1653,7.1753,7.2515,7.3807,7.4403,7.437,7.3641,7.4171,7.5397,7.4105,7.4337,7.5529,7.5662,7.5728,7.5827,7.6523,7.6788,7.6755,0.0,0.0,0.0,0.0,0.0,0.0,0.0,0.0,3.3979,3.4576,3.5582,3.6205,3.5981,3.6137,0.0,0.0,3.6039,3.5879,3.5721,3.5946,3.6134,3.6197,3.7312,3.7684,3.7044,3.9051,3.9313,3.7814,3.8953,3.9179,3.8696,4.0469,4.1803,4.2839,4.3529,4.4067,4.4479,4.4856,4.4674,4.4184,4.5769,4.6159,4.5769,4.6722,4.6722,4.6372,4.6722,0.0,0.0,0.0,0.0,0.0,0.0,0.0,5.1199,5.135,5.1424,0.0,0.0,0.0,0.0,0.0,0.0,0.0,0.0,0.0,0.0,0.0,0.0,0.0,0.0,0.0,0.0,0.0,0.0,0.0,0.0,0.0,0.0,0.0,0.0,0.0,0.0,0.0,0.0,0.0,0.0,0.0,0.0,7.0527,7.0593,6.9831,7.0163,7.0361,7.0361,6.9997,7.0361,7.1455,7.109,7.109,7.1521,7.2647,7.3144,7.3111,7.2746,7.3011,7.3641,7.2879,7.3011,7.3773,7.4469,7.4734,7.4867,7.5927,7.6324,7.6258,0.0,0.0,0.0,0.0,0.0,0.0,0.0,0.0,0.0,3.6413,3.6724,3.7011,3.7291,3.6935,3.6845,0.0,0.0,0.0,3.6843,3.6964,3.7024,3.6964,3.8236,3.8679,3.806,3.9945,4.0166,3.8635,4.0372,4.0724,3.9694,4.1663,4.3039,4.3897,4.5033,4.5641,4.5959,4.6539,4.6063,4.4946,4.6565,4.6722,4.6088,4.7091,4.7362,4.7225,4.7286,4.7804,4.8518,4.903,0.0,0.0,0.0,0.0,5.1199,5.1275,5.135,5.1606,0.0,0.0,0.0,0.0,0.0,0.0,0.0,0.0,0.0,0.0,0.0,0.0,0.0,0.0,0.0,0.0,0.0,0.0,0.0,0.0,0.0,0.0,0.0,0.0,0.0,0.0,0.0,0.0,0.0,0.0,6.9831,6.9798,6.9798,6.9798,6.9798,6.9798,6.9798,6.9798,7.0096,7.0693,7.0693,7.0693,7.0726,7.1355,7.1686,7.1819,7.1819,7.1885,7.1985,7.1852,7.1885,7.2117,7.3475,7.4005,7.4138,7.5463,7.5927,7.586,0.0,0.0,0.0,0.0,0.0,0.0,0.0,0.0,0.0,0.0,3.8155,3.8745,3.8222,3.8108,3.7994,3.7937,3.7911,3.7621,3.7115,0.0,0.0,3.7706,3.9606,4.0318,3.959,4.1063,4.1112,3.9645,4.1661,4.2267,4.1573,4.2466,4.4024,4.5921,4.6017,4.6438,4.7061,4.7109,4.6615,4.5857,4.686,4.7098,4.7095,4.7988,4.8286,4.8384,4.8795,4.9479,5.0026,5.001,5.0455,0.0,0.0,0.0,5.1242,5.1424,5.1499,0.0,0.0,0.0,0.0,0.0,0.0,0.0,0.0,0.0,0.0,0.0,0.0,0.0,0.0,0.0,0.0,0.0,0.0,0.0,0.0,0.0,0.0,0.0,0.0,0.0,0.0,0.0,0.0,0.0,0.0,0.0,6.9798,6.9798,6.9798,6.9798,6.9798,6.9798,6.9798,6.9798,6.9831,6.9931,6.9931,6.9931,6.9931,7.003,7.0428,7.1057,7.1057,7.1421,7.1951,7.1322,7.1421,7.2084,7.2912,7.3243,7.3343,7.4171,7.4469,7.4436,0.0,0.0,0.0,0.0,0.0,0.0,0.0,0.0,0.0,0.0,0.0,3.9007,3.8334,3.8278,3.8278,3.8222,3.8197,3.8254,3.8311,3.8511,3.8786,3.9266,4.0369,4.1089,4.1244,4.1868,4.1596,4.0443,4.2374,4.3287,4.3363,4.4623,4.5814,4.6917,4.7761,4.8064,4.7967,4.7952,4.7525,4.6892,4.7302,4.7667,4.7991,4.8456,4.8817,4.9141,4.9398,4.9844,5.0391,5.0391,5.088,5.135,5.135,0.0,0.0,0.0,0.0,0.0,0.0,0.0,0.0,0.0,0.0,0.0,0.0,0.0,0.0,0.0,0.0,0.0,0.0,0.0,0.0,0.0,0.0,0.0,0.0,0.0,0.0,0.0,0.0,0.0,0.0,0.0,0.0,0.0,0.0,6.9798,6.9798,6.9798,6.9798,6.9798,6.9798,6.9798,6.9798,6.9368,6.897,6.8572,6.8572,6.8771,6.9169,6.9169,6.9566,7.0262,7.0262,7.0461,7.0726,7.0428,7.0461,7.0825,7.1587,7.1885,7.2018,7.3144,7.3575,7.3641,0.0,0.0,0.0,0.0,0.0,0.0,0.0,0.0,0.0,0.0,0.0,3.9094,3.859,0.0,0.0,0.0,3.8274,3.8592,3.9255,3.9148,3.9478,4.0348,4.0654,4.1222,4.2063,4.1931,4.1511,4.0836,4.2657,4.3872,4.457,4.6647,4.7898,4.8375,4.9169,4.9378,4.9181,4.8751,4.839,4.8062,4.7802,4.8065,4.8587,4.9022,4.9549,5.0035,5.0162,5.0517,5.083,5.0975,5.1263,5.1573,5.1573,5.1721,0.0,0.0,0.0,0.0,0.0,0.0,0.0,0.0,0.0,0.0,0.0,0.0,0.0,0.0,0.0,0.0,0.0,0.0,0.0,0.0,0.0,0.0,0.0,0.0,0.0,0.0,0.0,0.0,0.0,0.0,0.0,0.0,0.0,6.9798,6.9798,6.9798,6.9798,6.9798,6.9798,6.9699,6.95,6.8771,6.8142,6.7612,6.7612,6.791,6.844,6.8606,6.9003,6.9533,6.9699,6.9798,6.9798,6.9798,6.9798,6.9864,7.0593,7.0891,7.109,7.2548,7.3111,7.321,0.0,0.0,0.0,0.0,0.0,0.0,0.0,0.0,0.0,0.0,0.0,3.9288,3.9255,3.8606,3.8209,3.8209,3.8209,3.8507,3.9222,3.9255,3.962,4.0348,4.0415,0.0,4.1442,4.0812,4.0481,4.0448,4.2426,4.3845,4.4754,4.8133,5.0212,5.1012,4.9689,4.9889,5.1082,4.9453,4.9187,4.9681,4.8264,4.8165,4.889,4.9821,5.0585,5.1313,5.1795,5.202,5.198,5.1802,5.1762,5.1794,5.1794,5.1794,5.1794,0.0,0.0,0.0,0.0,0.0,0.0,0.0,0.0,0.0,0.0,0.0,0.0,0.0,0.0,0.0,0.0,0.0,0.0,0.0,0.0,0.0,0.0,0.0,0.0,0.0,0.0,0.0,0.0,0.0,0.0,0.0,0.0,6.9798,6.9798,6.9798,6.9798,6.9798,6.9798,6.9467,6.8738,6.8042,6.7678,6.7612,6.7612,6.7645,6.7711,6.8374,6.8705,6.8771,6.95,6.9798,6.9798,6.9798,6.9798,6.9864,7.0593,7.0891,7.109,7.2548,7.3111,7.321,0.0,0.0,0.0,0.0,0.0,0.0,0.0,0.0,0.0,0.0,0.0,0.0,0.0,3.8626,3.8394,3.8858,3.8891,3.899,3.9255,3.9288,3.962,4.0348,4.0382,4.0713,4.1409,4.0746,4.0382,4.0382,4.2047,4.3238,4.4059,4.7207,4.9358,5.0618,5.1015,5.1247,5.1247,5.0648,5.0317,5.0017,4.9488,4.9788,5.0449,5.0783,5.1347,0.0,0.0,0.0,0.0,5.2158,5.2086,5.2013,5.2013,5.2086,5.2158,5.2013,5.1868,5.1925,0.0,0.0,0.0,0.0,0.0,0.0,0.0,0.0,0.0,0.0,0.0,0.0,0.0,0.0,0.0,0.0,0.0,0.0,0.0,0.0,0.0,0.0,0.0,0.0,0.0,0.0,0.0,0.0,0.0,0.0,6.9798,6.9334,6.9301,6.9765,6.9334,6.897,6.8672,6.844,6.8076,6.7612,6.7612,6.7877,6.8307,6.8109,6.8506,6.9368,6.9169,6.9334,6.9798,6.9798,6.9798,6.9831,7.0096,7.0196,7.0361,7.1852,7.2382,7.2581,0.0,3.8924,3.899,3.9222,0.0,3.9288,3.9288,3.9288,3.9288,3.9288,0.0,0.0,0.0,0.0,3.8394,3.8891,3.8924,3.9023,3.9255,3.9288,3.962,4.0348,4.015,4.0448,4.1409,4.0481,4.0249,4.0713,4.1939,4.3032,4.4026,4.6742,4.8796,5.0253,5.1479,5.2142,0.0,0.0,0.0,5.1214,5.0518,5.0651,5.1313,5.181,0.0,0.0,0.0,0.0,0.0,5.2732,5.2666,5.2521,5.2521,5.25,5.2373,5.2158,5.2013,5.2039,5.2679,0.0,0.0,0.0,0.0,0.0,0.0,0.0,0.0,0.0,0.0,0.0,0.0,0.0,0.0,0.0,0.0,0.0,0.0,0.0,0.0,0.0,0.0,0.0,0.0,0.0,0.0,0.0,0.0,0.0,6.9798,6.9334,6.9268,6.9765,6.9069,6.8672,6.8672,6.844,6.8076,6.7612,6.7612,6.7877,6.8307,6.8076,6.8374,6.9069,6.9069,6.9334,6.9765,6.9533,6.9566,6.9765,6.9533,6.9566,6.9931,7.1189,7.162,7.1852,3.8096,3.8228,3.846,3.9156,3.9288,3.9288,3.9288,3.9288,3.9288,3.9288,0.0,0.0,0.0,0.0,0.0,3.8228,3.8228,3.8526,3.9222,3.9288,3.9587,4.0315,3.9686,3.9951,4.1342,4.005,4.0017,4.1409,4.217,4.3264,4.4688,4.6941,4.8763,5.0187,5.0949,5.244,5.4328,0.0,5.2804,5.3268,0.0,5.075,5.1512,0.0,0.0,0.0,5.4229,5.4527,0.0,5.3699,5.3467,5.3467,5.3434,5.2937,5.2407,5.2191,5.2152,5.2152,0.0,0.0,0.0,0.0,0.0,0.0,0.0,0.0,0.0,0.0,0.0,0.0,0.0,0.0,0.0,0.0,0.0,0.0,0.0,0.0,0.0,0.0,0.0,0.0,0.0,0.0,0.0,0.0,0.0,6.9798,6.9798,6.9798,6.9765,6.9765,6.9069,6.8705,6.8705,6.8042,6.7678,6.7678,6.7678,6.7678,6.7711,6.8374,6.8307,6.7744,6.9136,6.9765,6.9666,6.897,6.9136,6.9732,6.897,6.9136,6.9898,7.0626,7.0891,7.1123,3.8825,3.899,3.9056,3.9222,3.9288,3.9288,3.9288,3.9288,3.9288,0.0,0.0,0.0,3.9222,3.909,3.899,3.899,3.899,3.9056,3.9309,3.9288,3.9355,3.9587,3.9885,4.0249,4.0647,4.0779,4.1011,4.1409,4.217,4.2999,4.3959,4.6179,4.7703,4.8696,5.0485,5.1612,5.2175,5.234,0.0,0.0,5.297,5.297,0.0,0.0,0.0,0.0,0.0,5.4394,0.0,0.0,5.456,5.4825,0.0,5.2937,5.2473,5.2897,5.299,5.3049,5.3651,0.0,0.0,0.0,0.0,0.0,0.0,0.0,0.0,0.0,0.0,0.0,0.0,0.0,0.0,0.0,0.0,0.0,0.0,0.0,0.0,0.0,0.0,0.0,0.0,0.0,0.0,0.0,6.9798,6.9798,6.9798,6.9798,6.9533,6.9003,6.9301,6.95,6.95,6.9301,6.9202,6.9202,6.9202,6.9202,6.9169,6.8837,6.8572,6.8407,6.8837,6.8705,6.8241,6.8539,6.9136,6.9732,6.897,6.9136,6.9898,7.0626,7.0891,7.1024,3.8692,3.8825,3.8924,3.9222,3.9288,3.9288,3.9288,3.9288,3.9288,0.0,0.0,0.0,3.9222,3.9288,3.9288,3.9288,3.9288,3.9288,3.9288,3.9288,3.9421,3.9719,4.015,4.0647,4.1243,4.1375,4.1707,4.2336,4.2767,4.3363,4.4125,4.6013,4.7305,4.8067,4.9657,5.0717,5.1313,0.0,0.0,0.0,5.3268,0.0,0.0,5.4494,5.4725,0.0,0.0,0.0,5.7276,5.6249,5.5984,0.0,0.0,0.0,5.3367,5.3765,5.3824,5.3849,5.432,5.4419,5.4609,0.0,0.0,0.0,5.7011,5.8005,0.0,0.0,0.0,0.0,0.0,0.0,0.0,0.0,0.0,0.0,0.0,0.0,0.0,0.0,0.0,0.0,0.0,0.0,0.0,6.9798,6.9798,6.9798,6.9798,6.9798,6.9599,6.9169,6.9566,6.9798,6.9798,6.9798,6.9798,6.9798,6.9798,6.9798,6.9765,6.9334,6.897,6.8672,6.8672,6.8274,6.7645,6.7744,6.8208,6.8837,6.8407,6.8705,6.9434,7.0163,7.0428,7.056,0.0,3.8328,3.8526,3.9156,3.9288,3.9288,3.9288,3.9288,3.9288,0.0,3.9355,3.9388,3.9388,3.9454,3.952,3.952,3.952,3.952,3.952,3.952,3.9818,4.0448,4.0647,4.1342,4.2601,4.2137,4.2535,4.386,4.386,4.4224,4.4953,4.6278,4.7305,4.8034,4.8696,4.9756,5.1048,0.0,0.0,5.3268,5.2804,5.3864,0.0,0.0,5.6547,0.0,5.7773,5.88,5.9926,5.8502,5.7475,0.0,0.0,0.0,5.4527,5.4626,5.4626,5.4692,5.4825,5.4891,5.5222,5.6581,0.0,0.0,5.6514,5.6812,5.7011,0.0,0.0,0.0,0.0,0.0,0.0,0.0,0.0,0.0,0.0,0.0,0.0,0.0,0.0,0.0,0.0,6.9633,6.9666,6.9666,6.9666,6.9666,6.9666,6.9599,6.9633,6.9798,6.9699,6.9699,6.9798,6.9798,6.9798,6.9798,6.9798,6.9798,6.9798,6.9798,6.9401,6.8672,6.8672,6.8241,6.7446,6.6784,6.6949,6.7612,6.7612,6.8076,6.8771,6.9533,6.9798,6.9898,3.9023,3.9056,3.9123,3.9255,3.9288,3.9288,3.9288,3.9288,3.9288,3.9288,3.9785,4.015,4.015,4.068,4.1011,4.1011,4.1011,4.1011,4.1011,4.1011,4.1044,4.121,4.2369,4.3131,4.3396,4.4423,4.5086,4.5384,4.5384,4.5748,4.6477,4.6775,4.7305,4.8001,4.8166,4.8696,4.9558,0.0,0.0,5.2672,5.3699,0.0,5.6481,5.6481,5.6647,5.6978,5.7574,5.9131,6.0755,0.0,5.8668,5.7309,0.0,0.0,0.0,5.5222,0.0,5.5653,5.6846,0.0,0.0,0.0,0.0,0.0,5.7641,5.7574,5.7773,0.0,0.0,0.0,0.0,0.0,0.0,0.0,0.0,0.0,0.0,0.0,0.0,0.0,0.0,0.0,0.0,6.8572,6.8904,6.8904,6.8904,6.8904,6.8904,6.8374,6.8572,6.9765,6.9202,6.9202,6.9798,6.9798,6.9798,6.9798,6.9798,6.9798,6.9798,6.9798,6.9401,6.8672,6.8672,6.7943,6.6717,6.6585,6.6949,6.7612,6.7612,6.8076,6.8771,6.9533,6.9798,6.9798,3.9309,3.9288,3.9288,3.9288,3.9288,3.9388,3.9752,3.9818,3.9951,4.0282,4.068,4.0912,4.0912,4.121,4.1409,4.1409,4.1409,4.1409,4.1409,4.1409,4.1574,4.1939,4.3032,4.3959,4.4688,4.5417,4.598,4.6344,4.6344,4.6543,4.6908,4.7636,4.8001,4.8034,4.8763,4.9326,4.9723,0.0,5.1578,5.297,5.3665,0.0,5.721,5.6812,5.7839,5.9429,5.9429,6.0622,6.2098,6.138,6.0584,0.0,0.0,5.6987,5.6713,0.0,5.6713,5.6879,0.0,0.0,0.0,5.9264,0.0,0.0,0.0,5.7806,0.0,0.0,0.0,0.0,0.0,0.0,0.0,0.0,0.0,0.0,0.0,0.0,0.0,0.0,0.0,0.0,0.0,6.7943,6.8142,6.8142,6.8142,6.8142,6.8142,6.7811,6.7976,6.8705,6.8341,6.8506,6.9235,6.9235,6.9434,6.9798,6.9798,6.9798,6.9798,6.9798,6.9599,6.9235,6.8837,6.8274,6.7579,6.7214,6.7082,6.7082,6.7082,6.7512,6.8241,6.897,6.9467,6.9798,3.9592,3.9468,3.9415,3.9342,3.9288,3.952,4.0282,4.0382,4.0613,4.1309,4.1754,4.2032,4.2032,4.2434,4.268,4.268,4.268,4.2601,4.2465,4.2465,4.2675,4.3131,4.386,4.4887,4.6179,4.6212,4.6576,4.7305,4.7305,4.7305,4.7338,4.8564,4.8862,4.8465,4.9525,5.022,0.0,0.0,0.0,5.3434,0.0,5.5123,5.7342,5.7011,5.8833,6.155,6.1516,6.2363,6.3415,6.2676,0.0,6.2216,5.999,5.9254,0.0,0.0,0.0,0.0,0.0,0.0,0.0,0.0,0.0,5.9463,0.0,0.0,0.0,0.0,0.0,0.0,0.0,0.0,0.0,0.0,0.0,0.0,0.0,0.0,0.0,0.0,0.0,0.0,0.0,6.7413,6.7347,6.7214,6.7347,6.7413,6.7413,6.7281,6.7347,6.7612,6.7479,6.7744,6.8473,6.8606,6.9003,6.9599,6.9732,6.9798,6.9798,6.9798,6.9699,6.9533,6.8937,6.8606,6.844,6.7877,6.7181,6.6519,6.6684,6.7115,6.7711,6.844,6.9169,6.9798,4.0285,3.9986,3.9765,3.9362,3.9288,3.952,4.0282,4.0382,4.0613,4.1309,4.3093,4.4313,4.4313,4.6075,4.7264,4.7264,4.7264,0.0,4.634,0.0,4.6001,4.5479,4.6113,4.6908,4.7736,4.7736,4.81,4.8862,4.8862,4.8862,4.8862,4.9028,4.9425,4.9955,4.9458,5.032,0.0,0.0,5.2108,0.0,5.4129,5.499,0.0,5.721,5.8336,5.9595,6.2113,6.3584,6.4233,0.0,6.3601,6.3829,0.0,6.0406,0.0,0.0,0.0,0.0,0.0,0.0,0.0,0.0,6.2345,0.0,0.0,0.0,0.0,0.0,0.0,0.0,0.0,0.0,0.0,0.0,0.0,0.0,0.0,0.0,0.0,0.0,0.0,0.0,0.0,0.0,6.6386,6.5724,6.6287,6.6651,6.6651,6.6022,6.6254,6.7579,6.6982,6.7016,6.7744,6.8374,6.8738,6.8804,6.9467,6.9798,6.9798,6.9798,6.9434,6.8804,6.8738,6.8341,6.7744,6.7645,6.7181,6.6585,6.7247,6.7546,6.7711,6.844,6.9169,6.9798,4.078,4.0285,3.9969,3.9714,4.0083,4.0514,4.0901,4.1707,4.2369,4.2667,4.4169,4.523,4.523,0.0,0.0,0.0,0.0,0.0,0.0,0.0,4.7758,4.8235,4.8186,4.8495,4.9214,4.8828,4.8796,4.9094,4.8663,4.8465,4.8498,4.9359,4.969,4.9624,5.0585,0.0,5.181,0.0,0.0,0.0,0.0,0.0,0.0,5.8413,6.0435,6.2411,6.403,6.5153,6.5675,0.0,6.5559,0.0,0.0,0.0,0.0,0.0,0.0,0.0,0.0,0.0,0.0,0.0,0.0,0.0,0.0,0.0,6.039,0.0,0.0,0.0,0.0,0.0,0.0,0.0,0.0,0.0,0.0,0.0,0.0,0.0,0.0,0.0,0.0,0.0,0.0,0.0,0.0,6.4895,6.4034,6.4498,6.5094,6.5724,6.5823,6.6254,6.6982,6.7281,6.7645,6.8076,6.8804,6.9136,6.9169,6.9599,6.9401,6.8705,6.9136,6.8904,6.8241,6.8241,6.7811,6.7148,6.7016,6.6982,6.7016,6.7314,6.8175,6.9136,4.1824,4.1059,4.0514,4.0656,4.1138,4.1639,4.2043,4.3614,4.4566,4.4282,4.5682,0.0,4.7374,4.909,0.0,0.0,0.0,5.0822,0.0,0.0,4.9896,5.0657,0.0,0.0,5.0986,5.0548,5.0257,5.0223,4.9525,4.9292,4.9526,5.0156,5.0419,5.0353,5.1943,5.2516,5.2327,0.0,0.0,5.371,5.5722,5.7374,5.8768,6.0154,6.2193,6.4324,6.5007,6.5952,6.6774,6.6168,6.7034,0.0,6.6136,0.0,0.0,0.0,0.0,0.0,6.3399,0.0,0.0,0.0,0.0,0.0,0.0,0.0,0.0,0.0,0.0,0.0,0.0,0.0,6.0324,6.0986,0.0,0.0,0.0,0.0,0.0,0.0,0.0,0.0,0.0,0.0,0.0,0.0,0.0,0.0,6.2245,6.3206,6.3968,6.4365,6.4862,6.5492,6.622,6.6419,6.6684,6.7016,6.7943,6.8274,6.8109,6.8871,6.8804,6.8142,6.8871,6.8771,6.8109,6.8506,6.8142,6.7281,6.6949,6.6585,6.6254,6.6452,6.7314,6.844,4.3917,4.2787,4.1921,4.2172,4.2293,4.2672,4.3656,4.5954,4.7141,0.0,0.0,0.0,0.0,0.0,0.0,0.0,0.0,5.7457,5.5988,0.0,5.3077,0.0,0.0,0.0,0.0,5.3307,5.3245,5.3184,5.2456,5.2536,5.3247,5.186,5.1976,5.3301,5.3367,5.3766,5.4464,5.6021,5.661,5.6601,5.8254,6.0667,6.3234,0.0,6.2703,6.3531,6.4289,0.0,0.0,6.6837,6.7829,0.0,0.0,0.0,0.0,0.0,0.0,0.0,0.0,0.0,0.0,6.5013,0.0,0.0,0.0,0.0,6.2312,0.0,0.0,0.0,0.0,6.314,6.2709,6.1318,6.2278,0.0,0.0,0.0,0.0,0.0,0.0,0.0,0.0,0.0,0.0,0.0,0.0,0.0,6.2212,6.2212,6.2908,6.4332,6.4399,6.4763,6.5459,6.6154,6.6154,6.5492,6.6949,6.7281,6.6618,6.7347,6.7281,6.6618,6.738,6.7281,6.6684,6.8109,6.7844,6.6618,6.7314,6.6717,6.5525,6.6254,6.7016,6.7744,4.5667,4.5683,4.528,4.3809,0.0,4.4838,4.6169,4.7247,0.0,0.0,0.0,0.0,0.0,0.0,6.0791,0.0,0.0,5.9619,5.9114,5.7596,0.0,0.0,0.0,5.5637,0.0,5.447,5.3983,5.3376,5.2612,5.2386,5.2626,5.2648,5.2634,5.274,5.4149,5.439,0.0,0.0,0.0,0.0,0.0,6.2326,6.5021,0.0,0.0,6.5788,6.6035,6.7194,0.0,6.847,6.9141,6.992,6.9106,6.8463,6.799,6.778,6.7475,0.0,0.0,0.0,6.8983,6.6686,0.0,0.0,0.0,0.0,0.0,0.0,0.0,0.0,0.0,6.4697,6.4365,6.3372,6.3239,6.2842,0.0,0.0,0.0,0.0,0.0,0.0,0.0,0.0,0.0,0.0,0.0,0.0,0.0,6.0688,6.1682,6.2212,6.3637,6.4498,6.473,6.5425,6.5657,6.5425,6.5922,6.6287,6.6519,6.6254,6.6287,6.6552,6.7314,6.7479,6.7281,6.7777,6.7711,6.7181,6.6452,6.5856,6.5459,6.569,6.6254,6.7016,4.7373,4.7989,4.7897,0.0,0.0,0.0,0.0,0.0,0.0,0.0,5.5608,0.0,6.0545,0.0,6.4505,0.0,6.3899,6.3161,6.204,6.0783,0.0,5.8627,5.8459,0.0,0.0,5.667,5.6329,5.5437,5.465,5.4669,5.5471,5.4233,5.3891,5.4359,5.5996,5.5757,0.0,0.0,5.8908,0.0,0.0,6.3872,0.0,0.0,6.6018,6.7302,0.0,6.7552,6.8873,6.8873,6.9622,7.0478,7.0229,6.9741,6.9211,6.9353,6.8957,6.8548,6.9182,7.0082,0.0,6.8258,6.8002,0.0,6.5197,0.0,0.0,0.0,0.0,0.0,0.0,6.6665,6.6189,6.4653,6.3796,6.2577,0.0,5.9496,0.0,0.0,0.0,0.0,0.0,0.0,0.0,0.0,0.0,0.0,0.0,0.0,6.0556,6.1086,6.2974,6.41,6.4365,6.5061,6.5293,6.5028,6.5028,6.516,6.5359,6.5127,6.5425,6.6154,6.6916,6.738,6.7612,6.7612,6.7479,6.7148,6.6187,6.5657,6.5425,6.5425,6.5889,6.6585,4.9039,4.9655,4.9727,0.0,4.9061,0.0,0.0,0.0,5.5718,0.0,5.8645,6.2011,6.5179,6.7125,6.8414,6.9074,6.9296,0.0,6.4903,6.3812,0.0,0.0,6.0358,5.9943,5.8428,5.9763,0.0,5.9365,5.8508,5.9213,6.1235,5.6732,5.5761,5.77,5.8701,0.0,5.5753,6.0423,6.151,6.0344,6.3377,6.5126,6.5911,6.5875,0.0,6.7945,6.6446,6.691,6.8195,6.8195,6.9229,7.0657,7.1442,7.0657,6.9729,7.1299,7.0657,6.9836,7.1335,7.1763,7.1445,6.9844,0.0,0.0,0.0,0.0,6.8216,0.0,0.0,0.0,0.0,0.0,6.8014,6.5053,6.3802,6.2179,5.9297,5.8899,0.0,0.0,0.0,0.0,0.0,0.0,0.0,0.0,0.0,0.0,0.0,0.0,5.9529,6.102,6.2477,6.3603,6.4365,6.5061,6.5094,6.4432,6.4365,6.3968,6.3338,6.3935,6.463,6.5392,6.6187,6.6949,6.7612,6.7678,6.7247,6.6585,6.6519,6.6055,6.5425,6.5425,6.5856,6.6485,5.0669,5.1321,5.1756,0.0,5.1058,5.1112,0.0,0.0,0.0,0.0,6.4535,6.7957,7.0464,7.2263,7.306,7.2662,7.2146,0.0,0.0,0.0,0.0,6.3309,6.3868,6.3176,6.0918,6.1279,0.0,6.1846,5.9767,5.9309,6.0487,5.9124,5.761,5.6213,6.0373,0.0,5.6561,6.1195,6.2888,6.2628,6.4055,6.5768,0.0,0.0,6.7659,6.8873,6.7873,6.8516,6.9872,6.9872,7.0157,7.0657,7.1442,7.1406,7.1264,7.2227,7.2227,7.1977,7.2405,7.2941,7.3155,7.2157,7.1652,7.096,0.0,0.0,0.0,0.0,0.0,0.0,0.0,0.0,0.0,6.6339,6.3601,6.102,5.9164,0.0,0.0,0.0,0.0,0.0,0.0,0.0,0.0,0.0,0.0,0.0,0.0,0.0,0.0,6.0258,6.1682,6.3073,6.4365,6.5061,6.5326,6.5127,6.4067,6.3736,6.4067,6.314,6.3438,6.473,6.5955,6.6949,6.7678,6.8208,6.7976,6.7281,6.6751,6.6055,6.5425,6.5425,6.5525,6.569,5.2263,5.2987,0.0,5.3566,0.0,0.0,5.4001,0.0,0.0,6.2259,6.617,0.0,7.1458,7.374,7.4935,7.4464,7.403,0.0,0.0,0.0,0.0,6.6098,6.6062,6.5099,6.298,6.2582,0.0,6.3517,0.0,6.03,6.2386,5.9716,5.811,5.7588,6.1255,6.1113,0.0,6.2245,6.4102,6.4519,6.534,0.0,0.0,6.7374,6.8016,6.8766,6.8658,6.9229,7.005,7.0371,7.0728,7.1228,7.237,7.2477,7.2405,7.3512,7.3333,7.2941,7.3654,7.394,7.3904,7.344,7.3294,7.2823,7.123,7.0739,7.0445,0.0,0.0,0.0,0.0,0.0,0.0,6.6132,6.3099,6.0589,0.0,0.0,0.0,0.0,0.0,0.0,0.0,0.0,0.0,0.0,0.0,0.0,0.0,0.0,0.0,5.9496,6.155,6.304,6.3902,6.5227,6.5724,6.5392,6.3968,6.3504,6.3868,6.3372,6.3769,6.4929,6.6684,6.7877,6.8572,6.8639,6.8274,6.7512,6.6452,6.579,6.5459,6.579,6.569,6.5459,5.3711,0.0,0.0,0.0,0.0,0.0,0.0,5.8311,0.0,6.2766,0.0,6.9394,7.0987,7.3631,7.5261,0.0,0.0,7.4319,7.211,7.1965,7.0987,6.8706,6.7836,6.6605,6.4903,6.3852,0.0,0.0,0.0,6.1387,6.4744,5.9633,5.814,5.986,6.1712,0.0,0.0,6.352,6.5126,0.0,6.6624,6.6689,6.6332,6.7695,6.8266,6.8439,6.9301,6.9551,6.9586,7.0407,7.1121,7.1977,7.3512,7.3547,7.3262,7.4761,7.4225,7.3405,7.4832,7.4689,7.419,7.419,7.4689,7.4832,7.3298,7.2932,7.267,7.1837,7.1513,7.0937,0.0,0.0,0.0,6.5233,0.0,0.0,0.0,0.0,0.0,0.0,0.0,0.0,0.0,0.0,0.0,0.0,0.0,0.0,0.0,0.0,0.0,5.9065,6.1616,0.0,6.3537,0.0,6.6055,6.5392,6.3968,6.3239,6.314,6.3902,6.4597,6.5392,6.7612,6.897,6.9599,6.9069,6.8341,6.7479,6.5989,6.5425,6.5492,6.6254,6.6121,6.5657,0.0,0.0,0.0,0.0,0.0,6.0593,6.1752,6.3309,6.5446,6.8525,7.1241,0.0,7.508,7.5768,7.6094,7.6094,7.6094,0.0,0.0,0.0,0.0,7.1965,7.1132,6.9647,6.7438,6.5265,6.4577,0.0,6.2021,6.1063,6.2362,6.122,5.9757,5.8355,6.1878,0.0,6.3131,6.4867,0.0,6.532,6.6539,6.7497,6.8227,6.8898,6.9154,6.9501,7.0832,7.0835,7.0407,7.1228,7.1585,7.1977,7.3512,7.3904,7.3976,7.4939,7.501,7.4832,7.5118,7.5118,7.501,7.501,7.5118,7.4975,7.4011,7.376,7.3404,7.2013,7.1124,7.0412,6.9447,0.0,0.0,0.0,0.0,0.0,0.0,0.0,0.0,0.0,0.0,0.0,0.0,0.0,0.0,0.0,0.0,0.0,0.0,0.0,0.0,0.0,6.0887,0.0,0.0,0.0,6.5558,6.5392,6.3968,6.2941,6.2378,6.314,6.3835,6.463,6.685,6.8208,6.8904,6.9401,6.8804,6.7479,6.5989,6.5425,6.5492,6.6254,6.6452,6.6419,0.0,0.0,0.0,0.0,0.0,0.0,0.0,6.7981,0.0,6.972,7.1458,7.2943,7.374,7.5297,7.6275,7.6275,7.6275,7.613,7.5768,7.5334,7.4754,7.3993,7.3197,0.0,6.9865,6.7076,6.6243,6.7474,6.2529,6.1136,6.3088,6.0827,5.9348,5.8754,6.1861,6.41,0.0,0.0,0.0,6.6449,6.7446,6.8191,6.8822,6.9747,6.9895,6.9782,7.119,7.1442,7.1299,7.2513,7.2905,7.3119,7.4261,7.4618,7.4725,7.5082,7.5225,7.5225,7.5225,7.5225,7.5225,7.5225,7.5225,7.501,7.419,7.4011,7.3583,7.2013,7.1371,7.0871,7.0086,6.8293,0.0,0.0,0.0,0.0,0.0,0.0,0.0,0.0,0.0,0.0,0.0,0.0,0.0,0.0,0.0,0.0,0.0,0.0,0.0,0.0,0.0,0.0,0.0,0.0,0.0,6.5392,6.3968,6.3073,6.2775,6.3504,6.4233,6.4995,6.7214,6.8606,6.9235,6.8837,6.8042,6.6949,6.5856,6.5425,6.5558,6.6684,6.685,6.6618,0.0,5.7659,0.0,0.0,6.3816,0.0,0.0,7.1675,7.2545,7.0698,7.1494,7.2327,7.2509,7.479,7.6275,7.6275,7.6275,7.6275,7.6275,7.5696,7.537,7.537,7.4609,7.3414,7.1784,6.8669,6.7402,0.0,6.3092,6.1571,6.3309,6.0738,5.9673,6.0016,0.0,0.0,0.0,0.0,6.6952,6.7662,6.8598,6.9065,6.9453,7.0632,7.0709,7.0417,7.1759,7.2261,7.2476,7.3797,7.4154,7.4154,7.4975,7.5225,7.5225,7.5225,7.5225,7.5225,7.5225,7.5225,7.5225,7.5225,7.5225,7.5046,7.4404,7.4261,7.3869,7.2477,7.1942,7.1513,7.0871,6.9424,0.0,0.0,0.0,0.0,0.0,0.0,0.0,0.0,0.0,0.0,0.0,0.0,0.0,0.0,0.0,0.0,0.0,0.0,0.0,0.0,0.0,6.2312,6.2643,0.0,6.5989,0.0,6.3968,6.3272,6.3305,6.3868,6.4697,6.5757,6.7645,6.8871,6.9467,6.8175,6.7181,6.6452,6.569,6.5425,6.5591,6.6916,6.7115,6.685,0.0,0.0,0.0,0.0,0.0,0.0,0.0,7.3342,7.4826,7.4609,7.4682,7.5044,7.5768,7.6094,7.6275,7.6275,7.6275,7.6275,7.6275,7.6239,7.6167,7.6167,7.5442,7.4247,7.2617,6.9502,6.6895,0.0,0.0,6.2621,6.0122,6.2657,6.298,0.0,0.0,0.0,0.0,6.6258,6.7642,6.8066,6.9237,7.031,7.1323,7.1867,7.2125,7.2401,7.3647,7.4081,7.4154,7.4869,7.4618,7.4154,7.4975,7.5225,7.5225,7.5225,7.5225,7.5225,7.5225,7.5225,7.5225,7.5225,7.5225,7.5189,7.5118,7.5082,7.4868,7.3976,7.2691,7.1656,7.1585,7.0267,6.9166,0.0,0.0,0.0,0.0,0.0,0.0,0.0,0.0,0.0,0.0,0.0,0.0,0.0,0.0,0.0,0.0,0.0,0.0,5.7641,0.0,6.2808,6.4167,6.5061,6.5492,6.5392,6.3968,6.3272,6.3272,6.3338,6.4498,6.6485,6.7347,6.8142,6.8738,6.7943,6.7181,6.6452,6.569,6.5425,6.5525,6.632,6.7016,6.7612,0.0,0.0,0.0,0.0,0.0,0.0,0.0,7.4899,7.5804,7.5804,7.5804,7.5949,7.6239,7.6275,7.6275,7.6275,7.6275,7.6275,7.6275,7.6275,7.6275,7.6275,7.5985,7.5297,7.4175,7.1494,6.9394,0.0,0.0,0.0,0.0,0.0,0.0,0.0,0.0,6.4152,6.4643,6.6355,6.7716,6.8814,6.9777,7.0681,7.1531,7.1637,7.168,7.1961,7.3317,7.3754,7.3934,7.5155,7.5299,7.4941,7.5118,7.5262,7.537,7.5225,7.5225,7.5225,7.5225,7.5225,7.5225,7.5225,7.5225,7.5225,7.5225,7.5225,7.4975,7.419,7.3119,7.2227,7.1763,7.1156,7.0443,0.0,0.0,0.0,0.0,0.0,0.0,0.0,0.0,0.0,0.0,0.0,0.0,0.0,0.0,0.0,0.0,0.0,0.0,5.7111,0.0,6.1583,6.304,6.42,6.4796,6.4796,6.3769,6.3272,6.3272,6.3272,6.4697,6.7247,6.8407,6.8606,6.8042,6.7744,6.6916,6.5823,6.5525,6.5425,6.5558,6.6751,6.738,6.7777,6.5965,0.0,6.8767,0.0,7.2096,7.3452,7.5152,7.5949,7.6275,7.6275,7.6275,7.6275,7.6275,7.6275,7.6275,7.6275,7.6275,7.6275,7.6275,7.6275,7.6275,7.6275,7.6275,0.0,7.5152,7.3197,7.1494,7.0046,6.8561,0.0,0.0,0.0,0.0,0.0,6.378,6.4867,6.6025,6.7076,6.8307,6.9611,7.0408,7.1168,7.1893,7.2018,7.2207,7.2568,7.374,7.4176,7.432,7.5402,7.5727,7.5621,7.5406,7.5406,7.5478,7.5334,7.5297,7.5225,7.5225,7.5225,7.5225,7.5225,7.5225,7.5225,7.5225,7.5225,7.5046,7.4475,7.3904,7.3262,7.2513,7.2191,7.1585,7.0229,0.0,0.0,0.0,0.0,0.0,0.0,0.0,6.1353,5.9362,0.0,0.0,0.0,0.0,0.0,0.0,0.0,0.0,0.0,0.0,0.0,0.0,6.3637,6.4498,6.4664,6.3736,6.3372,6.3603,6.4034,6.5459,6.7678,6.8937,6.8771,6.7612,6.738,6.6552,6.5425,6.5425,6.5425,6.5591,6.7082,6.7479,6.7512,7.0351,7.1467,7.286,7.5441,7.5909,7.5995,7.6264,7.6275,7.6275,7.6275,7.6275,7.6275,7.6275,7.6275,7.6275,7.6275,7.6275,7.6275,7.6275,7.6275,7.6275,0.0,0.0,7.5913,7.5152,7.4319,7.2327,6.9176,0.0,0.0,6.3237,0.0,6.4359,6.4432,6.6025,6.6786,6.6895,6.8488,6.9611,7.0444,7.1205,7.1965,7.2762,7.3595,7.4392,7.5122,7.5783,7.5967,7.5934,7.5868,7.5901,7.5934,7.5868,7.5657,7.5478,7.5478,7.537,7.5225,7.5225,7.5225,7.5225,7.5225,7.5225,7.5225,7.5225,7.5225,7.5225,7.5189,7.5189,7.4939,7.4154,7.3333,7.2548,7.1799,0.0,0.0,0.0,0.0,0.0,0.0,6.4615,6.3439,6.0346,0.0,0.0,0.0,0.0,0.0,0.0,0.0,0.0,5.668,6.0225,0.0,6.2179,6.3637,6.473,6.5392,6.3968,6.367,6.4399,6.5823,6.6916,6.7678,6.8374,6.8307,6.7579,6.685,6.6088,6.5425,6.5425,6.5425,6.5591,6.7082,6.7181,6.6751,7.3868,7.5031,7.5954,7.5978,7.6423,7.6653,7.6373,7.6275,7.6275,7.6275,7.6275,7.6275,7.6275,7.6275,7.6275,0.0,7.6275,7.6275,0.0,7.6275,7.6275,7.6275,7.6275,7.6167,7.5913,7.5152,7.3704,7.1603,0.0,0.0,0.0,6.7547,6.7076,6.6098,6.7148,6.8235,6.9285,6.9792,7.1096,7.2762,7.2436,7.2798,7.3559,7.3812,7.4066,7.4392,7.5122,7.5345,7.5417,7.5995,7.6176,7.6208,7.6176,7.6039,7.5832,7.555,7.5406,7.5334,7.5225,7.5225,7.5225,7.5225,7.5225,7.5225,7.5225,7.5225,7.5225,7.5225,7.5225,7.4975,7.4154,7.3333,7.2548,7.1799,7.0371,0.0,0.0,0.0,0.0,0.0,6.2551,6.1645,0.0,5.9749,0.0,0.0,0.0,0.0,0.0,0.0,0.0,0.0,5.9562,0.0,6.2146,6.314,6.3968,6.4664,6.3736,6.3902,6.516,6.7115,6.7844,6.7678,6.8374,6.8009,6.685,6.6618,6.6088,6.5425,6.5425,6.5425,6.5525,6.6519,6.7049,6.7347,7.662,7.747,7.7899,7.7273,7.7533,7.7636,7.7071,7.6793,7.6636,7.6636,7.6475,7.6275,7.6275,7.6275,0.0,7.6275,7.6275,7.6275,7.6275,7.6275,7.6275,7.6275,7.6275,7.6275,7.6275,0.0,0.0,7.3631,7.269,7.135,6.9611,6.9321,6.8633,6.7728,6.8525,6.9466,7.0444,7.1024,7.211,7.345,7.3233,7.3631,7.4356,7.4356,7.4537,7.4863,7.537,7.5551,7.5623,7.613,7.6275,7.6275,7.6275,7.6208,7.6003,7.5691,7.5514,7.5334,7.5189,7.5225,7.5225,7.5225,7.5225,7.5225,7.5225,7.5225,7.5225,7.5225,7.5225,7.5046,7.4547,7.3547,7.2655,7.2191,7.0264,6.8409,6.716,0.0,0.0,0.0,0.0,0.0,0.0,6.0838,0.0,0.0,0.0,0.0,0.0,0.0,0.0,5.774,5.9496,0.0,6.2146,6.2908,6.3637,6.4332,6.3902,6.4597,6.6287,6.7678,6.8042,6.7645,6.8109,6.7612,6.6485,6.622,6.5823,6.5425,6.5425,6.5425,6.5525,6.6552,6.6883,6.6883,7.8742,7.8891,0.0,0.0,7.9004,0.0,7.82,7.7614,7.7194,7.7255,7.6765,7.6342,7.6342,7.6342,7.6342,7.6275,0.0,0.0,0.0,7.6311,7.6275,7.6275,7.6275,7.6275,7.6275,7.6275,7.5913,7.5116,7.2871,7.1386,7.0625,6.9865,6.9502,6.9539,7.0299,7.0661,7.0806,7.2219,7.2871,7.3016,7.3704,7.45,7.5189,7.5189,7.5659,7.6275,7.6275,7.6275,7.6275,7.6275,7.6275,7.6275,7.6275,7.6275,7.6244,7.5937,7.5514,7.5225,7.5189,7.5225,7.5225,7.5225,7.5225,7.5225,7.5225,7.5225,7.5225,7.5225,7.5225,7.5225,7.5225,7.3869,7.2762,7.2727,7.0086,6.7731,6.6946,0.0,0.0,0.0,0.0,0.0,0.0,6.2271,6.1707,0.0,0.0,0.0,0.0,0.0,5.721,5.7839,6.0026,6.1516,6.2245,6.2941,6.3637,6.4365,6.4531,6.569,6.7711,6.7711,6.7678,6.7612,6.7579,6.7148,6.6386,6.569,6.5425,6.5425,6.5425,6.5425,6.5591,6.6949,6.6651,6.5757,0.0,0.0,7.9507,7.9064,7.9004,7.8816,7.82,7.7614,7.7376,7.7809,7.7376,7.6983,7.6983,7.6983,7.6793,7.6342,7.6275,7.6565,7.7181,7.6637,7.6275,7.6275,7.6275,7.6275,7.6275,7.6275,7.5913,7.5116,7.4537,7.3849,7.3088,7.2871,7.2798,7.2798,7.2979,7.3414,7.3993,7.374,7.4319,7.5406,7.5008,7.5297,7.6022,7.6022,7.613,7.6275,7.6275,7.6275,7.6275,7.6275,7.6275,7.6275,7.6275,7.6208,7.6072,7.5971,7.5832,7.5657,7.5478,7.537,7.5225,7.5225,7.5225,7.5225,7.5225,7.5225,7.5225,7.5225,7.5225,7.5225,7.5225,7.3869,7.262,7.2049,6.9301,6.6767,6.5375,6.3663,6.2307,0.0,6.2164,6.2235,6.145,6.1914,6.2169,0.0,0.0,0.0,0.0,5.9643,5.9032,5.8634,6.0788,6.2278,6.3007,6.3173,6.3637,6.4399,6.6055,6.7413,6.844,6.844,6.8142,6.7612,6.7016,6.6353,6.5657,6.5492,6.5425,6.5425,6.5425,6.5425,6.5459,6.5823,6.6419,6.6982,8.0199,8.0233,7.9988,7.9562,7.9433,7.934,7.9004,7.8416,7.8146,7.8506,7.7979,7.7725,7.8153,7.7928,7.7767,7.7786,7.7202,7.7036,7.747,7.7072,7.6855,7.6855,7.6492,7.6275,7.6275,7.6275,7.6094,7.5659,7.5659,7.5442,7.5008,7.4645,7.4464,7.4464,7.4066,7.4138,7.4573,7.45,7.4971,7.5768,7.5696,7.5913,7.6275,7.6275,7.6275,7.6275,7.6275,7.6275,7.6275,7.6275,7.6275,7.6275,7.6275,7.6208,7.614,7.614,7.5971,7.5798,7.5657,7.5585,7.5442,7.5334,7.5262,7.5225,7.5225,7.5225,7.5225,7.5225,7.5225,7.5225,7.5225,7.3869,7.2441,7.1335,6.8801,6.6303,6.4341,6.302,6.2235,6.2164,6.2842,6.3306,6.327,6.3627,6.361,6.2875,0.0,0.0,6.1772,6.1298,6.0698,5.9926,6.1715,6.3173,6.4233,6.4266,6.4796,6.5856,6.6386,6.7347,6.8672,6.8341,6.7811,6.7082,6.6684,6.6088,6.5425,6.5425,6.5425,6.5425,6.5425,6.5624,6.5922,6.5922,6.6651,6.7512,8.043,8.0392,8.0275,8.0034,7.9992,7.9988,7.9941,7.9378,7.9053,7.9102,7.8611,7.8498,7.9372,7.8972,7.8885,7.957,7.8625,7.786,7.7507,7.7398,7.7326,7.7326,7.6637,7.6275,7.6275,7.6275,7.6275,7.6275,7.6275,7.6275,7.6275,7.5623,7.5297,7.5261,7.4573,7.4283,7.4319,7.5008,7.5297,7.537,7.6022,7.6275,7.6275,7.6275,7.6275,7.6275,7.6275,7.6275,7.6275,7.6275,7.6275,7.6275,7.6275,7.6275,7.6275,7.6275,7.6108,7.5868,7.5868,7.5798,7.5727,7.555,7.5334,7.5225,7.5225,7.5225,7.5225,7.5225,7.5225,7.5225,7.5225,7.3869,7.237,7.1049,6.8587,6.6089,6.4055,0.0,6.2556,6.3306,6.4234,6.5054,6.5732,6.5911,6.5411,6.4055,6.3064,6.267,0.0,6.261,6.2219,6.1966,6.3027,6.4233,6.5558,6.569,6.632,6.7446,6.6287,6.6717,6.8506,6.7777,6.7115,6.6519,6.6419,6.5989,6.5425,6.5425,6.5425,6.5425,6.5425,6.579,6.6353,6.6485,6.6982,6.7612,8.0392,8.0313,8.0195,8.0034,7.9992,7.9988,7.9941,7.9378,7.9198,7.9683,7.9198,7.9166,7.9991,7.9964,7.9836,7.9632,8.003,7.9486,7.7647,7.6855,7.6492,7.6492,7.6348,7.6275,7.6275,7.6275,7.6275,7.6275,7.6275,7.6275,7.6275,7.6167,7.6094,7.6094,7.5985,7.5913,7.5949,7.6058,7.6094,7.613,7.6239,7.6275,7.6275,7.6275,7.6275,7.6275,7.6275,7.6275,7.6275,7.6275,7.6275,7.6275,7.6275,7.6275,7.6275,7.6275,7.6275,7.6176,7.6039,7.5901,7.5727,7.555,7.5478,7.5406,7.5225,7.5225,7.5225,7.5225,7.5225,7.5225,7.5225,7.3869,7.2727,7.2477,6.8801,6.5875,6.5482,0.0,6.2556,6.3306,6.4697,6.5661,6.5804,6.641,6.6696,6.6446,6.4508,6.4212,6.6145,6.4298,6.3958,6.58,6.5367,6.5492,6.6353,6.6982,6.7082,6.6684,6.7082,6.7446,6.7777,6.7016,6.6618,6.6485,6.5856,6.5525,6.5425,6.5425,6.5425,6.5425,6.5425,6.5492,6.5657,6.6287,6.6982,6.7612,8.0431,8.0392,8.0314,8.0154,8.0113,8.0072,7.9941,7.9645,7.96,7.9854,7.9683,7.9962,8.1245,8.1031,8.0975,8.127,8.1274,8.053,7.8603,7.7939,7.7579,7.7579,7.6746,7.6275,7.6275,7.6275,7.6275,7.6275,7.6275,7.6275,7.6275,7.6275,7.6275,7.6275,7.6275,7.6275,7.6275,7.6275,7.6275,7.6275,7.6275,7.6275,7.6275,7.6275,7.6275,7.6275,7.6275,7.6275,7.6275,7.6275,7.6275,7.6275,7.6275,7.6275,7.6275,7.6275,7.6275,7.6275,7.6208,7.6039,7.5901,7.5832,7.5691,7.5585,7.5406,7.5334,7.5334,7.5189,7.5225,7.5225,7.5225,7.3869,7.2655,7.2263,6.8587,0.0,0.0,6.3841,6.3341,6.4555,6.6089,6.7552,6.8837,6.8516,6.823,6.823,6.647,6.6022,6.751,6.6041,6.6006,6.7967,6.7435,6.7347,6.7678,6.7645,6.7645,6.7678,6.685,6.6651,6.7016,6.6254,6.5922,6.5922,6.5558,6.5425,6.5425,6.5425,6.5425,6.5425,6.5425,6.5922,6.6585,6.6552,6.7479,6.8738,8.0506,8.0506,8.0468,8.0275,8.0235,8.0154,8.0026,7.9941,7.9979,8.0206,8.0206,8.0807,8.2475,8.2227,8.2197,8.2923,8.2573,8.168,8.0245,7.9533,7.8856,7.8395,7.6995,7.6275,7.6275,7.6275,7.6275,7.6275,7.6275,7.6275,7.6275,7.6275,7.6275,7.6275,7.6275,7.6275,7.6275,7.6275,7.6275,7.6275,7.6275,7.6275,7.6275,7.6275,7.6275,7.6275,7.6275,7.6275,7.6275,7.6275,7.6275,7.6275,7.6275,7.6275,7.6275,7.6275,7.6275,7.6275,7.6275,7.6208,7.6072,7.6003,7.5901,7.5798,7.555,7.5478,7.5406,7.5262,7.5225,7.5225,7.5225,7.4047,7.2834,7.2084,0.0,0.0,0.0,6.4876,6.5019,6.6446,6.7838,6.9444,7.1478,7.0585,6.98,6.9586,6.8658,6.8337,6.8908,6.7885,6.7742,6.8705,6.8506,6.844,6.844,6.791,6.7811,6.8175,6.6485,6.5889,6.6254,6.5657,6.5425,6.5425,6.5425,6.5425,6.5425,6.5425,6.5425,6.5425,6.5591,6.6353,6.7347,6.7115,6.8076,6.9467,8.0506,8.0506,8.0468,8.0392,8.0392,8.0353,8.0195,8.0072,8.0296,8.1094,8.1122,8.1641,8.3309,8.3453,8.3531,8.3787,8.3757,8.3451,8.2793,8.1244,7.9431,7.7389,7.6643,7.6275,7.6275,7.6275,7.6275,7.6275,7.6275,7.6275,7.6275,7.6275,7.6275,7.6275,7.6275,7.6275,7.6275,7.6275,7.6275,7.6275,7.6275,7.6275,7.6275,7.6275,7.6275,7.6275,7.6275,7.6275,7.6275,7.6275,7.6275,7.6275,7.6275,7.6275,7.6275,7.6275,7.6275,7.6275,7.6275,7.6275,7.6208,7.6072,7.6003,7.5865,7.555,7.5478,7.5406,7.5262,7.5225,7.5225,7.5225,7.4511,7.3654,7.2834,0.0,0.0,6.7945,6.7766,6.8052,6.8944,6.98,7.0693,7.1585,7.1585,7.1192,7.0478,7.0978,7.1371,7.1406,6.9805,6.8504,6.7787,6.7737,6.7711,6.7711,6.7645,6.7314,6.6684,6.6519,6.6121,6.5492,6.5425,6.5425,6.5425,6.5425,6.5425,6.5425,6.5425,6.5425,6.5492,6.6154,6.6519,6.6751,6.8042,6.8639,6.8871,8.0506,8.0506,8.0468,8.043,8.0392,8.0353,8.0195,8.0154,8.0421,8.1216,8.1284,8.1886,8.3557,8.3657,8.3823,8.4465,8.4541,8.399,8.2699,8.2021,8.033,7.7329,7.6983,7.67,7.6275,7.6275,7.6275,7.6275,7.6275,7.6275,7.6275,7.6275,7.6275,7.6275,7.6275,7.6275,7.6275,7.6275,7.6275,7.6275,7.6275,7.6275,7.6275,7.6275,7.6275,7.6275,7.6275,7.6275,7.6275,7.6275,7.6275,7.6275,7.6275,7.6275,7.6275,7.6275,7.6275,7.6275,7.6275,7.6275,7.6275,7.6208,7.6208,7.6108,7.5798,7.5657,7.5585,7.5297,7.5225,7.5225,7.5225,7.4547,7.4083,7.4261,0.0,7.0122,7.03,6.9907,6.9693,7.0015,7.1156,7.2227,7.3048,7.2691,7.2477,7.2655,7.2477,7.237,7.237,7.0756,6.913,6.7779,6.7188,6.7181,6.7612,6.7181,6.6817,6.6519,6.6055,6.569,6.5425,6.5889,6.5856,6.5459,6.5889,6.5823,6.5425,6.5425,6.5425,6.5492,6.622,6.6817,6.7314,6.8307,6.897,6.9401,8.0506,8.0506,8.0506,8.0469,8.043,8.0507,8.0658,8.0694,8.1035,8.2101,8.2129,8.2613,8.4019,8.4082,8.4256,8.4863,8.4901,8.4408,8.3271,8.2664,8.1016,7.7883,7.7577,7.7194,7.657,7.657,7.6475,7.6275,7.6275,7.6275,7.6275,7.6275,7.6275,7.6275,7.6275,7.6275,7.6275,7.6275,7.6275,7.6275,7.6275,7.6275,7.6275,7.6275,7.6275,7.6275,7.6275,7.6275,7.6275,7.6275,7.6275,7.6275,7.6275,7.6275,7.6275,7.6275,7.6275,7.6275,7.6275,7.6275,7.6275,7.6275,7.6275,7.6244,7.5901,7.5868,7.5727,7.5334,7.5262,7.5225,7.5225,7.4761,7.4404,7.444,7.2834,7.162,7.1692,7.1656,7.162,7.162,7.2548,7.3298,7.3619,7.3119,7.2941,7.3262,7.3226,7.3012,7.276,7.1182,6.9635,6.825,6.7107,6.6835,6.7335,6.651,6.6154,6.6154,6.5657,6.5425,6.5459,6.6187,6.6254,6.579,6.6287,6.622,6.5757,6.5525,6.5425,6.5525,6.6485,6.7181,6.7744,6.8705,6.9368,6.9798,8.0506,8.0506,8.0506,8.0506,8.0506,8.0812,8.169,8.1728,8.2222,8.39,8.3921,8.4095,8.4892,8.4954,8.4901,8.4901,8.4901,8.4901,8.4901,8.3309,8.1385,7.9128,7.8453,7.7809,7.7194,7.7194,7.692,7.6275,7.6275,7.6275,7.6275,7.6275,7.6275,7.6275,7.6275,7.6275,7.6275,7.6275,7.6275,7.6275,7.6275,7.6275,7.6275,7.6275,7.6275,7.6275,7.6275,7.6275,7.6275,7.6311,7.6311,7.6311,7.6311,7.6311,7.6275,7.6275,7.6275,7.6311,7.6275,7.6275,7.6311,7.6275,7.6275,7.6208,7.6072,7.5901,7.5727,7.555,7.5334,7.5225,7.5225,7.5225,7.4689,7.3083,7.3512,7.3476,7.1942,7.3048,7.4011,7.4011,7.4011,7.3726,7.2905,7.2798,7.2513,7.1763,7.3155,7.3612,7.2711,7.1236,6.998,6.9118,6.7584,6.6711,6.6711,6.5834,6.5425,6.5425,6.5425,6.5425,6.5459,6.6187,6.6519,6.6519,6.6519,6.6519,6.6452,6.5724,6.5425,6.5558,6.7049,6.7612,6.7811,6.9268,6.9798,6.9798,8.2149,8.1805,8.1576,8.2149,8.2225,8.234,8.2607,8.2607,8.2989,8.4097,8.4129,8.431,8.5062,8.5006,8.4954,8.4901,8.4901,8.4408,8.3233,8.1565,8.0346,7.9683,7.9053,7.8416,7.7809,7.7436,7.7071,7.692,7.6541,7.6275,7.6275,7.6275,7.6275,7.6275,7.6275,7.6275,7.6275,7.6275,7.6275,7.6275,7.6275,7.6275,7.6275,7.6275,7.6275,7.6275,7.6275,7.6275,7.6384,7.6927,7.7144,7.7144,7.7144,7.6746,7.6275,7.6275,7.671,7.7,7.6456,7.671,7.7,7.642,7.6275,7.6208,7.6072,7.5934,7.5832,7.555,7.5406,7.5334,7.5225,7.5225,7.5046,7.4582,7.4689,7.4689,7.4225,7.4547,7.4868,7.4868,7.4868,7.4761,7.4511,7.3976,7.3547,7.3333,7.3761,7.3867,7.3612,7.2066,7.088,7.0015,6.7878,6.6711,6.6711,6.5834,6.5425,6.5425,6.5922,6.6187,6.622,6.7479,6.7777,6.7314,6.7811,6.7479,6.6485,6.6287,6.6187,6.6287,6.7247,6.7943,6.8473,6.9434,6.9798,6.9798,8.192,8.1614,8.1423,8.192,8.2302,8.2607,8.2951,8.3295,8.383,8.4671,8.4706,8.4774,8.5228,8.5094,8.4961,8.4954,8.4605,8.365,8.1982,8.0921,8.0239,7.9898,7.9554,7.9053,7.8506,7.809,7.7694,7.7194,7.6856,7.6505,7.6275,7.6275,7.6275,7.6275,7.6275,7.6275,7.6275,7.6275,7.6275,7.6275,7.6275,7.6275,7.6275,7.6275,7.6275,7.6275,7.6275,7.6275,7.642,7.7217,7.7724,7.7905,7.7579,7.7181,7.671,7.6384,7.6637,7.7,7.6818,7.6891,7.7,7.6818,7.6529,7.6275,7.614,7.6072,7.5934,7.5762,7.5621,7.5478,7.5334,7.5262,7.5225,7.5225,7.5225,7.5225,7.5225,7.5225,7.5082,7.4761,7.501,7.4975,7.4297,7.4118,7.4011,7.4011,7.344,7.3226,7.3512,7.2013,7.098,7.0413,6.8379,6.7312,6.7618,6.6109,6.5425,6.5425,6.5856,6.6254,6.6552,6.7744,6.8175,6.8076,6.8506,6.8175,6.7347,6.7082,6.6949,6.7016,6.7777,6.8307,6.8771,6.9533,6.9798,6.9798,8.0697,8.0735,8.0735,8.0812,8.1576,8.2378,8.3104,8.3907,8.4671,8.5397,8.5469,8.5388,8.5388,8.5181,8.5013,8.4892,8.4044,8.2816,8.13,8.1148,8.0769,8.0049,7.9936,7.9645,7.9102,7.9053,7.8469,7.7376,7.7316,7.6983,7.6475,7.6475,7.6409,7.6409,7.6409,7.6342,7.6275,7.6275,7.6275,7.6275,7.6275,7.6275,7.6275,7.6275,7.6348,7.6384,7.6311,7.6348,7.6529,7.7253,7.8014,7.8557,7.7833,7.7543,7.7362,7.6601,7.6384,7.6529,7.7217,7.6963,7.6674,7.7326,7.7,7.6456,7.6311,7.6212,7.6112,7.6039,7.5762,7.5478,7.5478,7.5334,7.5225,7.5225,7.5225,7.5225,7.5225,7.5225,7.4939,7.4225,7.4761,7.4618,7.3155,7.3619,7.4011,7.4011,7.2691,7.2227,7.2976,7.162,7.08,7.08,6.9148,6.8577,6.9222,6.6911,6.568,6.5624,6.5624,6.5989,6.6751,6.7479,6.8175,6.8771,6.8771,6.8738,6.8639,6.7976,6.7711,6.7777,6.844,6.8738,6.8871,6.9533,6.9798,6.9798,8.234,8.2455,8.2646,8.3372,8.4136,8.4747,8.4938,8.5129,8.532,8.5473,8.5471,8.5431,8.5388,8.5346,8.5037,8.4187,8.3302,8.2564,8.2134,8.1489,8.0997,8.0845,8.0239,7.9854,7.9728,7.9246,7.8866,7.8611,7.8146,7.7809,7.7694,7.7694,7.7496,7.7045,7.7045,7.6728,7.6275,7.6275,7.6275,7.6275,7.6275,7.6275,7.6275,7.6275,7.6674,7.7144,7.6529,7.671,7.7253,7.7434,7.8014,7.8666,7.8484,7.8014,7.747,7.7289,7.7217,7.7144,7.6674,7.7362,7.8086,7.7615,7.7833,7.7833,7.6565,7.6782,7.6968,7.6148,7.5832,7.5657,7.555,7.5334,7.5225,7.5225,7.5225,7.5225,7.5225,7.5225,7.5153,7.4975,7.5118,7.5082,7.4725,7.4297,7.4011,7.4011,7.369,7.3869,7.4654,7.3761,7.3262,7.3262,7.1678,7.0558,6.9946,6.8761,6.7892,6.7148,6.7148,6.7512,6.8241,6.897,6.9401,6.9566,6.9566,6.9235,6.8672,6.8539,6.844,6.8473,6.8639,6.9036,6.9566,6.9732,6.9798,6.9798,8.1729,8.1805,8.1958,8.2416,8.3181,8.3715,8.3715,8.4059,8.4289,8.4289,8.4671,8.4899,8.4859,8.52,8.5003,8.4039,8.3502,8.2846,8.1968,8.1849,8.1426,8.0629,8.0927,8.0731,7.9898,8.0394,8.0075,7.9004,7.8714,7.8363,7.809,7.809,7.7923,7.7614,7.7316,7.7045,7.67,7.6409,7.6275,7.6275,7.6275,7.6275,7.6275,7.6275,7.6565,7.6855,7.6456,7.7072,7.8014,7.7615,7.8557,7.9716,7.8955,7.8666,7.8557,7.8195,7.8086,7.7977,7.7543,7.776,7.8014,7.7615,7.7833,7.7905,7.7072,7.7181,7.7253,7.6321,7.6039,7.5832,7.5657,7.5514,7.5262,7.5225,7.5225,7.5225,7.5225,7.5225,7.5082,7.4689,7.4975,7.5225,7.5225,7.4832,7.4582,7.4582,7.4225,7.419,7.4618,7.3869,7.344,7.344,7.225,7.1539,7.142,7.0265,6.968,6.9904,6.8369,6.8009,6.8705,6.9103,6.9268,6.9268,6.9633,6.9368,6.8705,6.9069,6.9202,6.9202,6.9202,6.9434,6.9798,6.9798,6.9798,6.9798,8.0506,8.0621,8.0735,8.0735,8.1576,8.2225,8.2225,8.2913,8.341,8.341,8.4059,8.4518,8.4518,8.4935,8.4854,8.3891,8.3815,8.3126,8.1527,8.2129,8.1858,8.0296,8.1615,8.1723,8.0125,8.1603,8.1385,7.9376,7.9376,7.9091,7.8586,7.8437,7.8346,7.82,7.7694,7.7376,7.7169,7.6846,7.6518,7.6311,7.6601,7.6637,7.6529,7.6637,7.6782,7.6891,7.6746,7.7579,7.8593,7.7941,7.9136,8.0658,7.9318,7.9354,7.9788,7.91,7.881,7.8666,7.8521,7.8195,7.7869,7.7724,7.7796,7.7905,7.7905,7.7688,7.7289,7.6637,7.6248,7.6007,7.6048,7.5728,7.5514,7.537,7.5262,7.5262,7.5262,7.5189,7.4975,7.4297,7.4796,7.5225,7.5225,7.5225,7.5225,7.5225,7.4582,7.4225,7.4225,7.3583,7.3191,7.3191,7.2575,7.2408,7.2886,7.1594,7.1421,7.2464,6.9714,6.8736,6.9151,6.8964,6.8871,6.8904,6.9533,6.9434,6.8937,6.9533,6.9798,6.9798,6.9798,6.9798,6.9798,6.9798,6.9798,6.9798,8.0506,8.1117,8.1614,8.1614,8.2913,8.3945,8.3945,8.4632,8.5167,8.5167,8.5282,8.5358,8.5358,8.4824,8.4097,8.3138,8.3061,8.2561,8.1451,8.2212,8.2205,8.117,8.2006,8.1995,8.0959,8.1906,8.1862,8.0832,8.0832,8.0749,8.0704,7.9985,7.9378,7.8866,7.8816,7.82,7.7231,7.784,7.7385,7.642,7.7833,7.7941,7.7398,7.8122,7.881,7.9318,7.8629,7.8521,7.8666,7.8557,7.9209,8.0042,7.9825,7.9825,7.9897,7.9788,7.9245,7.8557,7.7833,7.8593,7.9426,7.8702,7.9064,7.9571,7.9571,7.8484,7.747,7.7362,7.6646,7.622,7.6872,7.6336,7.5727,7.5727,7.5585,7.5478,7.5478,7.5262,7.5153,7.5046,7.5153,7.5225,7.5225,7.5225,7.5225,7.5225,7.5118,7.5046,7.5046,7.4939,7.4868,7.4868,7.4795,7.435,7.3659,7.3475,7.3032,7.2464,7.2038,7.1488,7.0861,6.9976,6.9633,6.9666,6.9765,6.9732,6.9666,6.9765,6.9798,6.9798,6.9798,6.9798,6.9798,6.9798,6.9798,6.9798,8.0506,8.1194,8.1805,8.1805,8.276,8.3563,8.3563,8.3868,8.4098,8.4098,8.4518,8.4824,8.4824,8.49,8.4824,8.4362,8.4324,8.3981,8.3101,8.3704,8.3464,8.2129,8.3215,8.3202,8.1869,8.3119,8.3385,8.2475,8.2058,8.1831,8.1793,8.0959,8.0454,8.015,7.9827,7.9388,7.8945,7.9422,7.9032,7.8179,7.8909,7.8753,7.8195,7.8557,7.8919,7.9173,7.8847,7.8992,7.9318,7.8847,7.9535,8.0404,7.9499,7.9861,8.0476,8.0042,7.9969,7.9861,7.9064,7.9354,7.9716,7.8883,7.8955,7.91,7.8666,7.8014,7.7507,7.7507,7.6787,7.6393,7.705,7.6511,7.6045,7.6337,7.5979,7.5657,7.5657,7.5478,7.537,7.5189,7.5225,7.5225,7.5225,7.5225,7.5225,7.5225,7.5225,7.5225,7.5225,7.5225,7.5225,7.5225,7.5225,7.5042,7.4598,7.4598,7.4411,7.4026,7.3482,7.2749,7.1935,7.0996,7.0373,6.997,6.9883,6.9566,6.9202,6.9633,6.9798,6.9798,6.9798,6.9798,6.9798,6.9798,6.9798,6.9798]},{"header":{"parameterUnit":"m.s-1","parameterCategory":1,"la1":30.6,"la2":28.766,"lo1":-90.7593,"lo2":-88.6598,"dy":0.0162,"dx":0.0183,"nx":116,"ny":114,"refTime":"2024-04-09T06:00:00:Z","depth":0,"parameterNumber":3,"parameterNumberName":"V-component_of_WINDS"},"data":[0.0,0.0,0.0,0.0,0.0,0.0,0.0,0.0,0.0,0.0,0.0,0.0,0.0,0.0,0.0,0.0,0.0,0.0,0.0,0.0,0.0,0.0,0.0,0.0,0.0,0.0,0.0,0.0,0.0,0.0,0.0,0.0,0.0,0.0,0.0,0.0,0.0,0.0,0.0,0.0,0.0,0.0,0.0,0.0,0.0,0.0,0.0,0.0,0.0,0.0,0.0,0.0,0.0,0.0,0.0,0.0,0.0,0.0,0.0,0.0,0.0,0.0,0.0,0.0,0.0,0.0,0.0,0.0,0.0,0.0,0.0,0.0,0.0,0.0,0.0,0.0,0.0,0.0,0.0,0.0,0.0,0.0,0.0,0.0,0.0,0.0,0.0,0.0,0.0,0.0,0.0,0.0,0.0,0.0,0.0,0.0,0.0,0.0,0.0,0.0,0.0,0.0,0.0,0.0,0.0,0.0,0.0,0.0,0.0,0.0,0.0,0.0,0.0,0.0,0.0,0.0,0.0,0.0,0.0,0.0,0.0,0.0,0.0,0.0,0.0,0.0,0.0,0.0,0.0,0.0,0.0,0.0,0.0,0.0,0.0,0.0,0.0,0.0,0.0,0.0,0.0,0.0,0.0,0.0,0.0,0.0,0.0,0.0,0.0,0.0,0.0,0.0,0.0,0.0,0.0,0.0,0.0,0.0,0.0,0.0,0.0,0.0,0.0,0.0,0.0,0.0,0.0,0.0,0.0,0.0,0.0,0.0,0.0,0.0,0.0,0.0,0.0,0.0,0.0,0.0,0.0,0.0,0.0,0.0,0.0,0.0,0.0,0.0,0.0,0.0,0.0,0.0,0.0,0.0,0.0,0.0,0.0,0.0,0.0,0.0,0.0,0.0,0.0,0.0,0.0,0.0,0.0,0.0,0.0,0.0,0.0,0.0,0.0,0.0,0.0,0.0,0.0,0.0,0.0,0.0,0.0,0.0,0.0,0.0,0.0,0.0,0.0,0.0,0.0,0.0,0.0,0.0,0.0,0.0,0.0,0.0,0.0,0.0,0.0,0.0,0.0,0.0,0.0,0.0,0.0,0.0,0.0,0.0,0.0,0.0,0.0,0.0,0.0,0.0,0.0,0.0,0.0,0.0,0.0,0.0,0.0,0.0,0.0,0.0,0.0,0.0,0.0,0.0,0.0,0.0,0.0,0.0,0.0,0.0,0.0,0.0,0.0,0.0,0.0,0.0,0.0,0.0,0.0,0.0,0.0,0.0,0.0,0.0,0.0,0.0,0.0,0.0,0.0,0.0,0.0,0.0,0.0,0.0,0.0,0.0,0.0,0.0,0.0,0.0,0.0,0.0,0.0,0.0,0.0,0.0,0.0,0.0,0.0,0.0,0.0,0.0,0.0,0.0,0.0,0.0,0.0,0.0,0.0,0.0,0.0,0.0,0.0,0.0,0.0,0.0,0.0,0.0,0.0,0.0,0.0,0.0,0.0,0.0,0.0,0.0,0.0,0.0,0.0,0.0,0.0,0.0,0.0,0.0,0.0,0.0,0.0,0.0,0.0,0.0,0.0,0.0,0.0,0.0,0.0,0.0,0.0,0.0,0.0,0.0,0.0,0.0,0.0,0.0,0.0,0.0,0.0,0.0,0.0,0.0,0.0,0.0,0.0,0.0,0.0,0.0,0.0,0.0,0.0,0.0,0.0,0.0,0.0,0.0,0.0,0.0,0.0,0.0,0.0,0.0,0.0,0.0,0.0,0.0,0.0,0.0,0.0,0.0,0.0,0.0,0.0,0.0,0.0,0.0,0.0,0.0,0.0,0.0,0.0,0.0,0.0,0.0,0.0,0.0,0.0,0.0,0.0,0.0,0.0,0.0,0.0,0.0,0.0,0.0,0.0,0.0,0.0,0.0,0.0,0.0,0.0,0.0,0.0,0.0,0.0,0.0,0.0,0.0,0.0,0.0,0.0,0.0,0.0,0.0,0.0,0.0,0.0,0.0,0.0,0.0,0.0,0.0,0.0,0.0,0.0,0.0,0.0,0.0,0.0,0.0,0.0,0.0,0.0,0.0,0.0,0.0,0.0,0.0,0.0,0.0,0.0,0.0,0.0,0.0,0.0,0.0,0.0,0.0,0.0,0.0,0.0,0.0,0.0,0.0,0.0,0.0,0.0,0.0,0.0,0.0,0.0,0.0,0.0,0.0,0.0,0.0,0.0,0.0,0.0,0.0,0.0,0.0,0.0,0.0,0.0,0.0,0.0,0.0,0.0,0.0,0.0,0.0,0.0,0.0,0.0,0.0,0.0,0.0,0.0,0.0,0.0,0.0,0.0,0.0,0.0,0.0,0.0,0.0,0.0,0.0,0.0,0.0,0.0,0.0,0.0,0.0,0.0,0.0,0.0,0.0,0.0,0.0,0.0,0.0,0.0,0.0,0.0,0.0,0.0,0.0,0.0,0.0,0.0,0.0,0.0,0.0,0.0,0.0,0.0,0.0,0.0,0.0,0.0,0.0,0.0,0.0,0.0,0.0,0.0,0.0,0.0,0.0,0.0,0.0,0.0,0.0,0.0,0.0,0.0,0.0,0.0,0.0,0.0,0.0,0.0,0.0,0.0,0.0,0.0,0.0,0.0,0.0,0.0,0.0,0.0,0.0,0.0,0.0,0.0,0.0,0.0,0.0,0.0,0.0,0.0,0.0,0.0,0.0,0.0,0.0,0.0,0.0,0.0,0.0,0.0,0.0,0.0,0.0,0.0,0.0,0.0,0.0,0.0,0.0,0.0,0.0,0.0,0.0,0.0,0.0,0.0,0.0,0.0,0.0,0.0,0.0,0.0,0.0,0.0,0.0,0.0,0.0,0.0,0.0,0.0,0.0,0.0,0.0,0.0,0.0,0.0,0.0,0.0,0.0,0.0,0.0,0.0,0.0,0.0,0.0,0.0,0.0,0.0,0.0,0.0,0.0,0.0,0.0,0.0,0.0,0.0,0.0,0.0,0.0,0.0,0.0,0.0,0.0,0.0,0.0,0.0,0.0,0.0,0.0,0.0,0.0,0.0,0.0,0.0,0.0,0.0,0.0,0.0,0.0,0.0,0.0,0.0,0.0,0.0,0.0,0.0,0.0,0.0,0.0,0.0,0.0,0.0,0.0,0.0,0.0,0.0,0.0,0.0,0.0,0.0,0.0,0.0,0.0,0.0,0.0,0.0,0.0,0.0,0.0,0.0,0.0,0.0,0.0,0.0,0.0,0.0,0.0,0.0,0.0,0.0,0.0,0.0,0.0,0.0,0.0,0.0,0.0,0.0,0.0,0.0,0.0,0.0,0.0,0.0,0.0,0.0,0.0,0.0,0.0,0.0,0.0,0.0,0.0,0.0,0.0,0.0,0.0,0.0,0.0,0.0,0.0,0.0,0.0,0.0,0.0,0.0,0.0,0.0,0.0,0.0,0.0,0.0,0.0,0.0,0.0,0.0,0.0,0.0,0.0,0.0,0.0,0.0,0.0,0.0,0.0,0.0,0.0,0.0,0.0,0.0,0.0,0.0,0.0,0.0,0.0,0.0,0.0,0.0,0.0,0.0,0.0,0.0,0.0,0.0,0.0,0.0,0.0,0.0,0.0,0.0,0.0,0.0,0.0,0.0,0.0,0.0,0.0,0.0,0.0,0.0,0.0,0.0,0.0,0.0,0.0,0.0,0.0,0.0,0.0,0.0,0.0,0.0,0.0,0.0,0.0,0.0,0.0,0.0,0.0,0.0,0.0,0.0,0.0,0.0,0.0,0.0,0.0,0.0,0.0,0.0,0.0,0.0,0.0,0.0,0.0,0.0,0.0,0.0,0.0,0.0,0.0,0.0,0.0,0.0,0.0,0.0,0.0,0.0,0.0,0.0,0.0,0.0,0.0,0.0,0.0,0.0,0.0,0.0,0.0,0.0,0.0,0.0,0.0,0.0,0.0,0.0,0.0,0.0,0.0,0.0,0.0,0.0,0.0,0.0,0.0,0.0,0.0,0.0,0.0,0.0,0.0,0.0,0.0,0.0,0.0,0.0,0.0,0.0,0.0,0.0,0.0,0.0,0.0,0.0,0.0,0.0,0.0,0.0,0.0,0.0,0.0,0.0,0.0,0.0,0.0,0.0,0.0,0.0,0.0,0.0,0.0,0.0,0.0,0.0,0.0,0.0,0.0,0.0,0.0,0.0,0.0,0.0,0.0,0.0,0.0,0.0,0.0,0.0,0.0,0.0,0.0,0.0,0.0,0.0,0.0,0.0,0.0,0.0,0.0,0.0,0.0,0.0,0.0,0.0,0.0,0.0,0.0,0.0,0.0,0.0,0.0,0.0,0.0,0.0,0.0,0.0,0.0,0.0,0.0,0.0,0.0,0.0,0.0,0.0,0.0,0.0,0.0,0.0,0.0,0.0,0.0,0.0,0.0,0.0,0.0,0.0,0.0,0.0,0.0,0.0,0.0,0.0,0.0,0.0,0.0,0.0,0.0,0.0,0.0,0.0,0.0,0.0,0.0,0.0,0.0,0.0,0.0,0.0,0.0,0.0,0.0,0.0,0.0,0.0,0.0,0.0,0.0,0.0,0.0,0.0,0.0,0.0,0.0,0.0,0.0,0.0,0.0,0.0,0.0,0.0,0.0,0.0,0.0,0.0,0.0,0.0,0.0,0.0,0.0,0.0,0.0,0.0,0.0,0.0,0.0,0.0,0.0,0.0,0.0,0.0,0.0,0.0,0.0,0.0,0.0,0.0,0.0,0.0,0.0,0.0,0.0,0.0,0.0,0.0,0.0,0.0,0.0,0.0,0.0,0.0,0.0,0.0,0.0,0.0,0.0,0.0,0.0,0.0,0.0,0.0,0.0,0.0,0.0,0.0,0.0,0.0,0.0,0.0,0.0,0.0,0.0,0.0,0.0,0.0,0.0,0.0,0.0,0.0,0.0,0.0,0.0,0.0,0.0,0.0,0.0,0.0,0.0,0.0,0.0,0.0,0.0,0.0,0.0,0.0,0.0,0.0,0.0,0.0,0.0,0.0,0.0,0.0,0.0,0.0,0.0,0.0,0.0,0.0,0.0,0.0,0.0,0.0,0.0,0.0,0.0,0.0,0.0,0.0,0.0,0.0,0.0,0.0,0.0,0.0,0.0,0.0,0.0,0.0,0.0,0.0,0.0,0.0,0.0,0.0,0.0,0.0,0.0,0.0,0.0,0.0,0.0,0.0,0.0,0.0,0.0,0.0,0.0,0.0,0.0,0.0,0.0,0.0,0.0,0.0,0.0,0.0,0.0,0.0,0.0,0.0,0.0,0.0,0.0,0.0,0.0,0.0,0.0,0.0,0.0,0.0,0.0,0.0,0.0,0.0,0.0,0.0,0.0,0.0,0.0,0.0,0.0,0.0,0.0,0.0,0.0,0.0,0.0,0.0,0.0,0.0,0.0,0.0,0.0,0.0,0.0,0.0,0.0,0.0,0.0,0.0,0.0,0.0,0.0,0.0,0.0,0.0,0.0,0.0,0.0,0.0,0.0,0.0,0.0,0.0,0.0,0.0,0.0,0.0,0.0,0.0,0.0,0.0,0.0,0.0,0.0,0.0,0.0,0.0,0.0,0.0,0.0,0.0,0.0,0.0,0.0,0.0,0.0,0.0,0.0,0.0,0.0,0.0,0.0,0.0,0.0,0.0,0.0,0.0,0.0,0.0,0.0,0.0,0.0,0.0,0.0,0.0,0.0,0.0,0.0,0.0,0.0,0.0,0.0,0.0,0.0,0.0,0.0,0.0,0.0,0.0,0.0,0.0,0.0,0.0,0.0,0.0,0.0,0.0,0.0,0.0,0.0,0.0,0.0,0.0,0.0,0.0,0.0,0.0,0.0,0.0,0.0,0.0,0.0,0.0,0.0,0.0,0.0,0.0,0.0,0.0,0.0,0.0,0.0,0.0,0.0,0.0,0.0,0.0,0.0,0.0,0.0,0.0,0.0,0.0,0.0,0.0,0.0,0.0,0.0,0.0,0.0,0.0,0.0,0.0,0.0,0.0,0.0,0.0,0.0,0.0,0.0,0.0,0.0,0.0,0.0,0.0,0.0,0.0,0.0,0.0,0.0,-3.5809,0.0,0.0,0.0,0.0,0.0,0.0,0.0,0.0,0.0,0.0,0.0,0.0,0.0,0.0,0.0,0.0,0.0,0.0,0.0,0.0,0.0,0.0,0.0,0.0,-3.0837,-3.0594,-2.9545,-2.9764,-2.9647,-2.8946,0.0,0.0,0.0,0.0,0.0,-3.0237,-2.9908,-2.9907,-3.0407,-3.0047,-3.0028,-3.0469,-3.1341,-3.1242,-3.0519,0.0,0.0,0.0,0.0,0.0,0.0,0.0,0.0,0.0,0.0,0.0,0.0,0.0,0.0,0.0,0.0,0.0,0.0,0.0,0.0,0.0,0.0,0.0,0.0,0.0,0.0,0.0,0.0,0.0,0.0,0.0,0.0,0.0,0.0,0.0,0.0,0.0,0.0,0.0,0.0,0.0,0.0,0.0,0.0,0.0,0.0,0.0,0.0,0.0,0.0,0.0,0.0,0.0,0.0,0.0,0.0,0.0,0.0,0.0,0.0,0.0,0.0,0.0,0.0,0.0,0.0,0.0,0.0,0.0,0.0,0.0,-3.6129,0.0,0.0,0.0,0.0,0.0,0.0,0.0,0.0,0.0,0.0,0.0,0.0,0.0,0.0,0.0,0.0,0.0,0.0,0.0,0.0,0.0,-3.0454,-3.0294,-3.0387,-3.0159,-2.9321,-2.9267,-2.9161,-2.9005,-2.9065,0.0,0.0,0.0,-2.9614,-2.9719,-3.0012,-3.0173,-3.0103,-3.0725,-3.1189,-3.157,-3.1694,-3.1701,-3.1396,-3.1087,0.0,0.0,0.0,0.0,0.0,0.0,0.0,0.0,0.0,0.0,0.0,0.0,0.0,0.0,0.0,0.0,0.0,0.0,0.0,0.0,0.0,0.0,0.0,0.0,0.0,0.0,0.0,0.0,0.0,0.0,0.0,0.0,0.0,0.0,0.0,0.0,0.0,0.0,0.0,0.0,0.0,0.0,0.0,0.0,0.0,0.0,0.0,0.0,0.0,0.0,0.0,0.0,0.0,0.0,0.0,0.0,0.0,0.0,0.0,0.0,0.0,0.0,0.0,0.0,-3.8449,-3.8972,-3.952,-4.0043,-4.0383,-3.8344,-3.7337,-3.7121,0.0,0.0,0.0,0.0,0.0,0.0,0.0,0.0,0.0,0.0,0.0,0.0,0.0,0.0,0.0,0.0,0.0,0.0,0.0,0.0,-3.0262,-2.9618,-3.0092,-2.9944,-2.8649,-2.8585,-2.8383,-2.7758,-2.8229,-2.8699,-2.9144,-3.0189,-3.0999,-3.1496,-3.0877,-3.0827,-3.1267,-3.1954,-3.244,-3.2852,-3.3809,-3.43,-3.4324,-3.2618,-3.2367,-3.3213,0.0,0.0,0.0,0.0,0.0,0.0,0.0,0.0,0.0,0.0,0.0,0.0,0.0,0.0,0.0,0.0,0.0,0.0,0.0,0.0,0.0,0.0,0.0,0.0,0.0,0.0,0.0,0.0,0.0,0.0,0.0,0.0,0.0,0.0,0.0,0.0,0.0,0.0,0.0,0.0,0.0,-3.1731,-3.1731,0.0,0.0,0.0,0.0,0.0,0.0,0.0,0.0,0.0,0.0,0.0,0.0,0.0,0.0,-3.8135,-3.9207,-4.0043,-4.0644,-4.2213,-4.2997,-4.3101,-4.3676,-4.399,-4.4016,-4.3206,0.0,-3.9782,-3.8789,0.0,0.0,0.0,0.0,0.0,0.0,0.0,0.0,0.0,0.0,0.0,0.0,0.0,0.0,0.0,0.0,0.0,0.0,0.0,0.0,0.0,-2.96,-2.9477,-2.876,-2.9823,-3.0268,-2.9809,-3.0877,-3.1317,-3.0738,-3.1182,-3.1368,-3.1213,-3.0903,-3.1267,-3.2542,-3.3351,-3.4105,-3.4795,-3.5259,-3.5234,-3.4857,-3.4029,-3.3668,-3.3641,-3.3206,0.0,0.0,0.0,0.0,0.0,0.0,0.0,0.0,0.0,0.0,0.0,0.0,0.0,0.0,0.0,0.0,0.0,0.0,0.0,0.0,0.0,0.0,0.0,0.0,0.0,0.0,0.0,0.0,0.0,0.0,0.0,0.0,0.0,0.0,0.0,0.0,0.0,0.0,0.0,-3.1757,-3.2202,-3.1811,-3.2725,-3.304,0.0,0.0,0.0,0.0,0.0,0.0,0.0,0.0,0.0,-3.8475,-3.9416,-4.0461,-4.1611,-4.2762,-4.365,-4.4225,-4.5297,-4.5976,-4.6316,-4.6917,-4.7179,-4.7179,-4.7231,-4.6316,-4.4539,-4.1455,-3.9965,-3.9599,0.0,0.0,0.0,0.0,0.0,-4.0139,0.0,0.0,0.0,0.0,0.0,0.0,0.0,0.0,0.0,0.0,0.0,0.0,-2.9638,-2.9605,-2.9733,-2.9925,-3.1035,-3.1729,-3.1526,-3.2352,-3.2484,-3.1602,-3.1757,-3.1551,-3.1138,-3.1474,-3.2337,-3.3958,-3.5344,-3.6552,-3.7581,-3.7412,-3.7109,-3.6709,-3.6484,-3.5632,-3.4024,-3.3841,-3.2922,-3.1797,0.0,0.0,0.0,0.0,0.0,0.0,0.0,0.0,0.0,0.0,0.0,0.0,0.0,0.0,0.0,0.0,0.0,0.0,0.0,0.0,0.0,0.0,0.0,0.0,0.0,0.0,0.0,0.0,0.0,0.0,0.0,0.0,0.0,0.0,0.0,0.0,0.0,-3.2306,-3.2908,-3.2359,-3.3587,-3.411,0.0,0.0,0.0,0.0,0.0,0.0,-3.7795,-3.8579,-3.9834,-4.169,-4.2735,-4.3885,-4.5192,-4.6212,-4.6996,-4.7597,-4.8303,-4.8878,-4.9296,-4.9923,-5.0185,-5.0211,-5.0446,-5.0002,-4.8721,-4.4408,-4.2291,-4.1664,-4.0801,-4.0566,-4.0749,-4.1141,-4.1398,-4.1603,0.0,0.0,0.0,0.0,0.0,0.0,0.0,0.0,0.0,0.0,0.0,-2.9433,-2.9771,-3.0598,-3.1546,-3.2521,-3.1724,-3.124,-3.1423,-3.0493,-3.0306,-3.0999,-3.1548,-3.1941,-3.2303,-3.3462,-3.4515,-3.5429,-3.8115,-4.03,-4.1848,-4.1096,-4.1033,-4.1396,-4.0894,-3.8594,-3.4992,-3.2529,-3.2218,-3.3235,-3.1216,0.0,0.0,0.0,0.0,0.0,0.0,0.0,0.0,0.0,0.0,0.0,0.0,0.0,0.0,0.0,0.0,0.0,0.0,0.0,0.0,0.0,0.0,0.0,0.0,0.0,0.0,0.0,0.0,0.0,0.0,0.0,0.0,0.0,0.0,0.0,0.0,0.0,0.0,-3.3561,-3.5469,0.0,0.0,0.0,0.0,-3.6018,-3.709,-3.8475,-4.0148,-4.1324,-4.2997,-4.5297,-4.595,-4.71,-4.8799,-4.9401,-4.9976,-5.0577,-5.1701,-5.225,-5.2302,-5.2903,-5.3191,-5.3138,-5.2616,-5.2014,-5.1152,-4.7649,-4.5872,-4.5192,-4.352,-4.318,-4.3676,-4.3676,-4.3702,-4.3781,0.0,0.0,0.0,0.0,0.0,0.0,-2.8895,-2.9085,-2.9231,-2.9454,-2.9628,-3.0023,-3.0844,-3.1915,-3.3059,-3.4132,-3.4717,-3.4945,-3.4768,-3.3956,-3.3431,-3.3498,-3.2642,-3.2429,-3.3027,-3.4717,-3.683,-3.927,-4.0673,-4.2158,-4.3624,-4.229,-4.1258,-4.0367,-4.0062,-3.8741,-3.6682,-3.7519,-3.5884,-3.2941,-3.2978,-3.2098,0.0,0.0,0.0,0.0,0.0,0.0,0.0,0.0,0.0,0.0,0.0,0.0,0.0,0.0,0.0,0.0,0.0,0.0,0.0,0.0,0.0,0.0,0.0,0.0,0.0,0.0,0.0,0.0,0.0,0.0,0.0,0.0,0.0,0.0,0.0,0.0,0.0,-3.6332,-3.8057,0.0,0.0,-3.8632,-3.9181,-3.9939,-4.0749,-4.2108,-4.4199,-4.5062,-4.6369,-4.8303,-4.9296,-5.0263,-5.1256,-5.2197,-5.2772,-5.3008,-5.3792,-5.4184,-5.4184,-5.4393,-5.4497,-5.4471,-5.4262,-5.3844,-5.3138,-5.157,-4.9479,-4.7179,-4.6186,-4.5689,-4.5558,-4.5558,-4.5323,-4.5036,0.0,0.0,0.0,0.0,0.0,-2.8711,-2.8869,-2.9289,-2.9489,-2.9448,-2.9807,-3.0591,-3.178,-3.3392,-3.4956,-3.6445,-3.7132,-3.7182,-3.6531,-3.5417,-3.4606,-3.4173,-3.3545,-3.3527,-3.4223,-3.6729,-3.9265,-4.1632,-4.2999,-4.3961,-4.4615,-4.3144,-4.1688,-4.0435,-4.0435,-3.9574,-3.8333,-4.0755,-3.8536,-3.3394,-3.3761,-3.3048,-3.1786,0.0,0.0,0.0,0.0,0.0,0.0,0.0,0.0,0.0,0.0,0.0,0.0,0.0,0.0,0.0,0.0,0.0,0.0,0.0,0.0,0.0,0.0,0.0,0.0,0.0,0.0,0.0,0.0,0.0,0.0,0.0,0.0,0.0,0.0,0.0,-3.8161,-3.8972,-4.0723,-4.1794,-4.1611,-4.1951,-4.2579,-4.3546,-4.433,-4.5611,-4.7519,-4.8355,-4.9479,-5.1021,-5.1988,-5.2772,-5.3373,-5.4131,-5.4497,-5.4497,-5.4916,-5.5099,-5.5099,-5.5099,-5.5099,-5.5099,-5.5099,-5.4863,-5.4471,-5.4131,-5.2485,-5.0106,-4.8956,-4.8146,-4.7623,-4.7623,-4.7283,-4.6787,0.0,0.0,0.0,0.0,0.0,-2.8786,-2.9475,-2.9516,-2.943,-2.9289,-2.9984,-3.0999,-3.2371,-3.4866,-3.7337,-3.9572,-3.8718,-3.7556,-3.6402,-3.4725,-3.3405,-3.2803,-3.4004,-3.5035,-3.6075,-3.9574,-4.1731,-4.2568,-4.5199,-4.6068,-4.521,-4.358,-4.2783,-4.2464,-4.2304,-4.1241,-3.9716,-4.1883,-3.9765,-3.4856,-3.3497,-3.3161,-3.3463,0.0,0.0,0.0,0.0,0.0,0.0,0.0,0.0,0.0,0.0,0.0,0.0,0.0,0.0,0.0,0.0,0.0,0.0,0.0,0.0,0.0,0.0,0.0,0.0,0.0,0.0,0.0,0.0,0.0,0.0,0.0,0.0,0.0,-3.6332,-3.8266,-4.02,-4.1402,-4.352,-4.467,-4.4147,-4.5114,-4.6029,-4.6604,-4.7675,-4.8826,-4.9949,-5.1073,-5.2223,-5.3426,-5.3949,-5.4497,-5.5099,-5.5125,-5.5125,-5.5125,-5.5125,-5.5125,-5.5151,-5.5125,-5.5125,-5.5125,-5.5125,-5.5099,-5.5099,-5.5099,-5.4759,-5.4001,-5.1779,-5.0524,-5.0002,-5.0002,-4.9636,-4.9165,0.0,0.0,0.0,0.0,0.0,-2.8114,-2.8755,-2.8426,-2.8232,-2.8538,-2.9934,-3.1678,-3.3563,-3.6377,-3.9069,-4.1279,-3.9722,-3.8541,-3.8358,-3.5392,-3.3656,-3.3431,-3.4817,-3.6666,-3.9196,-4.2158,-4.496,-4.7579,-4.7305,-4.7212,-4.7293,-4.5079,-4.3509,-4.2732,-4.2732,-4.221,-4.1503,-4.22,-4.1172,-3.9031,-3.6918,-3.525,-3.3922,0.0,0.0,0.0,0.0,0.0,0.0,0.0,0.0,0.0,0.0,0.0,0.0,0.0,0.0,0.0,0.0,0.0,0.0,0.0,0.0,0.0,0.0,0.0,0.0,0.0,0.0,0.0,0.0,0.0,0.0,0.0,0.0,-3.9416,-3.9259,-4.1585,-4.4068,-4.6055,-4.7571,-4.859,-4.8852,-4.9191,-4.961,-5.0159,-5.089,-5.1805,-5.2955,-5.3321,-5.3844,-5.4602,-5.4785,-5.4942,-5.5099,-5.5491,-5.5674,-5.5674,-5.5674,-5.5909,-5.6301,-5.5491,-5.5308,-5.5674,-5.5282,-5.5099,-5.5099,-5.5099,-5.4994,-5.4759,-5.3687,-5.2929,-5.2433,-5.2433,-5.1779,-5.0864,0.0,0.0,0.0,0.0,0.0,-2.816,-2.8562,-2.8274,-2.8071,-2.8271,-3.0168,-3.2204,-3.4132,-3.6849,-3.9322,-4.1271,-3.9525,-3.8057,-3.7406,-3.5135,-3.4161,-3.4933,-3.7089,-3.9651,-4.2534,-4.5296,-4.7232,-4.8367,-4.8099,-4.7332,-4.5948,-4.4884,-4.3801,-4.2911,-4.2911,-4.2766,-4.2518,-4.2331,-4.1959,-4.1399,-3.9707,-3.8018,-3.6295,-3.4518,-3.412,-3.4549,-3.3743,-3.366,-3.3769,-3.2889,0.0,0.0,0.0,0.0,0.0,0.0,0.0,0.0,0.0,0.0,0.0,0.0,0.0,0.0,0.0,0.0,0.0,0.0,0.0,0.0,0.0,0.0,0.0,0.0,-4.0723,-4.3023,-4.4225,-4.5428,-4.7022,-4.9348,-5.042,-5.123,-5.1831,-5.2093,-5.2354,-5.2668,-5.3243,-5.387,-5.455,-5.4785,-5.5072,-5.5412,-5.5438,-5.5569,-5.5804,-5.5647,-5.5674,-5.5909,-5.5909,-5.6092,-5.6405,-5.5752,-5.5621,0.0,-5.5334,-5.5099,-5.5099,-5.5099,-5.5099,0.0,0.0,0.0,0.0,0.0,-5.2955,-5.2302,0.0,0.0,0.0,-2.761,-2.8154,-2.8536,-2.851,-2.8507,-2.84,-2.8222,-3.0403,-3.2598,-3.4135,-3.6362,-3.8488,-4.0083,-3.8456,-3.6675,-3.5182,-3.459,-3.5237,-3.7222,-4.0487,-4.3411,-4.5899,-4.846,-4.8974,-4.7445,-4.8691,-4.7306,-4.3739,-4.4336,-4.4141,-4.3159,-4.3159,-4.3159,-4.3118,-4.2683,-4.2456,-4.2373,-4.1897,-4.0882,-3.9288,-3.7252,-3.6939,-3.745,-3.6042,-3.5176,-3.4477,-3.3674,0.0,0.0,0.0,0.0,0.0,0.0,0.0,0.0,0.0,0.0,0.0,0.0,0.0,0.0,0.0,0.0,0.0,0.0,0.0,0.0,0.0,0.0,0.0,0.0,-4.4121,-4.6996,-4.9793,-4.9479,-4.9688,-5.1648,-5.2433,-5.3008,-5.353,-5.4079,-5.4367,-5.4314,-5.4916,-5.5229,-5.5125,0.0,0.0,0.0,0.0,-5.6223,-5.6693,-5.583,-5.5621,-5.6092,-5.6092,-5.6144,-5.6196,-5.6066,-5.6013,-5.5987,-5.5517,-5.5229,-5.5099,-5.5177,-5.5151,-5.5099,-5.5099,-5.4785,-5.4236,-5.3766,-5.3556,-5.3478,0.0,0.0,0.0,-2.761,-2.8144,-2.84,-2.7882,-2.8204,-2.8291,-2.7577,-2.987,-3.186,-3.2444,-3.4882,-3.7202,-3.8881,-3.7475,-3.6529,-3.6621,-3.6361,-3.7724,-4.122,-4.3929,-4.6426,-4.8761,-5.0218,-5.1405,-5.2346,-5.1778,-5.0413,-4.8471,-4.7707,-4.6315,-4.4588,-4.4588,-4.4588,-4.4567,-4.4091,-4.3698,-4.3304,-4.2849,-4.1628,-3.9909,-3.8437,-3.7645,-3.727,-3.5932,-3.5844,-3.6156,-3.4848,-3.4778,-3.5024,-3.3457,-3.3151,0.0,0.0,0.0,0.0,0.0,0.0,0.0,0.0,0.0,0.0,0.0,0.0,0.0,0.0,0.0,0.0,0.0,0.0,0.0,-4.3702,-4.6525,-4.9244,-5.1648,-5.3008,-5.3739,-5.3687,-5.4236,-5.4654,-5.4759,-5.5255,-5.5386,-5.4968,-5.5883,-5.6066,-5.5151,-5.6066,0.0,-5.5282,-5.6144,-5.6458,-5.6092,-5.6798,-5.7216,-5.732,0.0,0.0,-5.7974,-5.7059,-5.6641,-5.6641,-5.6536,-5.5961,-5.5125,-5.5569,-5.5491,-5.5099,-5.5099,-5.502,-5.4916,-5.4811,-5.4471,-5.4053,0.0,0.0,0.0,-2.8038,-2.8343,-2.8612,-2.854,-2.8479,-2.8384,-2.7934,-2.9464,-3.0829,-3.1448,-3.3065,-3.452,-3.5605,-3.4822,-3.4838,-3.6069,-3.7311,-3.9778,-4.3753,-4.6476,-4.8987,-5.1222,-5.2352,-5.2889,-5.2927,-5.1844,-5.033,-4.8575,-4.7415,-4.6311,-4.5333,-4.5084,-4.5126,-4.5312,-4.4836,-4.4381,-4.3946,-4.3698,-4.2932,-4.1793,-4.0655,-3.993,-3.9392,-3.8233,-3.7695,-3.7348,-3.5971,-3.541,-3.5115,-3.3768,-3.3202,-3.3188,0.0,0.0,0.0,0.0,0.0,0.0,0.0,0.0,0.0,0.0,0.0,0.0,0.0,0.0,-3.986,-4.0723,0.0,-4.5088,-4.7388,-4.9714,-5.1936,-5.3922,-5.5229,-5.5726,-5.5125,-5.5595,-5.5961,-5.5961,-5.6196,-5.6249,-5.5987,-5.6484,-5.6562,-5.5987,-5.6771,-5.6981,-5.6405,-5.6928,-5.7373,-5.7634,-5.7373,-5.766,-5.8497,-5.7921,-5.7948,-5.8497,-5.7634,-5.7085,-5.6798,-5.6798,-5.617,-5.5125,-5.5386,-5.5334,-5.5099,-5.5099,-5.5099,-5.5099,-5.5099,-5.4916,-5.4654,0.0,0.0,0.0,-2.8435,-2.8513,-2.8624,-2.9203,-2.8781,-2.8346,-2.8352,-2.9153,-2.9995,-3.0451,-3.1319,-3.2042,-3.2515,-3.2486,-3.356,-3.612,-3.8561,-4.1897,-4.625,-4.8987,-5.1297,-5.3206,-5.3803,-5.3706,-5.2744,-5.153,-5.0072,-4.8102,-4.7162,-4.6426,-4.5788,-4.5416,-4.5457,-4.5788,-4.5333,-4.4919,-4.4546,-4.4381,-4.407,-4.3635,-4.2725,-4.2145,-4.169,-4.0717,-3.9413,-3.8005,-3.6784,-3.5769,-3.4879,-3.4031,-3.3534,-3.3205,-3.316,-3.2729,0.0,0.0,0.0,0.0,0.0,0.0,0.0,0.0,0.0,-3.8893,-4.0043,-4.1638,-4.318,-4.433,-4.6447,-4.8721,-5.0943,-5.2668,-5.4288,-5.5857,-5.6588,-5.6745,-5.6144,-5.6405,-5.6693,-5.6798,-5.6798,-5.6798,-5.6798,-5.7007,-5.7033,-5.6824,-5.7451,-5.7765,-5.766,-5.7869,-5.8444,-5.9359,-5.8104,-5.8157,-5.9516,-5.8497,-5.8235,-5.8653,-5.8078,-5.7451,-5.6798,-5.6693,-5.6118,-5.5255,-5.5255,-5.5203,-5.5099,-5.5099,-5.5099,-5.5099,-5.5099,-5.5099,-5.5099,0.0,0.0,0.0,0.0,0.0,-2.7965,-2.8528,-2.8112,-2.7759,-2.7644,-2.9039,-2.9699,-2.8778,-3.0163,-3.1315,-3.1888,-3.2481,-3.4853,-3.952,-4.1575,-4.4719,-4.964,-5.2026,-5.3607,-5.4361,-5.3152,-5.3301,-5.5002,-5.3375,-5.1953,-5.0825,-5.0716,-4.9047,-4.6264,-4.6223,-4.6223,-4.6244,-4.5788,-4.5581,-4.5457,-4.4629,-4.4277,-4.4132,-4.3201,-4.2807,-4.26,-4.1276,-3.9682,-3.8088,-3.7529,-3.6722,-3.5873,-3.5355,-3.5169,-3.5081,-3.5391,-3.4868,-3.4547,-3.6137,-3.5982,-3.5328,-3.4521,-3.5429,-3.6723,0.0,0.0,-4.1272,-4.2396,-4.4042,-4.5584,-4.6734,-4.8852,-5.0995,-5.2798,-5.4131,-5.5334,-5.6536,-5.719,-5.7346,-5.6771,-5.6301,-5.6223,-5.6745,-5.6798,-5.6798,-5.6798,-5.7739,-5.7869,-5.685,-5.7843,-5.8183,-5.7686,-5.8653,-5.9228,-5.9359,-5.9673,-5.9934,-6.0117,-5.949,-5.9202,-5.9255,-5.8679,-5.7817,-5.6771,-5.6249,-5.5935,-5.583,-5.583,-5.5543,-5.5099,-5.5099,-5.5099,-5.5099,-5.5099,-5.5099,-5.5099,0.0,0.0,0.0,0.0,0.0,-2.7511,-2.8455,-2.8079,-2.7696,-2.7621,-2.8211,-2.8569,-2.8386,-2.9039,-2.9719,-3.0294,-3.1242,-3.4366,-4.0233,-4.2602,-4.618,-5.1412,-5.3457,-5.4744,-5.5039,-5.4737,-5.4402,-5.4476,-5.2815,-5.124,-4.9741,-4.882,-4.7571,-4.6347,-4.6347,-4.6347,-4.6326,-4.614,-4.5912,-4.5623,-4.496,-4.4546,-4.4174,-4.2994,-4.2042,-4.1214,-4.0096,-3.904,0.0,-3.6411,-3.5645,-3.5252,-3.4776,-3.4631,-3.4664,-3.4346,-3.3871,-3.3334,-3.3465,-3.4162,0.0,0.0,-3.4606,-3.6633,-3.9133,-4.1262,-4.3441,-4.5736,-4.7534,-4.9087,-5.0577,-5.2197,-5.387,0.0,-5.6275,-5.6876,-5.7686,-5.7712,-5.732,-5.6405,-5.6066,-5.6275,-5.7216,-5.7294,-5.7451,-5.7791,-5.8235,-5.8314,-5.7817,-5.8261,-5.8549,-5.8653,-5.9124,-5.9699,-6.0378,-6.0274,-6.0405,-6.0744,-5.9803,-5.9359,-5.9333,-5.8784,-5.8078,-5.7242,-5.6301,-5.5909,-5.5883,-5.5569,-5.5308,-5.5099,-5.5099,-5.5099,-5.5099,-5.5099,-5.5099,-5.5099,0.0,0.0,0.0,0.0,0.0,-2.6835,-2.8398,-2.7825,-2.7292,-2.7615,-2.7723,-2.7915,-2.8333,-2.8386,-2.8569,-2.8987,-3.0235,-3.3425,-3.9246,-4.246,-4.64,-5.1702,-5.3822,-5.5173,-5.5591,-5.5555,-5.5115,-5.4348,-5.2365,-5.0675,-4.945,-4.773,-4.6811,-4.6347,-4.6347,-4.6347,-4.6347,-4.6347,-4.6099,-4.5643,-4.5043,-4.4443,-4.3739,-4.1979,-4.0634,-3.9558,-3.875,-3.8041,-3.7107,-3.5307,-3.4756,-3.4867,-3.4783,-3.4762,-3.471,-3.4474,-3.3942,-3.3117,-3.1932,0.0,0.0,-3.309,-3.4581,-3.7044,-4.0076,-4.2492,-4.4767,-4.738,-4.9114,-5.087,-5.2672,-5.3993,0.0,-5.719,-5.7556,-5.7817,-5.8209,-5.7791,-5.6876,-5.5386,-5.5229,-5.5543,-5.6405,-5.6902,-5.7477,-5.8235,-5.8418,-5.8523,-5.8523,-5.881,-5.9098,-5.9359,-5.9673,-6.0274,-6.111,-6.0849,-6.0927,-6.1346,-6.0169,-5.9699,-5.983,-5.8915,-5.8209,-5.7608,-5.6588,-5.6066,-5.5883,-5.5674,-5.5465,-5.5334,-5.5334,-5.5334,-5.5308,-5.5151,-5.5099,-5.5099,0.0,0.0,0.0,0.0,0.0,-2.5846,-2.8176,-2.7012,-2.6242,-2.7366,-2.7994,-2.836,-2.8386,-2.8386,-2.8386,-2.8412,-2.9762,-3.2326,-3.6406,-4.0796,-4.537,-4.9874,-5.2966,-5.5064,-5.6168,-5.4646,-5.4522,-5.6047,-5.2821,-5.1293,-5.1139,-4.945,-4.789,-4.6347,-4.6347,-4.6347,-4.6347,-4.6347,-4.6099,-4.5602,-4.4691,-4.378,-4.2663,-3.9972,-3.8667,-3.8191,-3.7957,-3.6886,-3.5321,-3.4474,-3.4588,-3.5224,-3.6178,-3.6467,-3.6585,-3.7414,-3.6697,-3.5201,0.0,0.0,-3.4749,-3.5223,-3.6737,-3.8693,-4.0757,-4.2997,-4.5102,-4.6295,-4.7742,-4.947,-5.1605,-5.3017,-5.4391,-5.6444,-5.7294,-5.766,-5.7686,-5.719,-5.5987,-5.3739,-5.3478,-5.3478,0.0,-5.4994,-5.6432,-5.7608,-5.8209,-5.8523,-5.8523,-5.9568,-5.9908,-5.9385,-6.0483,-6.1084,-6.111,-6.1659,-6.1921,-6.1921,-6.0744,-6.0509,-6.1006,-5.9307,-5.8209,-5.7634,-5.7033,-5.6458,-5.5961,-5.651,-5.6405,-5.5883,-5.5883,-5.5883,-5.583,-5.5308,-5.5099,-5.5099,0.0,0.0,0.0,0.0,0.0,0.0,-2.7018,-2.6769,-2.6365,-2.6347,-2.7549,0.0,0.0,0.0,0.0,0.0,-2.9061,-3.1397,-3.5947,-3.9349,-4.3033,-4.7077,-5.0971,-5.2894,-5.2624,-5.3711,-5.4055,-5.3449,-5.1334,-4.9859,-4.9096,-4.744,-4.6371,-4.5912,-4.6223,-4.6182,-4.5912,-4.5912,-4.583,-4.5519,-4.3677,-4.3118,-4.2973,-3.933,-3.7968,-3.7928,0.0,-3.5078,-3.3861,-3.3927,-3.3907,-3.3816,-3.4151,-3.4464,-3.4645,-3.4626,-3.5084,-3.55,0.0,0.0,-3.7166,-3.7607,-3.8653,-4.0273,-4.2922,-4.4486,-4.6007,-4.7655,-4.7809,-4.805,-4.9145,-5.034,-5.1747,-5.358,-5.5761,-5.7216,-5.7608,-5.7163,-5.5804,-5.3112,-5.3478,0.0,0.0,0.0,0.0,-5.7503,-5.8183,-5.8679,-5.9072,-5.9803,-6.0326,-6.0535,-6.0901,-6.1293,-6.1685,-6.1868,-6.179,-6.1398,-6.0222,-5.9568,-5.9359,-5.8784,-5.8209,-5.766,-5.7451,-5.7033,-5.651,-5.6719,-5.6693,-5.651,-5.651,-5.651,-5.6484,-5.6301,-5.5987,-5.5595,0.0,0.0,0.0,0.0,0.0,0.0,0.0,0.0,0.0,0.0,0.0,0.0,0.0,0.0,0.0,0.0,0.0,-3.0303,-3.4031,-3.6897,-3.9943,-4.3325,-4.6898,-4.8753,-4.8556,-5.0381,-5.0705,-4.9719,-4.861,-4.7413,-4.5989,-4.4956,-4.4259,-4.3987,-4.4608,-4.4815,-4.4691,-4.4526,-4.436,-4.4008,-4.227,-4.1615,-4.1587,-3.8402,-3.7298,0.0,-3.5864,-3.4577,-3.3546,-3.4093,-3.3983,-3.3683,-3.3866,-3.4154,-3.4343,-3.3812,-3.4781,-3.6045,0.0,-3.7106,-3.8872,-3.9667,-4.0386,-4.1543,-4.3739,-4.4672,-4.5412,-4.6212,-4.5987,-4.5569,-4.6006,-4.7272,-4.8704,-5.0281,-5.2705,-5.4609,-5.5564,-5.5228,-5.4252,-5.2746,-5.3138,0.0,0.0,0.0,0.0,-5.6615,-5.766,-5.847,-5.9019,-6.0013,-6.0614,-6.0797,-6.1215,-6.1502,-6.1659,-6.1868,-6.1685,-6.111,-6.0561,-5.9882,-5.9124,-5.9124,-5.881,-5.8235,-5.7843,-5.7451,-5.7111,-5.7111,-5.7111,-5.7111,-5.7111,-5.7111,-5.7059,-5.6641,-5.6249,-5.5857,0.0,0.0,0.0,0.0,0.0,0.0,0.0,0.0,0.0,0.0,0.0,0.0,0.0,0.0,0.0,0.0,0.0,0.0,-3.079,-3.37,-3.6393,-3.8659,-4.1182,-4.3092,-4.4214,-4.4826,-4.5132,-4.5132,-4.4865,-4.3867,-4.2362,-4.2016,-4.1476,-4.1022,-4.1918,-4.2396,-4.2749,-4.2334,-4.1897,-4.1438,-4.0425,-3.9621,-3.8795,-3.7175,-3.6507,-3.6132,-3.6064,-3.5283,-3.4531,-3.4775,0.0,0.0,0.0,-3.5503,-3.5432,-3.5001,-3.5757,-3.6633,-3.6666,-3.8096,-3.9972,-4.1338,-4.2,-4.2559,-4.3408,-4.3877,-4.376,-4.2375,-4.2209,-4.2326,0.0,0.0,-4.5363,-4.6706,-4.8521,-5.0373,-5.1984,-5.1942,-5.1966,0.0,0.0,0.0,0.0,0.0,0.0,-5.5099,0.0,-5.7974,-5.8575,-6.0222,-6.0901,-6.0326,-6.1398,-6.1711,-6.1163,-6.1685,-6.1685,-6.1136,-6.1659,-6.1319,-6.0222,-6.0195,-5.9882,-5.9307,-5.8183,-5.7712,-5.7712,-5.7712,-5.7712,-5.7712,-5.7712,-5.7712,-5.7556,-5.6458,-5.6013,-5.5961,0.0,0.0,0.0,0.0,0.0,0.0,0.0,0.0,0.0,0.0,0.0,0.0,0.0,0.0,0.0,0.0,0.0,0.0,-2.9666,-3.1654,-3.3606,-3.5479,-3.842,-4.0104,-4.0413,-4.1974,-4.2786,-4.2786,-4.1594,-4.1413,-4.2209,-4.0892,-4.068,-4.1254,-4.1901,-4.1662,-4.0669,-4.1286,-4.1175,-4.0258,-3.9421,-3.9545,-4.0053,-3.7229,-3.7263,-3.8599,-3.7493,-3.7023,0.0,0.0,0.0,0.0,0.0,-3.3883,-3.3769,-3.4782,-3.5806,-3.7044,-3.9208,-4.0485,-4.1379,-4.2745,-4.318,-4.3325,-4.3553,-4.3248,-4.2458,-4.1399,-4.0014,-3.868,0.0,0.0,0.0,-4.4984,-4.8874,0.0,-5.303,-5.4807,0.0,0.0,0.0,-5.3452,-5.3713,-5.3561,0.0,0.0,-5.7556,-5.8732,-5.9725,-6.1032,-6.1685,-6.1529,-6.1816,-6.1894,-6.1764,-6.1894,-6.1685,-6.111,-6.1267,-6.0953,-6.0195,-5.9777,-5.949,-5.9333,-5.8601,-5.8314,-5.8314,-5.8314,-5.8314,-5.8314,-5.8314,-5.8314,-5.8261,-5.7948,-5.732,-5.6588,0.0,0.0,0.0,0.0,0.0,0.0,0.0,0.0,0.0,0.0,0.0,0.0,0.0,0.0,0.0,0.0,0.0,0.0,0.0,-3.0189,-3.1496,-3.3195,-3.4959,-3.6015,-3.6274,-3.7619,-3.8402,-3.8633,-3.7864,-3.7861,-3.8575,-3.8285,-3.8241,-3.8597,-3.9794,-3.9939,-3.9386,-3.9762,-3.9528,0.0,0.0,-3.8594,-3.9118,-3.7448,-3.7817,-3.9146,-3.8307,0.0,0.0,0.0,0.0,-3.4311,-3.4493,-3.4812,-3.5297,-3.6645,0.0,-3.8937,-4.0882,-4.2104,-4.2952,-4.3718,-4.3905,-4.3656,-4.2642,-4.2021,-4.1253,-3.9322,-3.8055,0.0,0.0,0.0,0.0,0.0,0.0,0.0,-5.064,-5.2563,-5.3651,0.0,-5.3793,0.0,-5.3858,-5.4361,-5.4938,0.0,-5.681,-5.8249,-6.0143,-6.0464,-6.0909,-6.1973,-6.1973,-6.1973,-6.1973,-6.1973,-6.1816,-6.1476,-6.1476,-6.1319,-6.098,-6.0405,-6.0143,-6.0091,0.0,-5.9019,-5.9228,-5.8732,-5.8653,-5.8862,-5.8601,-5.8523,-5.847,-5.8235,-5.7739,-5.7137,0.0,0.0,0.0,0.0,0.0,0.0,0.0,0.0,0.0,0.0,-2.7968,-2.8307,0.0,0.0,0.0,0.0,0.0,0.0,0.0,0.0,0.0,-3.1653,-3.181,-3.2071,-3.2568,-3.3091,-3.3561,-3.3953,-3.4199,-3.4229,-3.3891,-3.5149,-3.5501,-3.5145,-3.7096,-3.809,-3.8377,-3.8154,-3.7919,-3.7684,-3.7433,-3.7418,-3.7417,0.0,-3.8344,-3.8945,0.0,0.0,0.0,0.0,-3.6004,-3.5654,-3.5798,-3.675,-3.8256,-3.9239,-4.0313,-4.1276,-4.2269,-4.3449,-4.4381,-4.4319,-4.4215,-4.3553,-4.1379,-4.0696,-3.9799,-3.7022,0.0,0.0,-3.4572,0.0,-3.7479,-3.8772,0.0,-4.387,-4.7505,-4.8891,-5.0429,-5.2506,-5.44,-5.499,-5.3768,-5.4842,-5.5211,-5.4511,-5.5208,-5.6872,-5.9809,-5.9008,-5.9236,-6.1318,-6.1318,-6.137,-6.1448,-6.137,-6.137,-6.1448,-6.137,-6.1318,-6.1318,-6.0898,-6.0814,-6.0736,0.0,0.0,-6.0143,-5.9072,-5.8915,-5.9307,-5.8732,-5.8523,-5.8444,-5.7948,-5.7739,-5.7582,0.0,0.0,0.0,0.0,0.0,0.0,0.0,0.0,0.0,0.0,-2.7602,-2.7863,0.0,0.0,0.0,0.0,0.0,0.0,0.0,0.0,0.0,0.0,-3.1575,-3.1888,-3.1993,0.0,0.0,0.0,0.0,-3.2098,-3.2976,-3.4108,-3.5156,-3.5916,-3.7271,-3.743,-3.68,-3.7622,-3.7102,-3.5982,-3.7271,-3.779,-3.779,-3.7886,0.0,0.0,0.0,0.0,0.0,0.0,-3.4859,-3.5218,-3.629,-3.7577,-3.8854,-4.0298,-4.1234,-4.229,-4.3594,-4.4401,-4.4774,-4.4401,-4.3718,-4.2766,-4.1214,-3.9723,0.0,0.0,0.0,-3.4804,-3.4769,0.0,0.0,-4.1797,0.0,0.0,0.0,0.0,-5.2774,0.0,0.0,0.0,0.0,0.0,0.0,0.0,0.0,0.0,-5.8732,-5.7876,-5.7437,-5.7824,-5.7849,-5.7887,-5.835,-5.7911,-5.7911,-5.835,-5.7887,-5.7849,-5.7824,-5.8677,-5.906,-5.9009,0.0,0.0,-6.0169,-5.949,-5.9281,-5.9307,-5.8732,-5.8523,-5.8497,-5.8392,-5.8078,-5.766,0.0,0.0,0.0,0.0,0.0,0.0,0.0,-2.6661,-2.6974,-2.7863,-2.7968,-2.7968,-2.7941,-2.8464,-2.8804,0.0,0.0,0.0,0.0,0.0,0.0,0.0,0.0,0.0,0.0,0.0,0.0,0.0,0.0,0.0,0.0,0.0,0.0,0.0,0.0,0.0,-3.7201,-3.769,-3.7442,-3.6816,-3.7586,-3.79,-3.79,0.0,0.0,0.0,0.0,0.0,0.0,0.0,-3.4987,-3.5727,-3.757,-3.9495,-4.1151,-4.2042,-4.2787,-4.3511,-4.4422,-4.5002,-4.525,-4.4774,-4.378,-4.2311,-4.0013,0.0,0.0,0.0,0.0,-3.4001,-3.4339,0.0,0.0,0.0,0.0,0.0,0.0,0.0,0.0,0.0,0.0,0.0,0.0,0.0,0.0,0.0,0.0,0.0,-5.7589,-5.7497,-5.7165,-5.69,-5.7405,-5.7694,-5.7533,-5.7694,-5.7814,-5.7917,-5.755,-5.7309,-5.7285,-5.8483,-5.9006,-5.9134,-6.016,0.0,-5.9763,-5.861,-5.8481,-5.8917,-5.7764,-5.7939,-5.8915,-5.8627,-5.834,-5.8104,0.0,0.0,0.0,0.0,0.0,0.0,-2.6765,-2.6948,-2.7366,-2.8255,-2.849,-2.836,-2.7785,-2.8229,-2.8569,0.0,0.0,0.0,0.0,0.0,0.0,0.0,0.0,0.0,0.0,0.0,0.0,0.0,0.0,0.0,0.0,0.0,0.0,0.0,0.0,0.0,0.0,-3.79,-3.7821,0.0,0.0,0.0,0.0,0.0,0.0,0.0,0.0,0.0,0.0,0.0,-3.5259,-3.6329,-3.8333,-4.0713,-4.2683,-4.2952,-4.3698,-4.4505,-4.4774,-4.525,-4.5561,-4.4981,-4.3573,-4.1607,-3.8812,-3.6887,0.0,0.0,0.0,-3.3338,-3.4103,0.0,0.0,0.0,0.0,0.0,0.0,0.0,0.0,0.0,0.0,0.0,0.0,0.0,0.0,0.0,0.0,0.0,-5.5621,-5.6482,-5.6529,-5.5782,-5.656,-5.689,-5.6725,-5.6984,-5.7196,-5.7125,-5.6795,-5.6489,-5.6371,-5.7704,-5.8295,-5.8426,-5.9592,0.0,0.0,-5.7398,-5.7324,-5.7946,-5.6278,-5.7086,-5.903,-5.8459,-5.8473,-5.8889,0.0,0.0,0.0,0.0,0.0,0.0,-2.7366,-2.7889,-2.8255,-2.836,-2.8856,-2.8961,-2.836,-2.883,-2.9196,0.0,0.0,0.0,0.0,0.0,0.0,0.0,0.0,0.0,0.0,0.0,0.0,0.0,0.0,0.0,0.0,0.0,0.0,0.0,0.0,0.0,0.0,0.0,0.0,0.0,0.0,0.0,0.0,0.0,0.0,0.0,0.0,0.0,0.0,0.0,0.0,-3.6239,-3.6958,-3.926,-4.1607,-4.1234,0.0,0.0,-4.4463,-4.5022,-4.5478,-4.4588,-4.2393,-4.0034,-3.8523,0.0,0.0,0.0,-3.2955,-3.3194,-3.4511,0.0,0.0,0.0,-3.9253,-4.0956,0.0,0.0,0.0,0.0,0.0,0.0,0.0,0.0,0.0,0.0,0.0,0.0,0.0,-5.3738,-5.3902,-5.2292,-5.2358,-5.2799,-5.3638,-5.3241,-5.3263,-5.3704,-5.3196,-5.2755,-5.2336,-5.4043,-5.4812,-5.4789,-5.651,0.0,0.0,-5.6336,-5.6119,-5.6119,-5.5009,-5.5975,-5.7774,-5.7369,-5.8404,-6.0065,0.0,0.0,0.0,0.0,0.0,0.0,-2.7445,-2.802,-2.8516,-2.8882,-2.9431,-2.9693,-2.9457,-2.9353,-2.9274,-2.9274,-2.8412,0.0,0.0,0.0,0.0,0.0,0.0,0.0,0.0,0.0,0.0,0.0,0.0,0.0,0.0,0.0,0.0,0.0,0.0,0.0,0.0,0.0,0.0,0.0,0.0,0.0,0.0,0.0,0.0,0.0,0.0,0.0,0.0,0.0,0.0,0.0,-3.438,-3.6347,0.0,0.0,-4.2001,-4.3201,-4.4401,-4.4981,-4.5188,-4.4815,-4.2228,-3.9516,-3.844,0.0,-3.3589,-3.3329,-3.2955,-3.3017,-3.387,-3.4218,-3.4816,-3.6295,-3.7023,-3.8532,0.0,0.0,0.0,0.0,0.0,0.0,0.0,0.0,0.0,0.0,0.0,0.0,0.0,-5.3587,-5.3344,-5.1834,-5.2643,-5.3123,-5.3211,-5.3014,-5.3167,-5.3647,-5.3145,-5.2664,-5.2206,-5.3958,-5.46,-5.4324,-5.6079,0.0,0.0,-5.4714,-5.4504,-5.4433,-5.3709,-5.4503,-5.6211,-5.5966,-5.6495,-5.7148,0.0,0.0,0.0,0.0,0.0,-2.7053,-2.7471,-2.802,-2.8543,-2.8961,-2.951,-2.9876,-2.9876,-2.9353,-2.9144,-2.951,-2.8464,0.0,0.0,0.0,0.0,0.0,0.0,0.0,0.0,0.0,-3.3483,-3.3822,-3.3247,0.0,0.0,0.0,0.0,0.0,0.0,0.0,0.0,0.0,0.0,0.0,0.0,0.0,0.0,0.0,0.0,0.0,0.0,0.0,0.0,0.0,0.0,0.0,0.0,0.0,0.0,0.0,-4.0625,-4.2022,-4.3366,-4.4277,-4.4753,-4.4608,-4.1835,-3.8978,0.0,0.0,-3.3215,-3.3038,-3.2841,-3.2841,-3.3409,-3.3883,-3.4444,-3.5051,-3.5843,-3.7287,-3.9649,0.0,0.0,0.0,0.0,0.0,0.0,0.0,0.0,0.0,0.0,0.0,0.0,-5.3888,-5.3495,-5.2053,-5.2992,-5.3342,-5.2992,-5.3145,-5.3385,-5.3713,-5.3385,-5.2948,-5.249,-5.3773,-5.398,-5.3692,0.0,0.0,0.0,-5.3143,-5.3008,-5.2963,-5.2465,-5.329,-5.4964,-5.4798,-5.5159,-5.5614,0.0,0.0,0.0,0.0,0.0,-2.7523,-2.7523,-2.802,-2.8386,-2.8386,-2.8908,-2.9301,-2.9301,-2.8752,-2.8856,-3.0032,-2.9039,0.0,0.0,0.0,0.0,0.0,0.0,0.0,-3.2672,-3.2698,-3.3247,-3.4397,-3.3849,-3.4162,-3.526,-3.4685,0.0,0.0,0.0,0.0,0.0,0.0,-3.6462,0.0,0.0,0.0,0.0,0.0,0.0,0.0,0.0,0.0,0.0,0.0,0.0,0.0,0.0,0.0,0.0,0.0,-3.8758,-4.1895,-4.117,-4.258,-4.4194,-4.3739,-4.0882,-3.8191,0.0,-3.5355,-3.2747,-3.2727,-3.2727,-3.2841,-3.3182,-3.3769,-3.456,-3.5402,-3.6503,-3.8051,-3.9995,0.0,0.0,0.0,0.0,0.0,0.0,0.0,0.0,0.0,0.0,0.0,0.0,-5.439,-5.3975,-5.2533,-5.249,-5.249,-5.249,-5.297,-5.3211,-5.3211,-5.3211,-5.2948,-5.249,-5.249,-5.2228,0.0,0.0,0.0,0.0,-5.1791,-5.1791,-5.1747,-5.1267,-5.2466,-5.4255,-5.375,-5.4991,-5.6876,0.0,0.0,0.0,0.0,0.0,0.0,-2.7523,-2.802,-2.8386,-2.8386,-2.8908,-2.9274,-2.9274,-2.8752,-2.8856,-3.0032,-2.9065,0.0,0.0,0.0,0.0,0.0,0.0,0.0,-3.2672,-3.3091,-3.3483,-3.3849,-3.4058,-3.4319,-3.4685,-3.492,-3.4972,-3.4972,-3.5757,-3.5887,0.0,-3.594,-3.6462,0.0,0.0,0.0,0.0,0.0,0.0,0.0,0.0,0.0,0.0,0.0,0.0,0.0,0.0,0.0,0.0,-3.444,-3.6114,0.0,-3.9511,-3.9945,-4.0158,-4.0323,-3.8316,-3.6287,-3.6287,-3.4445,-3.2809,-3.312,-3.2934,-3.2913,-3.3651,-3.3822,-3.421,-3.5435,-3.634,-3.7231,-3.8265,0.0,0.0,0.0,0.0,0.0,0.0,0.0,0.0,0.0,0.0,0.0,0.0,-5.3886,-5.343,-5.3014,-5.3298,-5.332,-5.2992,-5.3145,-5.3211,-5.3211,-5.3211,-5.2948,-5.249,-5.249,0.0,0.0,0.0,0.0,0.0,-5.1791,-5.1594,-5.1332,-5.1507,-5.1774,-5.2115,-5.2292,-5.2779,-5.3386,0.0,0.0,0.0,0.0,0.0,0.0,-2.7523,-2.7837,-2.8046,-2.8046,-2.8386,-2.8699,-2.8908,-2.8412,-2.8621,-3.0006,-2.9274,0.0,0.0,0.0,0.0,0.0,0.0,0.0,-3.2359,-3.2751,-3.3038,-3.3247,-3.4031,-3.4397,-3.4397,-3.4789,-3.4868,-3.4737,-3.5025,-3.5077,0.0,-3.5783,-3.6332,-3.6698,0.0,0.0,-3.79,0.0,0.0,0.0,0.0,0.0,0.0,0.0,0.0,0.0,0.0,0.0,0.0,0.0,-3.4697,-3.5607,0.0,-3.8124,-3.8253,-3.8657,-3.6991,0.0,-3.5541,-3.4149,-3.2809,-3.3078,-3.3173,-3.3215,-3.3492,-3.3949,-3.456,-3.5198,-3.5972,-3.6915,-3.7989,0.0,0.0,0.0,0.0,0.0,0.0,0.0,0.0,0.0,0.0,0.0,0.0,0.0,-5.345,-5.3321,-5.3256,-5.3083,-5.2605,-5.2951,-5.3123,-5.2948,-5.332,-5.3145,-5.249,-5.2664,0.0,0.0,0.0,0.0,0.0,-5.1791,-5.1616,-5.1376,-5.1682,-5.1616,-5.1376,-5.1682,-5.1791,-5.1791,0.0,0.0,0.0,0.0,0.0,0.0,0.0,-2.7523,-2.7523,-2.7523,-2.7523,-2.7732,-2.8255,-2.7863,-2.8203,-2.9928,-2.9588,0.0,0.0,0.0,0.0,0.0,0.0,-3.1182,-3.1757,-3.1733,-3.2123,-3.2698,-3.377,-3.4293,-3.4345,-3.4293,-3.4607,-3.5129,-3.4058,-3.3901,-3.4476,-3.5495,-3.5966,-3.6149,0.0,-3.7795,0.0,0.0,0.0,0.0,0.0,0.0,0.0,0.0,0.0,0.0,0.0,0.0,0.0,0.0,0.0,0.0,0.0,-3.6748,-3.793,-3.8172,-3.6748,-3.5354,-3.56,-3.4164,0.0,0.0,0.0,0.0,-3.2934,-3.4212,-3.5275,-3.4749,-3.5606,-3.6911,-3.8743,0.0,0.0,0.0,0.0,0.0,0.0,0.0,0.0,0.0,0.0,0.0,0.0,0.0,-5.362,-5.3145,-5.2714,-5.2089,-5.183,-5.2842,-5.2992,-5.249,-5.3407,-5.3363,-5.249,-5.2927,0.0,0.0,0.0,0.0,0.0,-5.1791,-5.1791,-5.1791,-5.1791,-5.1791,-5.1791,-5.1791,-5.1791,-5.1791,0.0,0.0,0.0,0.0,0.0,0.0,0.0,0.0,0.0,0.0,-2.7523,-2.7575,-2.7706,-2.7602,-2.8072,0.0,0.0,0.0,0.0,0.0,0.0,0.0,-3.0268,-3.0607,-3.1182,-3.1627,-3.2123,-3.2698,-3.296,-3.3326,-3.377,-3.33,-3.3404,-3.3979,-3.3718,-3.3901,-3.4397,-3.4241,-3.4685,-3.5547,-3.6253,-3.6802,0.0,0.0,0.0,0.0,-3.732,-3.5833,0.0,0.0,0.0,0.0,0.0,0.0,0.0,0.0,-3.4311,-3.4194,-3.4397,0.0,-3.4602,-3.4484,-3.4031,-3.3717,0.0,0.0,0.0,0.0,0.0,0.0,0.0,-3.4512,-3.4994,-3.5855,-3.6189,-3.678,-3.7975,0.0,0.0,0.0,0.0,0.0,0.0,0.0,0.0,0.0,0.0,0.0,0.0,0.0,-5.1736,-5.1637,-5.1185,-5.1251,-5.1809,-5.3169,-5.3169,-5.1979,-5.2538,-5.2538,-5.1979,-5.208,0.0,0.0,0.0,0.0,-5.1791,-5.1791,-5.1791,-5.1791,-5.1791,-5.1791,-5.1791,-5.1791,-5.1791,-5.1791,0.0,0.0,0.0,0.0,0.0,0.0,0.0,0.0,0.0,0.0,-2.7523,-2.7628,-2.7889,-2.7915,-2.8386,0.0,0.0,0.0,0.0,0.0,0.0,0.0,-3.0529,-3.0686,-3.0973,-3.1287,-3.1731,-3.2306,-3.2829,-3.3404,-3.3953,-3.3613,-3.3639,-3.3927,-3.3404,-3.3639,-3.4371,-3.4084,-3.4476,-3.5338,-3.5887,0.0,0.0,0.0,0.0,0.0,-3.7108,-3.5738,0.0,-3.5168,-3.438,-3.3246,0.0,0.0,0.0,0.0,-3.4423,-3.4311,-3.4311,-3.3861,-3.3409,-3.3409,-3.3182,-3.2955,-3.2955,0.0,0.0,0.0,0.0,0.0,0.0,0.0,0.0,-3.5613,-3.603,-3.7125,0.0,0.0,0.0,0.0,0.0,0.0,0.0,0.0,0.0,0.0,0.0,0.0,0.0,0.0,-5.0965,-5.0804,-5.0692,-5.0885,-5.1145,-5.239,-5.239,-5.1485,-5.2087,-5.2066,-5.1485,-5.1633,-5.1841,0.0,0.0,0.0,-5.1791,-5.1791,-5.1791,-5.1791,-5.1791,-5.1791,-5.1791,-5.1791,-5.1791,-5.1791,0.0,0.0,0.0,0.0,0.0,0.0,0.0,0.0,0.0,0.0,0.0,0.0,0.0,0.0,0.0,0.0,0.0,0.0,0.0,0.0,0.0,0.0,-3.0895,-3.0895,-3.0973,-3.0973,-3.1313,-3.1967,-3.2881,-3.3639,-3.4267,-3.4188,-3.4188,-3.4214,-3.3169,-3.3326,-3.4397,-3.4214,-3.458,-3.5338,-3.5783,0.0,0.0,0.0,0.0,0.0,0.0,0.0,0.0,-3.4565,-3.3915,-3.3224,-3.4119,0.0,0.0,0.0,0.0,0.0,-3.4534,-3.3904,-3.3401,-3.3544,-3.3182,-3.2841,-3.3069,0.0,0.0,0.0,0.0,0.0,0.0,0.0,0.0,0.0,-3.6016,-3.8082,0.0,0.0,0.0,0.0,0.0,0.0,0.0,0.0,0.0,0.0,0.0,0.0,0.0,0.0,0.0,-5.0146,-5.0544,-5.0586,-5.0125,-5.1188,-5.1401,-5.0929,-5.1724,-5.1681,-5.095,-5.1337,-5.1655,0.0,0.0,0.0,-5.1623,-5.1623,-5.1623,-5.1623,-5.1623,-5.1623,-5.1623,-5.1791,-5.1791,-5.1791,0.0,0.0,0.0,0.0,0.0,0.0,0.0,0.0,0.0,0.0,0.0,0.0,0.0,0.0,0.0,0.0,0.0,0.0,0.0,0.0,0.0,-3.0973,-3.0529,-3.0503,-3.0973,-3.0973,-3.1496,-3.2568,-3.2254,-3.2672,-3.3718,-3.3195,-3.3221,-3.3692,-3.3012,-3.3326,-3.4345,-3.3352,-3.3875,-3.5312,0.0,0.0,0.0,0.0,0.0,0.0,0.0,0.0,0.0,-3.4171,-3.3645,-3.3158,-3.3726,0.0,0.0,0.0,0.0,0.0,-3.4534,-3.4367,-3.4031,-3.3721,-3.3409,-3.3069,-3.2841,0.0,0.0,0.0,0.0,0.0,0.0,0.0,0.0,0.0,0.0,0.0,0.0,0.0,0.0,0.0,0.0,0.0,0.0,0.0,0.0,0.0,0.0,0.0,0.0,0.0,0.0,-4.9323,-4.8963,-4.8963,-4.9344,-5.0506,-5.0697,-4.9912,-5.0379,-5.0379,-4.9912,-5.0485,-5.0634,0.0,0.0,-5.0569,-5.0569,-5.0569,-5.0569,-5.0569,-5.1097,-5.1265,-5.1265,-5.1623,-5.1791,-5.1791,0.0,0.0,0.0,0.0,0.0,0.0,0.0,0.0,0.0,0.0,0.0,0.0,0.0,0.0,0.0,0.0,0.0,0.0,0.0,0.0,-3.0973,-3.0973,-3.0738,-3.0712,-3.0973,-3.0973,-3.1548,-3.2698,-3.2437,-3.3064,-3.4502,-3.3587,-3.3483,-3.3953,-3.2437,-3.2594,-3.3901,-3.3064,-3.3692,-3.5286,0.0,0.0,0.0,0.0,0.0,0.0,0.0,0.0,0.0,0.0,-3.3077,-3.3158,-3.3639,0.0,0.0,0.0,0.0,0.0,-3.4534,-3.435,-3.414,-3.3678,-3.3485,-3.3309,-3.3078,0.0,0.0,0.0,0.0,0.0,0.0,0.0,0.0,0.0,0.0,0.0,0.0,0.0,0.0,0.0,0.0,0.0,0.0,0.0,0.0,0.0,0.0,0.0,0.0,0.0,0.0,0.0,-4.8713,-4.8669,-4.9088,-4.9676,-4.9952,-4.9742,-4.9891,-4.9912,-4.9742,-4.9891,-5.0231,-5.04,0.0,-5.04,-5.04,-5.04,-5.04,-5.04,-5.0569,-5.0738,-5.0738,-5.1265,-5.1265,-5.1097,0.0,0.0,0.0,0.0,0.0,0.0,0.0,0.0,0.0,0.0,0.0,0.0,0.0,0.0,0.0,0.0,0.0,0.0,0.0,-3.0973,-3.0973,-3.0973,-3.1104,-3.113,-3.0973,-3.1104,-3.1679,-3.2698,-3.2829,-3.3718,-3.5286,-3.4397,-3.4214,-3.4528,-3.2489,-3.2411,-3.3744,-3.3273,-3.3953,-3.5286,0.0,0.0,0.0,0.0,0.0,0.0,0.0,0.0,0.0,0.0,0.0,0.0,0.0,0.0,0.0,-3.4534,-3.4534,-3.4534,-3.4534,-3.4398,-3.4237,-3.377,-3.3549,-3.3422,0.0,0.0,0.0,0.0,0.0,0.0,0.0,0.0,0.0,0.0,0.0,0.0,0.0,0.0,0.0,0.0,0.0,0.0,0.0,0.0,0.0,0.0,0.0,0.0,0.0,0.0,0.0,0.0,-4.8441,-4.8438,-4.8893,-4.9017,-4.923,-4.9572,-4.9572,-4.9572,-4.9572,-4.9572,-4.9742,-5.0061,-5.0061,-5.0061,-5.0061,-5.0061,-5.0061,-5.0061,-5.0231,-5.0231,-5.04,-5.0738,-5.0569,-5.0231,0.0,0.0,0.0,0.0,0.0,0.0,0.0,0.0,0.0,0.0,0.0,0.0,0.0,0.0,0.0,0.0,0.0,0.0,0.0,-3.0973,-3.0973,-3.0973,-3.1496,-3.1522,-3.0999,-3.1496,-3.2071,-3.2698,-3.3247,-3.4136,-3.5286,-3.5208,-3.5208,-3.5182,-3.3953,-3.3744,-3.4345,-3.4293,-3.4659,-3.5286,-3.5286,0.0,0.0,0.0,0.0,0.0,0.0,0.0,0.0,0.0,0.0,0.0,0.0,0.0,-3.4534,-3.4534,-3.4534,-3.4534,-3.4534,-3.4636,-3.4647,-3.4194,0.0,0.0,0.0,0.0,0.0,0.0,0.0,0.0,0.0,0.0,0.0,0.0,0.0,0.0,0.0,0.0,0.0,0.0,0.0,0.0,0.0,0.0,0.0,0.0,0.0,0.0,0.0,0.0,0.0,0.0,0.0,-4.7962,-4.8417,-4.8852,-4.9059,-4.9059,-4.9059,-4.9059,-4.9059,-4.9059,-4.923,-4.923,-4.923,-4.923,-4.923,-4.923,-4.923,-4.923,-4.9572,-5.0061,-5.04,-5.04,-5.0231,-4.9742,0.0,0.0,0.0,0.0,0.0,0.0,0.0,0.0,0.0,0.0,0.0,-2.9405,-2.9771,0.0,0.0,0.0,0.0,0.0,-3.0973,-3.0973,-3.0973,-3.0973,-3.1182,-3.1365,-3.1522,-3.2071,-3.2672,-3.3247,-3.4188,-3.4868,-3.5286,-3.492,-3.4554,-3.4214,-3.377,-3.3901,-3.4424,-3.4789,-3.5495,-3.6358,-3.6358,-3.6698,0.0,0.0,0.0,0.0,0.0,0.0,0.0,0.0,-3.2729,-3.3093,-3.3289,-3.3879,-3.4534,-3.4534,-3.4534,-3.4534,-3.4534,-3.4441,-3.4324,-3.4129,0.0,0.0,0.0,0.0,0.0,0.0,0.0,0.0,0.0,0.0,0.0,0.0,0.0,0.0,0.0,0.0,0.0,0.0,0.0,0.0,0.0,0.0,0.0,0.0,0.0,0.0,0.0,0.0,0.0,0.0,0.0,-4.7486,-4.7941,-4.8127,-4.821,-4.821,-4.879,-4.9059,-4.9059,-4.9059,-4.9059,-4.9059,-4.9059,-4.8893,-4.8666,-4.8955,-4.8893,-4.8666,-4.9126,-4.9401,-4.9572,-4.9891,-4.9742,-4.9401,0.0,0.0,0.0,0.0,0.0,0.0,0.0,0.0,-2.7478,0.0,0.0,0.0,0.0,-3.0529,0.0,0.0,0.0,0.0,-3.0973,-3.0973,-3.0973,-3.0973,-3.1156,-3.1444,-3.1759,-3.2594,-3.3169,-3.3587,-3.492,-3.5547,-3.5547,-3.5129,-3.4737,-3.4371,-3.4214,-3.4424,-3.4972,-3.5391,-3.5992,-3.6724,-3.6724,-3.6884,0.0,0.0,0.0,0.0,0.0,0.0,0.0,0.0,-3.2707,-3.3093,-3.3246,-3.3857,-3.4534,-3.4534,-3.4423,-3.4423,-3.4423,-3.4199,-3.3974,-3.3974,0.0,0.0,0.0,0.0,0.0,0.0,0.0,0.0,0.0,0.0,0.0,0.0,0.0,0.0,0.0,0.0,0.0,0.0,0.0,0.0,0.0,0.0,0.0,0.0,0.0,0.0,0.0,0.0,0.0,0.0,0.0,-4.7175,-4.7486,-4.761,-4.761,-4.7486,-4.8252,-4.8707,-4.8852,-4.8852,-4.8852,-4.8852,-4.8997,-4.8728,-4.821,-4.881,-4.8873,-4.8624,-4.8935,-4.9059,-4.9059,-4.9401,-4.9401,-4.9059,0.0,0.0,0.0,0.0,0.0,0.0,0.0,0.0,-2.7281,-2.7281,-2.8499,0.0,0.0,0.0,0.0,0.0,0.0,0.0,-3.0973,-3.0973,-3.0973,-3.0973,-3.1522,-3.1759,-3.1759,-3.2986,-3.3613,-3.3613,-3.526,-3.6096,-3.6096,-3.6096,-3.6096,-3.607,-3.5547,-3.56,-3.6096,-3.6123,-3.6096,-3.6096,-3.6123,-3.5814,-3.5361,0.0,0.0,0.0,0.0,0.0,0.0,0.0,-3.3473,-3.3158,-3.3639,-3.4119,-3.4534,-3.4534,-3.4311,-3.4086,-3.4086,-3.3861,-3.3636,0.0,0.0,0.0,0.0,0.0,0.0,0.0,0.0,0.0,0.0,0.0,0.0,0.0,0.0,0.0,0.0,0.0,0.0,0.0,0.0,0.0,0.0,0.0,0.0,0.0,0.0,0.0,0.0,0.0,0.0,0.0,-4.703,-4.703,-4.703,-4.7444,-4.7444,-4.703,-4.7465,-4.792,-4.8376,-4.8376,-4.8376,-4.8396,-4.8852,-4.8541,-4.7755,-4.8666,-4.9059,-4.9059,-4.9059,-4.9059,-4.9059,-4.9059,-4.9059,-4.9059,0.0,0.0,0.0,0.0,0.0,0.0,0.0,0.0,-2.7301,-2.7825,-2.8594,0.0,0.0,0.0,0.0,0.0,0.0,0.0,-3.0973,-3.0973,-3.0973,-3.0973,-3.1156,-3.1418,-3.1759,-3.2986,-3.3979,-3.4789,-3.4868,-3.4894,-3.492,-3.5338,-3.5312,-3.492,-3.5574,-3.594,-3.6123,-3.6541,-3.6251,-3.5618,-3.6024,-3.621,-3.5962,0.0,0.0,0.0,0.0,0.0,0.0,0.0,0.0,0.0,-3.3246,-3.3857,-3.4534,-3.4534,-3.4423,-3.4311,-3.4199,0.0,0.0,0.0,0.0,0.0,0.0,0.0,0.0,0.0,0.0,0.0,0.0,0.0,0.0,0.0,0.0,0.0,0.0,0.0,0.0,0.0,0.0,0.0,0.0,0.0,0.0,0.0,0.0,0.0,0.0,0.0,0.0,0.0,-4.5912,-4.6078,-4.6078,-4.5892,-4.6057,-4.6554,-4.6368,-4.6844,-4.79,-4.8231,-4.8189,-4.792,-4.8376,-4.8065,-4.7258,-4.7527,-4.8003,-4.8583,-4.8583,-4.8583,-4.8624,-4.8955,-4.9059,-4.9059,0.0,0.0,0.0,0.0,0.0,0.0,-2.6577,-2.6807,-2.7148,-2.778,-2.8486,-2.9052,0.0,0.0,0.0,-3.0495,-3.0748,0.0,-3.0973,-3.0973,-3.0973,-3.0973,-3.0973,-3.1261,-3.1759,-3.2406,-3.3338,-3.4633,-3.4711,-3.4763,-3.4763,-3.5338,-3.5547,-3.5469,-3.641,-3.6623,-3.6264,-3.6625,-3.6259,-3.5504,-3.5362,-3.5445,-3.5547,0.0,0.0,0.0,0.0,0.0,0.0,0.0,0.0,0.0,-3.3289,-3.3901,-3.4534,-3.4534,-3.4423,-3.4311,-3.3974,0.0,0.0,0.0,0.0,0.0,0.0,0.0,0.0,0.0,0.0,0.0,0.0,0.0,0.0,0.0,0.0,0.0,0.0,0.0,0.0,0.0,0.0,0.0,0.0,0.0,0.0,0.0,0.0,0.0,0.0,0.0,0.0,0.0,-4.5271,-4.5416,-4.5416,-4.5126,-4.5354,-4.6078,-4.5809,-4.6202,-4.7175,-4.7631,-4.7693,-4.7424,-4.7527,-4.7465,-4.7279,-4.7113,-4.7465,-4.8127,-4.8314,-4.8376,-4.8438,-4.8893,-4.9059,-4.9038,0.0,0.0,-2.6533,-2.6533,0.0,0.0,-2.6396,-2.6559,-2.6829,-2.743,-2.8083,-2.8495,0.0,0.0,0.0,-2.9704,-3.0216,-3.0698,-3.0999,-3.0898,-3.0898,-3.0823,-3.0875,-3.1059,-3.1681,-3.1458,-3.2097,-3.3587,-3.4685,-3.5208,-3.5234,-3.5835,-3.6348,-3.6831,-3.7378,-3.7268,-3.6452,-3.6163,-3.5862,-3.5386,-3.429,-3.4126,-3.4581,-3.3499,0.0,0.0,0.0,0.0,0.0,0.0,0.0,0.0,-3.3661,-3.4141,-3.4534,-3.4534,-3.4311,-3.3995,0.0,0.0,0.0,0.0,0.0,0.0,0.0,0.0,0.0,0.0,0.0,0.0,0.0,0.0,0.0,0.0,0.0,0.0,0.0,0.0,0.0,0.0,0.0,0.0,0.0,0.0,0.0,0.0,0.0,0.0,0.0,0.0,0.0,0.0,-4.4898,-4.494,-4.494,-4.4877,-4.5126,0.0,-4.5581,-4.5788,-4.6244,-4.674,-4.6968,-4.6947,-4.6492,-4.6803,-4.7589,-4.7113,-4.7196,-4.7672,-4.8086,-4.8252,-4.8314,-4.8769,-4.8935,-4.8873,0.0,0.0,-2.6533,-2.6533,0.0,0.0,-2.5652,-2.5993,-2.6357,-2.6648,-2.6887,-2.7334,-2.8145,-2.8762,0.0,-2.9447,-2.9626,-2.9985,-3.0698,-3.0266,-2.9883,-2.9729,-2.9658,-2.9955,-3.0795,-3.0827,-3.1729,-3.3587,-3.4267,-3.458,-3.4607,-3.5626,-3.5941,-3.5663,-3.5881,-3.6092,-3.6213,-3.4985,-3.4338,-3.4195,-3.364,-3.3383,-3.34,-3.2319,-3.2319,0.0,0.0,0.0,0.0,0.0,0.0,0.0,-3.377,-3.4141,-3.4423,-3.4199,-3.4199,0.0,0.0,0.0,0.0,0.0,0.0,0.0,0.0,0.0,0.0,0.0,0.0,0.0,0.0,0.0,0.0,0.0,0.0,0.0,0.0,0.0,0.0,0.0,0.0,0.0,0.0,0.0,0.0,0.0,0.0,0.0,0.0,0.0,0.0,-4.3925,-4.4256,-4.4443,-4.4443,-4.4091,-4.4319,0.0,-4.4774,-4.4836,-4.5312,-4.6119,-4.6492,-4.6471,-4.6016,-4.6347,-4.7113,-4.6306,-4.6451,-4.7196,-4.7279,-4.732,-4.7382,-4.7817,-4.7982,-4.7962,0.0,0.0,0.0,0.0,0.0,0.0,0.0,0.0,-2.5722,-2.6292,-2.645,-2.679,-2.7734,-2.8361,0.0,0.0,-2.8924,-2.9184,-2.9316,-2.8978,-2.8743,-2.8664,-2.8631,-2.8916,-2.9731,-2.983,-3.0577,-3.187,-3.2397,-3.3462,-3.4842,-3.4717,-3.5077,-3.5787,-3.5565,-3.521,-3.4751,-3.4264,-3.3664,-3.3144,-3.2497,-3.2622,-3.3101,-3.1812,-3.1812,-3.2319,-3.1812,0.0,0.0,0.0,0.0,0.0,0.0,0.0,-3.4534,-3.4311,-3.4199,0.0,0.0,0.0,0.0,0.0,0.0,0.0,0.0,0.0,0.0,0.0,0.0,0.0,0.0,0.0,0.0,0.0,0.0,0.0,0.0,0.0,0.0,0.0,0.0,0.0,0.0,0.0,0.0,0.0,0.0,0.0,0.0,-4.407,-4.4112,-4.3635,-4.3842,-4.3967,-4.3967,-4.3739,-4.3967,-4.465,-4.4422,-4.4422,-4.4691,-4.5395,-4.5705,-4.5685,-4.5457,-4.5623,-4.6016,-4.554,-4.5623,-4.6099,-4.6533,-4.6699,-4.6782,-4.7444,-4.7693,-4.7651,0.0,0.0,0.0,0.0,0.0,0.0,0.0,0.0,0.0,-2.5973,-2.6074,-2.6278,-2.7093,-2.7706,-2.7891,0.0,0.0,0.0,-2.7763,-2.7602,-2.7522,-2.7602,-2.7653,-2.7973,-2.868,-2.8756,-2.9183,-3.0049,-3.0285,-3.1817,-3.4658,-3.3588,-3.3929,-3.5547,-3.5184,-3.4393,-3.3238,-3.3503,-3.3161,-3.2506,-3.1556,-3.1812,-3.2723,-3.1614,-3.1348,-3.1555,-3.1745,-3.2093,-3.2572,-3.3071,0.0,0.0,0.0,0.0,-3.4534,-3.4423,-3.4311,-3.3995,0.0,0.0,0.0,0.0,0.0,0.0,0.0,0.0,0.0,0.0,0.0,0.0,0.0,0.0,0.0,0.0,0.0,0.0,0.0,0.0,0.0,0.0,0.0,0.0,0.0,0.0,0.0,0.0,0.0,0.0,-4.3635,-4.3615,-4.3615,-4.3615,-4.3615,-4.3615,-4.3615,-4.3615,-4.3801,-4.4174,-4.4174,-4.4174,-4.4194,-4.4588,-4.4795,-4.4877,-4.4877,-4.4919,-4.4981,-4.4898,-4.4919,-4.5064,-4.5912,-4.6244,-4.6326,-4.7154,-4.7444,-4.7403,0.0,0.0,0.0,0.0,0.0,0.0,0.0,0.0,0.0,0.0,-2.5016,-2.5041,-2.5902,-2.6069,-2.6235,-2.6318,-2.6423,-2.6835,-2.7464,0.0,0.0,-2.6648,-2.6715,-2.7195,-2.8109,-2.7697,-2.8388,-3.0146,-2.9172,-2.9872,-3.2189,-3.2438,-3.2576,-3.2755,-3.2823,-3.2972,-3.3106,-3.2075,-3.2037,-3.271,-3.1607,-3.1322,-3.1468,-3.1463,-3.1507,-3.1571,-3.2297,-3.275,-3.3268,-3.3574,-3.4032,0.0,0.0,0.0,-3.4401,-3.4199,-3.4086,0.0,0.0,0.0,0.0,0.0,0.0,0.0,0.0,0.0,0.0,0.0,0.0,0.0,0.0,0.0,0.0,0.0,0.0,0.0,0.0,0.0,0.0,0.0,0.0,0.0,0.0,0.0,0.0,0.0,0.0,0.0,-4.3615,-4.3615,-4.3615,-4.3615,-4.3615,-4.3615,-4.3615,-4.3615,-4.3635,-4.3698,-4.3698,-4.3698,-4.3698,-4.376,-4.4008,-4.4401,-4.4401,-4.4629,-4.496,-4.4567,-4.4629,-4.5043,-4.5561,-4.5768,-4.583,-4.6347,-4.6533,-4.6513,0.0,0.0,0.0,0.0,0.0,0.0,0.0,0.0,0.0,0.0,0.0,-2.485,-2.5735,-2.5819,-2.5819,-2.5902,-2.6008,-2.5924,-2.5841,-2.5611,-2.555,-2.5744,-2.6341,-2.6811,-2.7428,-2.7189,-2.7532,-2.8187,-2.7914,-2.8516,-2.9803,-3.0383,-3.134,-3.2699,-3.2367,-3.2267,-3.2202,-3.1589,-3.1456,-3.1629,-3.1013,-3.0955,-3.1315,-3.1317,-3.1551,-3.1912,-3.2233,-3.2835,-3.3353,-3.3353,-3.3677,-3.4311,-3.4311,0.0,0.0,0.0,0.0,0.0,0.0,0.0,0.0,0.0,0.0,0.0,0.0,0.0,0.0,0.0,0.0,0.0,0.0,0.0,0.0,0.0,0.0,0.0,0.0,0.0,0.0,0.0,0.0,0.0,0.0,0.0,0.0,0.0,0.0,-4.3615,-4.3615,-4.3615,-4.3615,-4.3615,-4.3615,-4.3615,-4.3615,-4.3346,-4.3097,-4.2849,-4.2849,-4.2973,-4.3221,-4.3221,-4.347,-4.3905,-4.3905,-4.4029,-4.4194,-4.4008,-4.4029,-4.4256,-4.4733,-4.4919,-4.5002,-4.5705,-4.5975,-4.6016,0.0,0.0,0.0,0.0,0.0,0.0,0.0,0.0,0.0,0.0,0.0,-2.4786,-2.5421,0.0,0.0,0.0,-2.5333,-2.5062,-2.4529,-2.47,-2.4909,-2.5213,-2.5899,-2.6388,-2.6668,-2.6585,-2.6445,-2.6267,-2.7045,-2.7681,-2.8258,-2.9432,-3.0957,-3.2783,-3.2084,-3.1761,-3.1634,-3.1508,-3.1275,-3.1063,-3.06,-3.0769,-3.1402,-3.123,-3.1566,-3.2184,-3.242,-3.2806,-3.3326,-3.3104,-3.345,-3.3974,-3.3974,-3.3749,0.0,0.0,0.0,0.0,0.0,0.0,0.0,0.0,0.0,0.0,0.0,0.0,0.0,0.0,0.0,0.0,0.0,0.0,0.0,0.0,0.0,0.0,0.0,0.0,0.0,0.0,0.0,0.0,0.0,0.0,0.0,0.0,0.0,-4.3615,-4.3615,-4.3615,-4.3615,-4.3615,-4.3615,-4.3553,-4.3428,-4.2973,-4.258,-4.2249,-4.2249,-4.2435,-4.2766,-4.287,-4.3118,-4.3449,-4.3553,-4.3615,-4.3615,-4.3615,-4.3615,-4.3656,-4.4112,-4.4298,-4.4422,-4.5333,-4.5685,-4.5747,0.0,0.0,0.0,0.0,0.0,0.0,0.0,0.0,0.0,0.0,0.0,-2.455,-2.4529,-2.4241,-2.3992,-2.3992,-2.3992,-2.4179,-2.4509,-2.4529,-2.4757,-2.5213,-2.5254,0.0,-2.5896,-2.5502,-2.5295,-2.5275,-2.6898,-2.7798,-2.7966,-3.0517,-3.1835,-3.2031,-3.12,-3.1174,-3.1919,-3.1354,-3.1335,-3.165,-3.0748,-3.0685,-3.1147,-3.1283,-3.1609,-3.2064,-3.2839,-3.314,-3.3275,-3.348,-3.3614,-3.3636,-3.3636,-3.3636,-3.3636,0.0,0.0,0.0,0.0,0.0,0.0,0.0,0.0,0.0,0.0,0.0,0.0,0.0,0.0,0.0,0.0,0.0,0.0,0.0,0.0,0.0,0.0,0.0,0.0,0.0,0.0,0.0,0.0,0.0,0.0,0.0,0.0,-4.3615,-4.3615,-4.3615,-4.3615,-4.3615,-4.3615,-4.3408,-4.2952,-4.2518,-4.229,-4.2249,-4.2249,-4.2269,-4.2311,-4.2725,-4.2932,-4.2973,-4.3428,-4.3615,-4.3615,-4.3615,-4.3615,-4.3656,-4.4112,-4.4298,-4.4422,-4.5333,-4.5685,-4.5747,0.0,0.0,0.0,0.0,0.0,0.0,0.0,0.0,0.0,0.0,0.0,0.0,0.0,-2.4136,-2.3991,-2.4281,-2.4302,-2.4364,-2.4529,-2.455,-2.4757,-2.5213,-2.5233,-2.544,-2.5875,-2.5461,-2.5233,-2.5233,-2.6401,-2.7149,-2.7531,-2.9642,-3.0992,-3.1629,-3.1878,-3.2023,-3.2023,-3.1802,-3.1594,-3.1558,-3.1225,-3.1262,-3.1678,-3.1733,-3.2085,0.0,0.0,0.0,0.0,-3.3069,-3.3182,-3.3296,-3.3296,-3.3182,-3.3069,-3.3296,-3.3523,-3.3721,0.0,0.0,0.0,0.0,0.0,0.0,0.0,0.0,0.0,0.0,0.0,0.0,0.0,0.0,0.0,0.0,0.0,0.0,0.0,0.0,0.0,0.0,0.0,0.0,0.0,0.0,0.0,0.0,0.0,0.0,-4.3615,-4.3325,-4.3304,-4.3594,-4.3325,-4.3097,-4.2911,-4.2766,-4.2538,-4.2249,-4.2249,-4.2414,-4.2683,-4.2559,-4.2807,-4.3346,-4.3221,-4.3325,-4.3615,-4.3615,-4.3615,-4.3635,-4.3801,-4.3863,-4.3967,-4.4898,-4.5229,-4.5354,0.0,-2.4322,-2.4364,-2.4509,0.0,-2.455,-2.455,-2.455,-2.455,-2.455,0.0,0.0,0.0,0.0,-2.3991,-2.4302,-2.4322,-2.4385,-2.4529,-2.455,-2.4757,-2.5213,-2.5088,-2.5275,-2.5875,-2.5295,-2.515,-2.544,-2.6206,-2.6889,-2.751,-2.9208,-3.0491,-3.1402,-3.2168,-3.2582,0.0,0.0,0.0,-3.2002,-3.1567,-3.165,-3.2064,-3.2375,0.0,0.0,0.0,0.0,0.0,-3.3111,-3.3069,-3.3299,-3.3299,-3.2965,-3.2727,-3.3069,-3.3296,-3.3473,-3.356,0.0,0.0,0.0,0.0,0.0,0.0,0.0,0.0,0.0,0.0,0.0,0.0,0.0,0.0,0.0,0.0,0.0,0.0,0.0,0.0,0.0,0.0,0.0,0.0,0.0,0.0,0.0,0.0,0.0,-4.3615,-4.3325,-4.3284,-4.3594,-4.3159,-4.2911,-4.2911,-4.2766,-4.2538,-4.2249,-4.2249,-4.2414,-4.2683,-4.2538,-4.2725,-4.3159,-4.3159,-4.3325,-4.3594,-4.3449,-4.347,-4.3594,-4.3449,-4.347,-4.3698,-4.4484,-4.4753,-4.4898,-2.3805,-2.3888,-2.4033,-2.4467,-2.455,-2.455,-2.455,-2.455,-2.455,-2.455,0.0,0.0,0.0,0.0,0.0,-2.3888,-2.3888,-2.4074,-2.4509,-2.455,-2.4736,-2.5192,-2.4799,-2.4964,-2.5834,-2.5026,-2.5006,-2.5875,-2.6351,-2.7034,-2.7924,-2.9332,-3.047,-3.136,-3.1836,-3.2768,-3.3948,0.0,-3.2996,-3.3285,0.0,-3.1712,-3.2188,0.0,0.0,0.0,-3.3886,-3.4072,0.0,-3.3555,-3.341,-3.341,-3.3389,-3.3078,-3.2747,-3.309,-3.3224,-3.3224,0.0,0.0,0.0,0.0,0.0,0.0,0.0,0.0,0.0,0.0,0.0,0.0,0.0,0.0,0.0,0.0,0.0,0.0,0.0,0.0,0.0,0.0,0.0,0.0,0.0,0.0,0.0,0.0,0.0,-4.3615,-4.3615,-4.3615,-4.3594,-4.3594,-4.3159,-4.2932,-4.2932,-4.2518,-4.229,-4.229,-4.229,-4.229,-4.2311,-4.2725,-4.2683,-4.2331,-4.3201,-4.3594,-4.3532,-4.3097,-4.3201,-4.3573,-4.3097,-4.3201,-4.3677,-4.4132,-4.4298,-4.4443,-2.426,-2.4364,-2.4405,-2.4509,-2.455,-2.455,-2.455,-2.455,-2.455,0.0,0.0,0.0,-2.4509,-2.4426,-2.4364,-2.4364,-2.4364,-2.4405,-2.4444,-2.455,-2.4592,-2.4736,-2.4923,-2.515,-2.5399,-2.5482,-2.5627,-2.5875,-2.6351,-2.6868,-2.7469,-2.8856,-2.9808,-3.0429,-3.1547,-3.225,-3.2602,-3.2706,0.0,0.0,-3.3099,-3.3099,0.0,0.0,0.0,0.0,0.0,-3.3989,0.0,0.0,-3.4093,-3.4258,0.0,-3.3078,-3.2789,-3.3215,-3.3434,-3.3633,-3.3851,0.0,0.0,0.0,0.0,0.0,0.0,0.0,0.0,0.0,0.0,0.0,0.0,0.0,0.0,0.0,0.0,0.0,0.0,0.0,0.0,0.0,0.0,0.0,0.0,0.0,0.0,0.0,-4.3615,-4.3615,-4.3615,-4.3615,-4.3449,-4.3118,-4.3304,-4.3428,-4.3428,-4.3304,-4.3242,-4.3242,-4.3242,-4.3242,-4.3221,-4.3014,-4.2849,-4.2745,-4.3014,-4.2932,-4.2642,-4.2828,-4.3201,-4.3573,-4.3097,-4.3201,-4.3677,-4.4132,-4.4298,-4.4381,-2.4178,-2.426,-2.4322,-2.4509,-2.455,-2.455,-2.455,-2.455,-2.455,0.0,0.0,0.0,-2.4509,-2.455,-2.455,-2.455,-2.455,-2.455,-2.455,-2.455,-2.4633,-2.4819,-2.5088,-2.5399,-2.5771,-2.5854,-2.6061,-2.6455,-2.6724,-2.7096,-2.7572,-2.8752,-2.9559,-3.0036,-3.1029,-3.1692,-3.2064,0.0,0.0,0.0,-3.3285,0.0,0.0,-3.4051,-3.4196,0.0,0.0,0.0,-3.579,-3.5148,-3.4983,0.0,0.0,0.0,-3.3348,-3.3596,-3.3796,-3.3976,-3.4108,-3.417,-3.4456,0.0,0.0,0.0,-3.5625,-3.6246,0.0,0.0,0.0,0.0,0.0,0.0,0.0,0.0,0.0,0.0,0.0,0.0,0.0,0.0,0.0,0.0,0.0,0.0,0.0,-4.3615,-4.3615,-4.3615,-4.3615,-4.3615,-4.3491,-4.3221,-4.347,-4.3615,-4.3615,-4.3615,-4.3615,-4.3615,-4.3615,-4.3615,-4.3594,-4.3325,-4.3097,-4.2911,-4.2911,-4.2663,-4.2269,-4.2331,-4.2621,-4.3014,-4.2745,-4.2932,-4.3387,-4.3842,-4.4008,-4.4091,0.0,-2.395,-2.4074,-2.4467,-2.455,-2.455,-2.455,-2.455,-2.455,0.0,-2.4592,-2.4612,-2.4612,-2.4654,-2.4695,-2.4695,-2.4695,-2.4695,-2.4695,-2.4695,-2.4881,-2.5275,-2.5399,-2.5834,-2.662,-2.633,-2.6579,-2.7407,-2.7407,-2.7634,-2.809,-2.8918,-2.9559,-3.0015,-3.0429,-3.1091,-3.1899,0.0,0.0,-3.3285,-3.2996,-3.3658,0.0,0.0,-3.5335,0.0,-3.6101,-3.6742,-3.7446,-3.6556,-3.5914,0.0,0.0,0.0,-3.4072,-3.4134,-3.4134,-3.4176,-3.4258,-3.43,-3.4507,-3.5355,0.0,0.0,-3.5314,-3.55,-3.5625,0.0,0.0,0.0,0.0,0.0,0.0,0.0,0.0,0.0,0.0,0.0,0.0,0.0,0.0,0.0,0.0,-4.3511,-4.3532,-4.3532,-4.3532,-4.3532,-4.3532,-4.3491,-4.3511,-4.3615,-4.3553,-4.3553,-4.3615,-4.3615,-4.3615,-4.3615,-4.3615,-4.3615,-4.3615,-4.3615,-4.3366,-4.2911,-4.2911,-4.2642,-4.2145,-4.1731,-4.1835,-4.2249,-4.2249,-4.2538,-4.2973,-4.3449,-4.3615,-4.3677,-2.4385,-2.4405,-2.4447,-2.4529,-2.455,-2.455,-2.455,-2.455,-2.455,-2.455,-2.4861,-2.5088,-2.5088,-2.542,-2.5627,-2.5627,-2.5627,-2.5627,-2.5627,-2.5627,-2.5647,-2.5751,-2.6475,-2.6951,-2.7117,-2.7759,-2.8173,-2.8359,-2.8359,-2.8587,-2.9042,-2.9228,-2.9559,-2.9994,-3.0098,-3.0429,-3.0967,0.0,0.0,-3.2913,-3.3555,0.0,-3.5293,-3.5293,-3.5397,-3.5604,-3.5976,-3.6949,-3.7964,0.0,-3.666,-3.5811,0.0,0.0,0.0,-3.4507,0.0,-3.4776,-3.5521,0.0,0.0,0.0,0.0,0.0,-3.6018,-3.5976,-3.6101,0.0,0.0,0.0,0.0,0.0,0.0,0.0,0.0,0.0,0.0,0.0,0.0,0.0,0.0,0.0,0.0,-4.2849,-4.3056,-4.3056,-4.3056,-4.3056,-4.3056,-4.2725,-4.2849,-4.3594,-4.3242,-4.3242,-4.3615,-4.3615,-4.3615,-4.3615,-4.3615,-4.3615,-4.3615,-4.3615,-4.3366,-4.2911,-4.2911,-4.2456,-4.169,-4.1607,-4.1835,-4.2249,-4.2249,-4.2538,-4.2973,-4.3449,-4.3615,-4.3615,-2.4444,-2.455,-2.455,-2.455,-2.455,-2.4612,-2.484,-2.4881,-2.4964,-2.5171,-2.542,-2.5564,-2.5564,-2.5751,-2.5875,-2.5875,-2.5875,-2.5875,-2.5875,-2.5875,-2.5978,-2.6206,-2.6889,-2.7469,-2.7924,-2.838,-2.8731,-2.8959,-2.8959,-2.9083,-2.9311,-2.9766,-2.9994,-3.0015,-3.047,-3.0822,-3.1071,0.0,-3.223,-3.3099,-3.3534,0.0,-3.5749,-3.55,-3.6142,-3.7136,-3.7136,-3.7881,-3.8615,-3.7246,-3.7126,0.0,0.0,-3.4922,-3.5438,0.0,-3.5438,-3.5542,0.0,0.0,0.0,-3.7032,0.0,0.0,0.0,-3.6121,0.0,0.0,0.0,0.0,0.0,0.0,0.0,0.0,0.0,0.0,0.0,0.0,0.0,0.0,0.0,0.0,0.0,-4.2456,-4.258,-4.258,-4.258,-4.258,-4.258,-4.2373,-4.2476,-4.2932,-4.2704,-4.2807,-4.3263,-4.3263,-4.3387,-4.3615,-4.3615,-4.3615,-4.3615,-4.3615,-4.3491,-4.3263,-4.3014,-4.2663,-4.2228,-4.2,-4.1917,-4.1917,-4.1917,-4.2186,-4.2642,-4.3097,-4.3408,-4.3615,-2.3907,-2.4186,-2.4272,-2.4464,-2.455,-2.4695,-2.5171,-2.5233,-2.5378,-2.5813,-2.5838,-2.5757,-2.5757,-2.5623,-2.5518,-2.5518,-2.5518,-2.5724,-2.6023,-2.6023,-2.6279,-2.6951,-2.7407,-2.8048,-2.8856,-2.8876,-2.9104,-2.9559,-2.9559,-2.9559,-2.958,-3.0346,-3.0532,-3.0284,-3.0946,-3.1381,0.0,0.0,0.0,-3.3389,0.0,-3.4445,-3.5832,-3.5625,-3.6763,-3.846,-3.844,-3.878,-3.8861,-3.7288,0.0,-3.8126,-3.5691,-3.578,0.0,0.0,0.0,0.0,0.0,0.0,0.0,0.0,0.0,-3.7156,0.0,0.0,0.0,0.0,0.0,0.0,0.0,0.0,0.0,0.0,0.0,0.0,0.0,0.0,0.0,0.0,0.0,0.0,0.0,-4.2124,-4.2083,-4.2,-4.2083,-4.2124,-4.2124,-4.2042,-4.2083,-4.2249,-4.2166,-4.2331,-4.2787,-4.287,-4.3118,-4.3491,-4.3573,-4.3615,-4.3615,-4.3615,-4.3553,-4.3449,-4.3077,-4.287,-4.2766,-4.2414,-4.1979,-4.1565,-4.1669,-4.1938,-4.2311,-4.2766,-4.3221,-4.3615,-2.2561,-2.3086,-2.3541,-2.4358,-2.455,-2.4695,-2.5171,-2.5233,-2.5378,-2.5813,-2.5511,-2.5199,-2.5199,-2.4757,-2.4342,-2.4342,-2.4342,0.0,-2.6218,0.0,-2.6962,-2.828,-2.8814,-2.9311,-2.9829,-2.9829,-3.0056,-3.0532,-3.0532,-3.0532,-3.0532,-3.0636,-3.0884,-3.1215,-3.0905,-3.1443,0.0,0.0,-3.2561,0.0,-3.3824,-3.4362,0.0,-3.5749,-3.6453,-3.7239,-3.8812,-3.8584,-3.7648,0.0,-3.8404,-3.7411,0.0,-3.7563,0.0,0.0,0.0,0.0,0.0,0.0,0.0,0.0,-3.8957,0.0,0.0,0.0,0.0,0.0,0.0,0.0,0.0,0.0,0.0,0.0,0.0,0.0,0.0,0.0,0.0,0.0,0.0,0.0,0.0,0.0,-4.1483,-4.1069,-4.1421,-4.1648,-4.1648,-4.1255,-4.14,-4.2228,-4.1855,-4.1876,-4.2331,-4.2725,-4.2952,-4.2994,-4.3408,-4.3615,-4.3615,-4.3615,-4.3387,-4.2994,-4.2952,-4.2704,-4.2331,-4.2269,-4.1979,-4.1607,-4.2021,-4.2207,-4.2311,-4.2766,-4.3221,-4.3615,-2.1569,-2.2561,-2.3193,-2.3627,-2.3847,-2.4344,-2.5434,-2.6061,-2.6475,-2.6662,-2.6147,-2.572,-2.572,0.0,0.0,0.0,0.0,0.0,0.0,0.0,-2.6883,-2.7151,-2.9096,-2.9864,-2.9279,-3.0069,-3.0491,-3.0677,-3.0408,-3.0284,-3.0305,-3.0843,-3.105,-3.1008,-3.1609,0.0,-3.2375,0.0,0.0,0.0,0.0,0.0,0.0,-3.4752,-3.5244,-3.5491,-3.6596,-3.6674,-3.6217,0.0,-3.5781,0.0,0.0,0.0,0.0,0.0,0.0,0.0,0.0,0.0,0.0,0.0,0.0,0.0,0.0,0.0,-3.7736,0.0,0.0,0.0,0.0,0.0,0.0,0.0,0.0,0.0,0.0,0.0,0.0,0.0,0.0,0.0,0.0,0.0,0.0,0.0,0.0,-4.0551,-4.0013,-4.0303,-4.0675,-4.1069,-4.1131,-4.14,-4.1855,-4.2042,-4.2269,-4.2538,-4.2994,-4.3201,-4.3221,-4.3491,-4.3366,-4.2932,-4.3201,-4.3056,-4.2642,-4.2642,-4.2373,-4.1959,-4.1876,-4.1855,-4.1876,-4.2062,-4.26,-4.3201,-2.0286,-2.1374,-2.2227,-2.2536,-2.3275,-2.4283,-2.589,-2.6465,-2.6778,-2.6871,-2.6109,0.0,-2.5722,-2.5148,0.0,0.0,0.0,-2.465,0.0,0.0,-2.6391,-2.637,0.0,0.0,-2.8554,-2.9479,-3.0048,-3.0028,-3.0052,-3.0059,-3.0201,-3.1189,-3.1505,-3.1464,-3.2457,-3.2498,-3.1909,0.0,0.0,-3.2113,-3.3316,-3.3125,-3.2241,-3.3688,-3.412,-3.4202,-3.4747,-3.4883,-3.4576,-3.3533,-3.4156,0.0,-3.3335,0.0,0.0,0.0,0.0,0.0,-3.7906,0.0,0.0,0.0,0.0,0.0,0.0,0.0,0.0,0.0,0.0,0.0,0.0,0.0,-3.7695,-3.8109,0.0,0.0,0.0,0.0,0.0,0.0,0.0,0.0,0.0,0.0,0.0,0.0,0.0,0.0,-3.8895,-3.9495,-3.9972,-4.022,-4.053,-4.0924,-4.1379,-4.1503,-4.1669,-4.1876,-4.2456,-4.2663,-4.2559,-4.3035,-4.2994,-4.258,-4.3035,-4.2973,-4.2559,-4.2807,-4.258,-4.2042,-4.1835,-4.1607,-4.14,-4.1524,-4.2062,-4.2766,-1.8303,-1.905,-1.9995,-2.1257,-2.2963,-2.4761,-2.6622,-2.5867,-2.533,0.0,0.0,0.0,0.0,0.0,0.0,0.0,0.0,-2.4094,-2.5221,0.0,-2.5459,0.0,0.0,0.0,0.0,-2.8046,-2.8162,-2.8278,-2.9527,-3.0332,-3.0742,-3.1625,-3.2478,-3.3306,-3.3348,-3.2626,-3.1603,-3.2344,-3.1703,-3.0254,-3.0974,-3.1078,-3.1012,0.0,-3.334,-3.378,-3.4183,0.0,0.0,-3.4793,-3.4747,0.0,0.0,0.0,0.0,0.0,0.0,0.0,0.0,0.0,0.0,-3.7158,0.0,0.0,0.0,0.0,-3.8937,0.0,0.0,0.0,0.0,-3.9454,-3.9185,-3.8316,-3.8916,0.0,0.0,0.0,0.0,0.0,0.0,0.0,0.0,0.0,0.0,0.0,0.0,0.0,-3.8874,-3.8874,-3.9309,-4.0199,-4.0241,-4.0468,-4.0903,-4.1338,-4.1338,-4.0924,-4.1835,-4.2042,-4.1628,-4.2083,-4.2042,-4.1628,-4.2104,-4.2042,-4.1669,-4.2559,-4.2393,-4.1628,-4.2062,-4.169,-4.0944,-4.14,-4.1876,-4.2331,-1.8567,-1.904,-1.9688,-2.0662,0.0,-2.2477,-2.3651,-2.4204,0.0,0.0,0.0,0.0,0.0,0.0,-2.5336,0.0,0.0,-2.4695,-2.5092,-2.5643,0.0,0.0,0.0,-2.8043,0.0,-2.7754,-2.8102,-2.8082,-2.827,-2.8443,-2.8574,-2.9183,-3.0083,-3.1222,-3.2215,-3.2038,0.0,0.0,0.0,0.0,0.0,-3.0736,-3.1537,0.0,0.0,-3.1203,-3.132,-3.1333,0.0,-3.2293,-3.2425,-3.2233,-3.2592,-3.3391,-3.4084,-3.3979,-3.4752,0.0,0.0,0.0,-3.5149,-3.5832,0.0,0.0,0.0,0.0,0.0,0.0,0.0,0.0,0.0,-4.0427,-4.022,-3.9599,-3.9516,-3.9268,0.0,0.0,0.0,0.0,0.0,0.0,0.0,0.0,0.0,0.0,0.0,0.0,0.0,-3.7922,-3.8543,-3.8874,-3.9765,-4.0303,-4.0448,-4.0882,-4.1027,-4.0882,-4.1193,-4.1421,-4.1565,-4.14,-4.1421,-4.1586,-4.2062,-4.2166,-4.2042,-4.2352,-4.2311,-4.1979,-4.1524,-4.1151,-4.0903,-4.1048,-4.14,-4.1876,-1.914,-1.9389,-1.9717,0.0,0.0,0.0,0.0,0.0,0.0,0.0,-2.5489,0.0,-2.6798,0.0,-2.6884,0.0,-2.6305,-2.584,-2.5381,-2.5957,0.0,-2.4434,-2.6487,0.0,0.0,-2.6727,-2.717,-2.7039,-2.7397,-2.7705,-2.8112,-2.8382,-2.9108,-3.0287,-3.1359,-3.0907,0.0,0.0,-3.1157,0.0,0.0,-2.9954,0.0,0.0,-3.0435,-2.9965,0.0,-3.0076,-3.0664,-3.0664,-3.0998,-3.1379,-3.1268,-3.1967,-3.2827,-3.2709,-3.3447,-3.4364,-3.4493,-3.3992,0.0,-3.4592,-3.4836,0.0,-3.5953,0.0,0.0,0.0,0.0,0.0,0.0,-4.0056,-4.0164,-3.9232,-3.9286,-3.9102,0.0,-3.7177,0.0,0.0,0.0,0.0,0.0,0.0,0.0,0.0,0.0,0.0,0.0,0.0,-3.7839,-3.8171,-3.9351,-4.0054,-4.022,-4.0655,-4.08,-4.0634,-4.0634,-4.0717,-4.0841,-4.0696,-4.0882,-4.1338,-4.1814,-4.2104,-4.2249,-4.2249,-4.2166,-4.1959,-4.1358,-4.1027,-4.0882,-4.0882,-4.1172,-4.1607,-1.9813,-2.0062,-2.0091,0.0,-2.0071,0.0,0.0,0.0,-2.3794,0.0,-2.5196,-2.6163,-2.7499,-2.7804,-2.8163,-2.8612,-2.8174,0.0,-2.6222,-2.6106,0.0,0.0,-2.5156,-2.5136,-2.4202,-2.5061,0.0,-2.5199,-2.6663,-2.7927,-2.9044,-2.8906,-2.9337,-3.0518,-3.1048,0.0,-2.7193,-2.947,-2.901,-2.6867,-2.8217,-2.8996,-2.9345,-2.9329,0.0,-3.0251,-2.9584,-2.979,-3.0362,-3.0362,-3.0823,-3.1458,-3.1808,-3.1458,-3.1045,-3.1744,-3.1458,-3.1093,-3.176,-3.1951,-3.2184,-3.3314,0.0,0.0,0.0,0.0,-3.8399,0.0,0.0,0.0,0.0,0.0,-3.907,-3.7559,-3.8526,-3.8854,-3.7053,-3.6804,0.0,0.0,0.0,0.0,0.0,0.0,0.0,0.0,0.0,0.0,0.0,0.0,-3.7198,-3.8129,-3.904,-3.9744,-4.022,-4.0655,-4.0675,-4.0261,-4.022,-3.9972,-3.9578,-3.9951,-4.0386,-4.0862,-4.1358,-4.1835,-4.2249,-4.229,-4.2021,-4.1607,-4.1565,-4.1276,-4.0882,-4.0882,-4.1151,-4.1545,-2.0472,-2.0735,-2.0911,0.0,-2.0759,-2.1041,0.0,0.0,0.0,0.0,-2.6402,-2.7629,-2.8828,-2.938,-2.9704,-2.9542,-2.9149,0.0,0.0,0.0,0.0,-2.5579,-2.5967,-2.6007,-2.5233,-2.5383,0.0,-2.6252,-2.6143,-2.6406,-2.693,-2.71,-2.7479,-2.8027,-3.0101,0.0,-2.7586,-2.9847,-2.966,-2.7884,-2.8519,-2.9282,0.0,0.0,-3.0124,-3.0664,-3.0219,-3.0505,-3.1109,-3.1109,-3.1236,-3.1458,-3.1808,-3.1792,-3.1729,-3.2158,-3.2158,-3.2046,-3.2237,-3.2475,-3.2762,-3.2694,-3.3603,-3.4418,0.0,0.0,0.0,0.0,0.0,0.0,0.0,0.0,0.0,-3.8301,-3.8404,-3.8129,-3.697,0.0,0.0,0.0,0.0,0.0,0.0,0.0,0.0,0.0,0.0,0.0,0.0,0.0,0.0,-3.7653,-3.8543,-3.9413,-4.022,-4.0655,-4.082,-4.0696,-4.0034,-3.9827,-4.0034,-3.9454,-3.964,-4.0448,-4.1214,-4.1835,-4.229,-4.2621,-4.2476,-4.2042,-4.171,-4.1276,-4.0882,-4.0882,-4.0944,-4.1048,-2.1115,-2.1408,0.0,-2.1642,0.0,0.0,-2.1818,0.0,0.0,-2.5154,-2.6735,0.0,-2.8871,-2.9793,-3.0276,-3.0086,-2.991,0.0,0.0,0.0,0.0,-2.6705,-2.6691,-2.6467,-2.5766,-2.5603,0.0,-2.6309,0.0,-2.5596,-2.6481,-2.5965,-2.6024,-2.6701,-2.8726,-2.866,0.0,-2.9191,-2.9551,-2.8726,-2.9091,0.0,0.0,-2.9997,-3.0283,-3.0616,-3.0569,-3.0823,-3.1188,-3.1331,-3.149,-3.1713,-3.2221,-3.2269,-3.2237,-3.273,-3.265,-3.2475,-3.2793,-3.292,-3.2904,-3.2698,-3.3402,-3.3958,-3.3215,-3.4693,-3.5894,0.0,0.0,0.0,0.0,0.0,0.0,-3.7798,-3.8102,-3.786,0.0,0.0,0.0,0.0,0.0,0.0,0.0,0.0,0.0,0.0,0.0,0.0,0.0,0.0,0.0,-3.7177,-3.846,-3.9392,-3.993,-4.0758,-4.1069,-4.0862,-3.9972,-3.9682,-3.9909,-3.9599,-3.9847,-4.0572,-4.1669,-4.2414,-4.2849,-4.289,-4.2663,-4.2186,-4.1524,-4.111,-4.0903,-4.111,-4.1048,-4.0903,-2.1701,0.0,0.0,0.0,0.0,0.0,0.0,-2.3559,0.0,-2.5359,0.0,-2.8037,-2.8681,-2.9749,-3.0407,0.0,0.0,-3.0027,-2.9134,-2.9076,-2.8681,-2.7759,-2.7408,-2.691,-2.6222,-2.5798,0.0,0.0,0.0,-2.5427,-2.6818,-2.5467,-2.528,-2.6028,-2.7154,0.0,0.0,-2.8281,-2.8996,0.0,-2.9663,-2.9518,-2.936,-3.014,-3.0394,-3.0292,-3.0855,-3.0966,-3.0982,-3.1347,-3.1665,-3.2046,-3.273,-3.2745,-3.2618,-3.3286,-3.3047,-3.2682,-3.3317,-3.3254,-3.3031,-3.3031,-3.3254,-3.3317,-3.2634,-3.3815,-3.4467,-3.236,-3.3347,-3.3835,0.0,0.0,0.0,-3.6532,0.0,0.0,0.0,0.0,0.0,0.0,0.0,0.0,0.0,0.0,0.0,0.0,0.0,0.0,0.0,0.0,0.0,-3.6908,-3.8502,0.0,-3.9702,0.0,-4.1276,-4.0862,-3.9972,-3.9516,-3.9454,-3.993,-4.0365,-4.0862,-4.2249,-4.3097,-4.3491,-4.3159,-4.2704,-4.2166,-4.1234,-4.0882,-4.0924,-4.14,-4.1317,-4.1027,0.0,0.0,0.0,0.0,0.0,-2.4481,-2.4949,-2.5579,-2.6442,-2.7686,-2.8783,0.0,-3.0334,-3.0612,-3.0744,-3.0744,-3.0744,0.0,0.0,0.0,0.0,-2.9076,-2.8739,-2.8139,-2.7247,-2.6369,-2.6091,0.0,-2.5531,-2.5293,-2.5831,-2.5829,-2.5674,-2.5373,-2.7066,0.0,-2.7614,-2.8711,0.0,-2.8064,-2.9278,-2.9524,-2.9313,-3.0316,-3.0609,-3.04,-3.1352,-3.1538,-3.1347,-3.1713,-3.1872,-3.2046,-3.273,-3.2904,-3.2936,-3.3365,-3.3397,-3.3317,-3.3444,-3.3444,-3.3397,-3.3397,-3.3444,-3.3381,-3.2952,-3.3226,-3.3066,-3.2062,-3.2039,-3.1718,-3.1102,0.0,0.0,0.0,0.0,0.0,0.0,0.0,0.0,0.0,0.0,0.0,0.0,0.0,0.0,0.0,0.0,0.0,0.0,0.0,0.0,0.0,-3.8046,0.0,0.0,0.0,-4.0965,-4.0862,-3.9972,-3.933,-3.8978,-3.9454,-3.9889,-4.0386,-4.1772,-4.2621,-4.3056,-4.3366,-4.2994,-4.2166,-4.1234,-4.0882,-4.0924,-4.14,-4.1524,-4.1503,0.0,0.0,0.0,0.0,0.0,0.0,0.0,-2.7466,0.0,-2.8169,-2.8871,-2.9471,-2.9793,-3.0422,-3.0817,-3.0817,-3.0817,-3.0759,-3.0612,-3.0437,-3.0203,-2.9895,-2.9573,0.0,-2.8227,-2.71,-2.6764,-2.7261,-2.5422,-2.5011,-2.581,-2.5351,-2.5039,-2.494,-2.6418,-2.7539,0.0,0.0,0.0,-2.8206,-2.9152,-2.9297,-2.9213,-3.0327,-3.0573,-3.0342,-3.151,-3.1808,-3.1744,-3.2285,-3.2459,-3.2555,-3.3063,-3.3222,-3.327,-3.3429,-3.3492,-3.3492,-3.3492,-3.3492,-3.3492,-3.3492,-3.3492,-3.3397,-3.3031,-3.2952,-3.2761,-3.2062,-3.1776,-3.1554,-3.1204,-3.2027,0.0,0.0,0.0,0.0,0.0,0.0,0.0,0.0,0.0,0.0,0.0,0.0,0.0,0.0,0.0,0.0,0.0,0.0,0.0,0.0,0.0,0.0,0.0,0.0,0.0,-4.0862,-3.9972,-3.9413,-3.9226,-3.9682,-4.0137,-4.0613,-4.2,-4.287,-4.3263,-4.3014,-4.2518,-4.1835,-4.1151,-4.0882,-4.0965,-4.1669,-4.1772,-4.1628,0.0,-2.3296,0.0,0.0,-2.5783,0.0,0.0,-2.8959,-2.931,-2.8564,-2.8886,-2.9222,-2.9295,-3.0217,-3.0817,-3.0817,-3.0817,-3.0817,-3.0817,-3.0583,-3.0451,-3.0451,-3.0144,-2.9661,-2.9003,-2.7744,-2.7232,0.0,-2.5491,-2.4876,-2.5579,-2.4849,-2.4565,-2.4859,0.0,0.0,0.0,0.0,-2.842,-2.8547,-2.8941,-2.9139,-2.9124,-3.0346,-3.0562,-3.0253,-3.1575,-3.1984,-3.2079,-3.2857,-3.3015,-3.3015,-3.3381,-3.3492,-3.3492,-3.3492,-3.3492,-3.3492,-3.3492,-3.3492,-3.3492,-3.3492,-3.3492,-3.3413,-3.3127,-3.3063,-3.2888,-3.2269,-3.203,-3.184,-3.1554,-3.2189,0.0,0.0,0.0,0.0,0.0,0.0,0.0,0.0,0.0,0.0,0.0,0.0,0.0,0.0,0.0,0.0,0.0,0.0,0.0,0.0,0.0,-3.8937,-3.9144,0.0,-4.1234,0.0,-3.9972,-3.9537,-3.9558,-3.9909,-4.0427,-4.1089,-4.2269,-4.3035,-4.3408,-4.26,-4.1979,-4.1524,-4.1048,-4.0882,-4.0986,-4.1814,-4.1938,-4.1772,0.0,0.0,0.0,0.0,0.0,0.0,0.0,-2.9632,-3.0232,-3.0144,-3.0173,-3.032,-3.0612,-3.0744,-3.0817,-3.0817,-3.0817,-3.0817,-3.0817,-3.0803,-3.0773,-3.0773,-3.0481,-2.9998,-2.9339,-2.8081,-2.7027,0.0,0.0,-2.5301,-2.4291,-2.5315,-2.5766,0.0,0.0,0.0,0.0,-2.7955,-2.8191,-2.7673,-2.9033,-2.9303,-2.8997,-3.0136,-3.043,-3.0175,-3.1641,-3.2211,-3.2436,-3.3138,-3.3222,-3.3015,-3.3381,-3.3492,-3.3492,-3.3492,-3.3492,-3.3492,-3.3492,-3.3492,-3.3492,-3.3492,-3.3492,-3.3476,-3.3444,-3.3429,-3.3333,-3.2936,-3.2364,-3.1903,-3.1872,-3.1469,-3.1157,0.0,0.0,0.0,0.0,0.0,0.0,0.0,0.0,0.0,0.0,0.0,0.0,0.0,0.0,0.0,0.0,0.0,0.0,-3.6018,0.0,-3.9247,-4.0096,-4.0655,-4.0924,-4.0862,-3.9972,-3.9537,-3.9537,-3.9578,-4.0303,-4.1545,-4.2083,-4.258,-4.2952,-4.2456,-4.1979,-4.1524,-4.1048,-4.0882,-4.0944,-4.1441,-4.1876,-4.2249,0.0,0.0,0.0,0.0,0.0,0.0,0.0,-3.0261,-3.0627,-3.0627,-3.0627,-3.0685,-3.0803,-3.0817,-3.0817,-3.0817,-3.0817,-3.0817,-3.0817,-3.0817,-3.0817,-3.0817,-3.07,-3.0422,-2.9968,-2.8886,-2.8037,0.0,0.0,0.0,0.0,0.0,0.0,0.0,0.0,-2.6409,-2.6446,-2.7316,-2.7703,-2.7803,-2.8546,-2.8916,-2.89,-2.9673,-2.9874,-2.9807,-3.1121,-3.1687,-3.1764,-3.2484,-3.2741,-3.2975,-3.3444,-3.3312,-3.3164,-3.3492,-3.3492,-3.3492,-3.3492,-3.3492,-3.3492,-3.3492,-3.3492,-3.3492,-3.3492,-3.3492,-3.3381,-3.3031,-3.2555,-3.2158,-3.1951,-3.1681,-3.1363,0.0,0.0,0.0,0.0,0.0,0.0,0.0,0.0,0.0,0.0,0.0,0.0,0.0,0.0,0.0,0.0,0.0,0.0,-3.5687,0.0,-3.8481,-3.9392,-4.0116,-4.0489,-4.0489,-3.9847,-3.9537,-3.9537,-3.9537,-4.0427,-4.2021,-4.2745,-4.287,-4.2518,-4.2331,-4.1814,-4.1131,-4.0944,-4.0882,-4.0965,-4.171,-4.2104,-4.2352,-2.2713,0.0,-2.4521,0.0,-2.8218,-2.8933,-3.0364,-3.0685,-3.0817,-3.0817,-3.0817,-3.0817,-3.0817,-3.0817,-3.0817,-3.0817,-3.0817,-3.0817,-3.0817,-3.0817,-3.0817,-3.0817,-3.0817,0.0,-3.0364,-2.9573,-2.8886,-2.83,-2.77,0.0,0.0,0.0,0.0,0.0,-2.5769,-2.6208,-2.6676,-2.71,-2.7598,-2.8125,-2.8447,-2.8754,-2.9047,-2.9464,-2.9725,-2.9873,-3.0922,-3.1295,-3.1356,-3.2006,-3.2339,-3.2489,-3.2983,-3.2983,-3.2819,-3.3148,-3.3328,-3.3492,-3.3492,-3.3492,-3.3492,-3.3492,-3.3492,-3.3492,-3.3492,-3.3492,-3.3413,-3.3158,-3.2904,-3.2618,-3.2285,-3.2142,-3.1872,-3.1268,0.0,0.0,0.0,0.0,0.0,0.0,0.0,-2.8609,-2.8793,0.0,0.0,0.0,0.0,0.0,0.0,0.0,0.0,0.0,0.0,0.0,0.0,-3.9765,-4.0303,-4.0406,-3.9827,-3.9599,-3.9744,-4.0013,-4.0903,-4.229,-4.3077,-4.2973,-4.2249,-4.2104,-4.1586,-4.0882,-4.0882,-4.0882,-4.0986,-4.1917,-4.2166,-4.2186,-2.2519,-2.2877,-2.4025,-2.7086,-2.7629,-2.8413,-3.0426,-3.0817,-3.0817,-3.0817,-3.0817,-3.0817,-3.0817,-3.0817,-3.0817,-3.0817,-3.0817,-3.0817,-3.0817,-3.0817,-3.0817,0.0,0.0,-3.0671,-3.0364,-3.0027,-2.9222,-2.7949,0.0,0.0,-2.5549,0.0,-2.6003,-2.6032,-2.6676,-2.6983,-2.7027,-2.7671,-2.8125,-2.8461,-2.8769,-2.9076,-2.9398,-2.9734,-3.0056,-3.0542,-3.1197,-3.1467,-3.1647,-3.2009,-3.1828,-3.1647,-3.2009,-3.2505,-3.2819,-3.2819,-3.3164,-3.3492,-3.3492,-3.3492,-3.3492,-3.3492,-3.3492,-3.3492,-3.3492,-3.3492,-3.3492,-3.3476,-3.3476,-3.3365,-3.3015,-3.265,-3.2301,-3.1967,0.0,0.0,0.0,0.0,0.0,0.0,-3.0302,-3.077,-2.927,0.0,0.0,0.0,0.0,0.0,0.0,0.0,0.0,-3.5418,-3.7632,0.0,-3.8854,-3.9765,-4.0448,-4.0862,-3.9972,-3.9785,-4.0241,-4.1131,-4.1814,-4.229,-4.2725,-4.2683,-4.2228,-4.1772,-4.1296,-4.0882,-4.0882,-4.0882,-4.0986,-4.1917,-4.1979,-4.171,-2.1007,-2.2047,-2.3584,-2.7092,-2.7816,-2.8659,-3.047,-3.0817,-3.0817,-3.0817,-3.0817,-3.0817,-3.0817,-3.0817,-3.0817,0.0,-3.0817,-3.0817,0.0,-3.0817,-3.0817,-3.0817,-3.0817,-3.0773,-3.0671,-3.0364,-2.9778,-2.893,0.0,0.0,0.0,-2.7291,-2.71,-2.6705,-2.713,-2.7569,-2.7993,-2.8198,-2.8725,-2.9398,-2.9266,-2.9412,-2.972,-2.9822,-2.9925,-3.0056,-3.0542,-3.0824,-3.0854,-3.1091,-3.1164,-3.0984,-3.1164,-3.1497,-3.1994,-3.2654,-3.2983,-3.3148,-3.3492,-3.3492,-3.3492,-3.3492,-3.3492,-3.3492,-3.3492,-3.3492,-3.3492,-3.3492,-3.3492,-3.3381,-3.3015,-3.265,-3.2301,-3.1967,-3.1331,0.0,0.0,0.0,0.0,0.0,-2.8341,-2.8256,0.0,-2.898,0.0,0.0,0.0,0.0,0.0,0.0,0.0,0.0,-3.7218,0.0,-3.8833,-3.9454,-3.9972,-4.0406,-3.9827,-3.993,-4.0717,-4.1938,-4.2393,-4.229,-4.2725,-4.2497,-4.1772,-4.1628,-4.1296,-4.0882,-4.0882,-4.0882,-4.0944,-4.1565,-4.1897,-4.2083,-1.9815,-2.0577,-2.197,-2.5108,-2.5942,-2.6732,-2.8433,-2.9286,-2.9802,-2.9802,-3.0317,-3.0817,-3.0817,-3.0817,0.0,-3.0817,-3.0817,-3.0817,-3.0817,-3.0817,-3.0817,-3.0817,-3.0817,-3.0817,-3.0817,0.0,0.0,-2.9749,-2.9369,-2.8827,-2.8125,-2.8008,-2.773,-2.7364,-2.7686,-2.8066,-2.8461,-2.8695,-2.9134,-2.9676,-2.9588,-2.9749,-3.0042,-3.0042,-3.0115,-3.0246,-3.0451,-3.0525,-3.0554,-3.0759,-3.0817,-3.0817,-3.0817,-3.0984,-3.1482,-3.2324,-3.2834,-3.3148,-3.3476,-3.3492,-3.3492,-3.3492,-3.3492,-3.3492,-3.3492,-3.3492,-3.3492,-3.3492,-3.3492,-3.3413,-3.319,-3.2745,-3.2348,-3.2142,-3.1284,-3.0458,-2.9901,0.0,0.0,0.0,0.0,0.0,0.0,-2.8047,0.0,0.0,0.0,0.0,0.0,0.0,0.0,-3.608,-3.7177,0.0,-3.8833,-3.9309,-3.9765,-4.0199,-3.993,-4.0365,-4.1421,-4.229,-4.2518,-4.2269,-4.2559,-4.2249,-4.1545,-4.1379,-4.1131,-4.0882,-4.0882,-4.0882,-4.0944,-4.1586,-4.1793,-4.1793,-1.8723,-1.894,0.0,0.0,-2.2654,0.0,-2.5032,-2.6914,-2.8096,-2.7928,-2.9467,-3.0651,-3.0651,-3.0651,-3.0651,-3.0817,0.0,0.0,0.0,-3.0832,-3.0817,-3.0817,-3.0817,-3.0817,-3.0817,-3.0817,-3.0671,-3.0349,-2.9442,-2.8842,-2.8534,-2.8227,-2.8081,-2.8095,-2.8403,-2.8549,-2.8608,-2.9178,-2.9442,-2.95,-2.9778,-3.01,-3.0378,-3.0378,-3.0568,-3.0817,-3.0817,-3.0817,-3.0817,-3.0817,-3.0817,-3.0817,-3.0817,-3.0817,-3.0998,-3.1843,-3.2834,-3.3492,-3.3476,-3.3492,-3.3492,-3.3492,-3.3492,-3.3492,-3.3492,-3.3492,-3.3492,-3.3492,-3.3492,-3.3492,-3.3492,-3.2888,-3.2396,-3.238,-3.1204,-3.0156,-2.9806,0.0,0.0,0.0,0.0,0.0,0.0,-2.7725,-2.8121,0.0,0.0,0.0,0.0,0.0,-3.5749,-3.6142,-3.7508,-3.844,-3.8895,-3.933,-3.9765,-4.022,-4.0323,-4.1048,-4.2311,-4.2311,-4.229,-4.2249,-4.2228,-4.1959,-4.1483,-4.1048,-4.0882,-4.0882,-4.0882,-4.0882,-4.0986,-4.1835,-4.1648,-4.1089,0.0,0.0,-2.0192,-2.2298,-2.2654,-2.3159,-2.5032,-2.6914,-2.7591,-2.6223,-2.7591,-2.8783,-2.8783,-2.8783,-2.9286,-3.0651,-3.0817,-3.0934,-3.1183,-3.0964,-3.0817,-3.0817,-3.0817,-3.0817,-3.0817,-3.0817,-3.0671,-3.0349,-3.0115,-2.9837,-2.9529,-2.9442,-2.9412,-2.9412,-2.9486,-2.9661,-2.9895,-2.9793,-3.0027,-3.0466,-3.0305,-3.0422,-3.0715,-3.0715,-3.0759,-3.0817,-3.0817,-3.0817,-3.0817,-3.0817,-3.0817,-3.0817,-3.0817,-3.0984,-3.1316,-3.1662,-3.1994,-3.2505,-3.2819,-3.3164,-3.3492,-3.3492,-3.3492,-3.3492,-3.3492,-3.3492,-3.3492,-3.3492,-3.3492,-3.3492,-3.3492,-3.2888,-3.2332,-3.2078,-3.0855,-2.9727,-2.9107,-2.8344,-2.7741,0.0,-2.7677,-2.7709,-2.7359,-2.7566,-2.8332,0.0,0.0,0.0,0.0,-3.6192,-3.6887,-3.6639,-3.7984,-3.8916,-3.9371,-3.9475,-3.9765,-4.0241,-4.1276,-4.2124,-4.2766,-4.2766,-4.258,-4.2249,-4.1876,-4.1462,-4.1027,-4.0924,-4.0882,-4.0882,-4.0882,-4.0882,-4.0903,-4.1131,-4.1503,-4.1855,-1.8147,-1.8523,-1.9388,-2.0761,-2.1098,-2.1445,-2.2654,-2.4349,-2.5203,-2.4189,-2.5714,-2.6953,-2.691,-2.7787,-2.869,-2.9859,-3.0605,-3.1124,-3.13,-3.1139,-3.1051,-3.1051,-3.0905,-3.0817,-3.0817,-3.0817,-3.0744,-3.0568,-3.0568,-3.0481,-3.0305,-3.0159,-3.0086,-3.0086,-2.9925,-2.9954,-3.0129,-3.01,-3.029,-3.0612,-3.0583,-3.0671,-3.0817,-3.0817,-3.0817,-3.0817,-3.0817,-3.0817,-3.0817,-3.0817,-3.0817,-3.0817,-3.0817,-3.0984,-3.115,-3.115,-3.1662,-3.2174,-3.2505,-3.267,-3.2999,-3.3148,-3.3312,-3.3492,-3.3492,-3.3492,-3.3492,-3.3492,-3.3492,-3.3492,-3.3492,-3.2888,-3.2253,-3.176,-3.0632,-2.952,-2.8646,-2.8058,-2.7709,-2.7677,-2.7979,-2.8186,-2.817,-2.8329,-2.8654,-2.9319,0.0,0.0,-3.2845,-3.5391,-3.7014,-3.7446,-3.8564,-3.9475,-4.0137,-4.0158,-4.0489,-4.1151,-4.1483,-4.2083,-4.2911,-4.2704,-4.2373,-4.1917,-4.1669,-4.1296,-4.0882,-4.0882,-4.0882,-4.0882,-4.0882,-4.1007,-4.1193,-4.1193,-4.1648,-4.2186,-1.7647,-1.7822,-1.8164,-1.903,-1.9204,-1.9388,-1.9746,-2.1455,-2.2481,-2.2309,-2.3846,-2.5127,-2.5216,-2.6807,-2.8128,-2.8765,-3.0181,-3.1063,-3.1315,-3.1271,-3.1242,-3.1242,-3.0964,-3.0817,-3.0817,-3.0817,-3.0817,-3.0817,-3.0817,-3.0817,-3.0817,-3.0554,-3.0422,-3.0407,-3.0129,-3.0012,-3.0027,-3.0305,-3.0422,-3.0451,-3.0715,-3.0817,-3.0817,-3.0817,-3.0817,-3.0817,-3.0817,-3.0817,-3.0817,-3.0817,-3.0817,-3.0817,-3.0817,-3.0817,-3.0817,-3.0817,-3.1331,-3.2009,-3.2009,-3.2174,-3.2339,-3.2654,-3.3148,-3.3492,-3.3492,-3.3492,-3.3492,-3.3492,-3.3492,-3.3492,-3.3492,-3.2888,-3.2221,-3.1633,-3.0537,-2.9425,-2.8519,0.0,-2.7852,-2.8186,-2.8599,-2.8964,-2.9266,-2.9345,-2.9123,-2.8519,-2.9743,-3.0566,0.0,-3.4171,-3.6833,-3.8159,-3.9192,-4.0137,-4.0965,-4.1048,-4.1441,-4.2145,-4.1421,-4.169,-4.2807,-4.2352,-4.1938,-4.1565,-4.1503,-4.1234,-4.0882,-4.0882,-4.0882,-4.0882,-4.0882,-4.111,-4.1462,-4.1545,-4.1855,-4.2249,-1.7822,-1.8173,-1.8514,-1.903,-1.9204,-1.9388,-1.9746,-2.1455,-2.1964,-2.0607,-2.1964,-2.3075,-2.3315,-2.3686,-2.5172,-2.8591,-2.9326,-3.0115,-3.1175,-3.1051,-3.0905,-3.0905,-3.0846,-3.0817,-3.0817,-3.0817,-3.0817,-3.0817,-3.0817,-3.0817,-3.0817,-3.0773,-3.0744,-3.0744,-3.07,-3.0671,-3.0685,-3.0729,-3.0744,-3.0759,-3.0803,-3.0817,-3.0817,-3.0817,-3.0817,-3.0817,-3.0817,-3.0817,-3.0817,-3.0817,-3.0817,-3.0817,-3.0817,-3.0817,-3.0817,-3.0817,-3.0817,-3.1164,-3.1497,-3.1828,-3.2339,-3.2654,-3.2819,-3.2983,-3.3492,-3.3492,-3.3492,-3.3492,-3.3492,-3.3492,-3.3492,-3.2888,-3.238,-3.2269,-3.0632,-2.9329,-2.9155,0.0,-2.7852,-2.8186,-2.8805,-2.9234,-2.9298,-2.9568,-2.9695,-2.9584,-3.0252,-3.1145,-3.2261,-3.4911,-3.7112,-3.8373,-3.9861,-4.0924,-4.1462,-4.1855,-4.1917,-4.1669,-4.1917,-4.2145,-4.2352,-4.1876,-4.1628,-4.1545,-4.1151,-4.0944,-4.0882,-4.0882,-4.0882,-4.0882,-4.0882,-4.0924,-4.1027,-4.1421,-4.1855,-4.2249,-1.7463,-1.7639,-1.7989,-1.8689,-1.8864,-1.9039,-1.9746,-2.0598,-2.0771,-2.0095,-2.0607,-2.1239,-2.158,-2.2662,-2.3986,-2.582,-2.7194,-2.7925,-2.8221,-3.0113,-3.1344,-3.1344,-3.1007,-3.0817,-3.0817,-3.0817,-3.0817,-3.0817,-3.0817,-3.0817,-3.0817,-3.0817,-3.0817,-3.0817,-3.0817,-3.0817,-3.0817,-3.0817,-3.0817,-3.0817,-3.0817,-3.0817,-3.0817,-3.0817,-3.0817,-3.0817,-3.0817,-3.0817,-3.0817,-3.0817,-3.0817,-3.0817,-3.0817,-3.0817,-3.0817,-3.0817,-3.0817,-3.0817,-3.0984,-3.1497,-3.1828,-3.1994,-3.2324,-3.267,-3.2983,-3.3148,-3.3148,-3.3476,-3.3492,-3.3492,-3.3492,-3.2888,-3.2348,-3.2173,-3.0537,0.0,0.0,-2.8424,-2.8201,-2.8742,-2.9425,-3.0076,-3.0648,-3.0505,-3.0378,-3.0378,-3.0292,-3.0611,-3.1301,-3.4379,-3.6588,-3.7481,-4.0519,-4.2083,-4.229,-4.2269,-4.2269,-4.229,-4.1772,-4.1648,-4.1876,-4.14,-4.1193,-4.1193,-4.0965,-4.0882,-4.0882,-4.0882,-4.0882,-4.0882,-4.0882,-4.1193,-4.1607,-4.1586,-4.2166,-4.2952,-1.7112,-1.7112,-1.7288,-1.8164,-1.8339,-1.8689,-1.9397,-1.9746,-1.9756,-1.9812,-1.9812,-2.0148,-2.0563,-2.184,-2.2989,-2.3582,-2.5048,-2.595,-2.6073,-2.8751,-3.0666,-3.0881,-3.0913,-3.0817,-3.0817,-3.0817,-3.0817,-3.0817,-3.0817,-3.0817,-3.0817,-3.0817,-3.0817,-3.0817,-3.0817,-3.0817,-3.0817,-3.0817,-3.0817,-3.0817,-3.0817,-3.0817,-3.0817,-3.0817,-3.0817,-3.0817,-3.0817,-3.0817,-3.0817,-3.0817,-3.0817,-3.0817,-3.0817,-3.0817,-3.0817,-3.0817,-3.0817,-3.0817,-3.0817,-3.0984,-3.1316,-3.1482,-3.1828,-3.2174,-3.2654,-3.2819,-3.2983,-3.3312,-3.3492,-3.3492,-3.3492,-3.2968,-3.2428,-3.2094,0.0,0.0,0.0,-2.8885,-2.8948,-2.9584,-3.0203,-3.0918,-3.1824,-3.1427,-3.1077,-3.0982,-3.0569,-3.0426,-3.068,-3.4031,-3.659,-3.8084,-4.1163,-4.2766,-4.2766,-4.2435,-4.2373,-4.26,-4.1545,-4.1172,-4.14,-4.1027,-4.0882,-4.0882,-4.0882,-4.0882,-4.0882,-4.0882,-4.0882,-4.0882,-4.0986,-4.1462,-4.2083,-4.1938,-4.2538,-4.3408,-1.7112,-1.7112,-1.7288,-1.7822,-1.7822,-1.7998,-1.8514,-1.9039,-1.9277,-1.9469,-1.985,-2.0355,-2.0771,-2.1001,-2.1797,-2.3828,-2.4215,-2.5116,-2.6701,-2.679,-2.7157,-2.8359,-2.9998,-3.0817,-3.0817,-3.0817,-3.0817,-3.0817,-3.0817,-3.0817,-3.0817,-3.0817,-3.0817,-3.0817,-3.0817,-3.0817,-3.0817,-3.0817,-3.0817,-3.0817,-3.0817,-3.0817,-3.0817,-3.0817,-3.0817,-3.0817,-3.0817,-3.0817,-3.0817,-3.0817,-3.0817,-3.0817,-3.0817,-3.0817,-3.0817,-3.0817,-3.0817,-3.0817,-3.0817,-3.0817,-3.0984,-3.1316,-3.1482,-3.1813,-3.2654,-3.2819,-3.2983,-3.3312,-3.3492,-3.3492,-3.3492,-3.3174,-3.2793,-3.2428,0.0,0.0,-3.0251,-3.0172,-3.0299,-3.0696,-3.1077,-3.1474,-3.1872,-3.1872,-3.1697,-3.1379,-3.1601,-3.1776,-3.1792,-3.4994,-3.8364,-4.1744,-4.2122,-4.2311,-4.2311,-4.2269,-4.2062,-4.1669,-4.1565,-4.1317,-4.0924,-4.0882,-4.0882,-4.0882,-4.0882,-4.0882,-4.0882,-4.0882,-4.0882,-4.0924,-4.1338,-4.1565,-4.171,-4.2518,-4.289,-4.3035,-1.7112,-1.7112,-1.7288,-1.7647,-1.7822,-1.7998,-1.8514,-1.8689,-1.8751,-1.9124,-1.9515,-1.9848,-2.0253,-2.0664,-2.1288,-2.2238,-2.2258,-2.2505,-2.2934,-2.2747,-2.4368,-2.7954,-2.8783,-2.9635,-3.0817,-3.0817,-3.0817,-3.0817,-3.0817,-3.0817,-3.0817,-3.0817,-3.0817,-3.0817,-3.0817,-3.0817,-3.0817,-3.0817,-3.0817,-3.0817,-3.0817,-3.0817,-3.0817,-3.0817,-3.0817,-3.0817,-3.0817,-3.0817,-3.0817,-3.0817,-3.0817,-3.0817,-3.0817,-3.0817,-3.0817,-3.0817,-3.0817,-3.0817,-3.0817,-3.0817,-3.0817,-3.0984,-3.0984,-3.1331,-3.2174,-3.2505,-3.267,-3.3328,-3.3492,-3.3492,-3.3492,-3.319,-3.2984,-3.3063,0.0,-3.122,-3.13,-3.1125,-3.1029,-3.1172,-3.1681,-3.2158,-3.2523,-3.2364,-3.2269,-3.2348,-3.2269,-3.2221,-3.2221,-3.5277,-3.8123,-4.0324,-4.1375,-4.1979,-4.2249,-4.1979,-4.1752,-4.1565,-4.1276,-4.1048,-4.0882,-4.1172,-4.1151,-4.0903,-4.1172,-4.1131,-4.0882,-4.0882,-4.0882,-4.0924,-4.1379,-4.1752,-4.2062,-4.2683,-4.3097,-4.3366,-1.7112,-1.7112,-1.7112,-1.7471,-1.7647,-1.7664,-1.8066,-1.8259,-1.8522,-1.8766,-1.9339,-1.9834,-2.0171,-2.0575,-2.1007,-2.1159,-2.1168,-2.1045,-2.0762,-2.0611,-2.2278,-2.6248,-2.6901,-2.8096,-2.9969,-2.9969,-3.0317,-3.0817,-3.0817,-3.0817,-3.0817,-3.0817,-3.0817,-3.0817,-3.0817,-3.0817,-3.0817,-3.0817,-3.0817,-3.0817,-3.0817,-3.0817,-3.0817,-3.0817,-3.0817,-3.0817,-3.0817,-3.0817,-3.0817,-3.0817,-3.0817,-3.0817,-3.0817,-3.0817,-3.0817,-3.0817,-3.0817,-3.0817,-3.0817,-3.0817,-3.0817,-3.0817,-3.0817,-3.0998,-3.1828,-3.2009,-3.2339,-3.3148,-3.3312,-3.3492,-3.3492,-3.3286,-3.3127,-3.3143,-3.2428,-3.1887,-3.1919,-3.1903,-3.1887,-3.1887,-3.2301,-3.2634,-3.2777,-3.2555,-3.2475,-3.2618,-3.2602,-3.289,-3.335,-3.5297,-3.7026,-3.8418,-3.9925,-4.0756,-4.1061,-4.1358,-4.1338,-4.1338,-4.1027,-4.0882,-4.0903,-4.1358,-4.14,-4.111,-4.1421,-4.1379,-4.1089,-4.0944,-4.0882,-4.0944,-4.1545,-4.1979,-4.2331,-4.2932,-4.3346,-4.3615,-1.7112,-1.7112,-1.7112,-1.7112,-1.7112,-1.7177,-1.7364,-1.7745,-1.8228,-1.86,-1.9568,-2.0189,-2.0381,-2.0788,-2.1168,-2.1168,-2.1168,-2.1168,-2.1168,-2.0771,-2.1048,-2.2503,-2.436,-2.6223,-2.8096,-2.8096,-2.895,-3.0817,-3.0817,-3.0817,-3.0817,-3.0817,-3.0817,-3.0817,-3.0817,-3.0817,-3.0817,-3.0817,-3.0817,-3.0817,-3.0817,-3.0817,-3.0817,-3.0817,-3.0817,-3.0817,-3.0817,-3.0817,-3.0817,-3.0832,-3.0832,-3.0832,-3.0832,-3.0832,-3.0817,-3.0817,-3.0817,-3.0832,-3.0817,-3.0817,-3.0832,-3.0817,-3.0817,-3.0984,-3.1316,-3.1828,-3.2339,-3.2654,-3.3148,-3.3492,-3.3492,-3.3492,-3.3254,-3.2539,-3.273,-3.2714,-3.203,-3.2523,-3.2952,-3.2952,-3.2952,-3.2825,-3.2459,-3.2412,-3.2285,-3.1951,-3.2571,-3.3741,-3.5463,-3.4744,-3.5082,-3.6751,-3.7849,-3.8516,-3.8516,-4.0146,-4.0882,-4.0882,-4.0882,-4.0882,-4.0903,-4.1358,-4.1565,-4.1565,-4.1565,-4.1565,-4.1524,-4.1069,-4.0882,-4.0965,-4.1897,-4.2249,-4.2373,-4.3284,-4.3615,-4.3615,-1.7461,-1.7388,-1.7339,-1.7461,-1.7478,-1.7502,-1.7559,-1.7747,-1.7829,-1.8067,-1.8651,-1.9271,-1.9834,-2.0408,-2.0788,-2.1168,-2.1168,-2.1045,-2.0752,-2.0337,-2.0219,-2.0607,-2.2481,-2.4349,-2.6223,-2.7422,-2.8433,-2.895,-3.015,-3.0817,-3.0817,-3.0817,-3.0817,-3.0817,-3.0817,-3.0817,-3.0817,-3.0817,-3.0817,-3.0817,-3.0817,-3.0817,-3.0817,-3.0817,-3.0817,-3.0817,-3.0817,-3.0817,-3.0861,-3.1081,-3.1168,-3.1168,-3.1168,-3.1007,-3.0817,-3.0817,-3.0993,-3.111,-3.089,-3.0993,-3.111,-3.0876,-3.0817,-3.0984,-3.1316,-3.1647,-3.1994,-3.2654,-3.2983,-3.3148,-3.3492,-3.3492,-3.3413,-3.3206,-3.3254,-3.3254,-3.3047,-3.319,-3.3333,-3.3333,-3.3333,-3.3286,-3.3174,-3.2936,-3.2745,-3.265,-3.2841,-3.3275,-3.3741,-3.4374,-3.4762,-3.5099,-3.7239,-3.8516,-3.8516,-4.0146,-4.0882,-4.0882,-4.1193,-4.1358,-4.1379,-4.2166,-4.2352,-4.2062,-4.2373,-4.2166,-4.1545,-4.1421,-4.1358,-4.1421,-4.2021,-4.2456,-4.2787,-4.3387,-4.3615,-4.3615,-1.7413,-1.7348,-1.7307,-1.7413,-1.7494,-1.7559,-1.7632,-1.7705,-1.7819,-1.7997,-1.8391,-1.8988,-1.9285,-2.0037,-2.0594,-2.0788,-2.0899,-2.0856,-2.044,-2.0176,-2.0006,-1.9921,-2.0945,-2.2481,-2.4189,-2.5373,-2.6563,-2.8096,-2.9118,-3.0136,-3.0817,-3.0817,-3.0817,-3.0817,-3.0817,-3.0817,-3.0817,-3.0817,-3.0817,-3.0817,-3.0817,-3.0817,-3.0817,-3.0817,-3.0817,-3.0817,-3.0817,-3.0817,-3.0876,-3.1198,-3.1402,-3.1476,-3.1344,-3.1183,-3.0993,-3.0861,-3.0964,-3.111,-3.1037,-3.1066,-3.111,-3.1037,-3.092,-3.0817,-3.115,-3.1316,-3.1647,-3.2159,-3.2489,-3.2819,-3.3148,-3.3312,-3.3492,-3.3492,-3.3492,-3.3492,-3.3492,-3.3492,-3.3429,-3.3286,-3.3397,-3.3381,-3.3079,-3.3,-3.2952,-3.2952,-3.2698,-3.2602,-3.273,-3.3198,-3.3287,-3.3209,-3.5976,-3.7696,-3.7868,-3.9919,-4.0882,-4.0882,-4.1151,-4.14,-4.1586,-4.2331,-4.26,-4.2538,-4.2807,-4.26,-4.2083,-4.1917,-4.1835,-4.1876,-4.2352,-4.2683,-4.2973,-4.3449,-4.3615,-4.3615,-1.7153,-1.7161,-1.7161,-1.7177,-1.7339,-1.751,-1.7664,-1.7835,-1.7997,-1.8152,-1.8557,-1.893,-1.893,-1.9666,-2.0214,-2.0381,-2.0565,-2.0648,-2.027,-2.0233,-2.0138,-1.9959,-1.993,-2.0598,-2.2309,-2.2481,-2.4178,-2.7591,-2.7759,-2.8783,-3.0317,-3.0317,-3.0484,-3.0484,-3.0484,-3.0651,-3.0817,-3.0817,-3.0817,-3.0817,-3.0817,-3.0817,-3.0817,-3.0817,-3.0846,-3.0861,-3.0832,-3.0846,-3.092,-3.1212,-3.152,-3.1739,-3.1446,-3.1329,-3.1256,-3.0949,-3.0861,-3.092,-3.1198,-3.1095,-3.0978,-3.1242,-3.111,-3.089,-3.0832,-3.1179,-3.1526,-3.1497,-3.2159,-3.2819,-3.2819,-3.3148,-3.3492,-3.3492,-3.3492,-3.3492,-3.3492,-3.3492,-3.3365,-3.3047,-3.3286,-3.3222,-3.2571,-3.2777,-3.2952,-3.2952,-3.2364,-3.2158,-3.2491,-3.1887,-3.1522,-3.1522,-3.4476,-3.6271,-3.6806,-3.9413,-4.0843,-4.1007,-4.1007,-4.1234,-4.171,-4.2166,-4.26,-4.2973,-4.2973,-4.2952,-4.289,-4.2476,-4.2311,-4.2352,-4.2766,-4.2952,-4.3035,-4.3449,-4.3615,-4.3615,-1.7502,-1.7526,-1.7567,-1.7721,-1.7884,-1.8014,-1.8054,-1.8095,-1.8135,-1.8168,-1.8363,-1.8549,-1.893,-1.9116,-1.9242,-1.963,-1.9807,-2.0203,-2.0478,-2.0318,-2.0195,-2.0157,-2.0006,-2.0095,-2.0434,-2.1791,-2.2987,-2.3846,-2.5203,-2.6223,-2.6563,-2.6563,-2.7253,-2.8615,-2.8615,-2.9453,-3.0817,-3.0817,-3.0817,-3.0817,-3.0817,-3.0817,-3.0817,-3.0817,-3.0978,-3.1168,-3.092,-3.0993,-3.1212,-3.1285,-3.152,-3.1783,-3.171,-3.152,-3.13,-3.1227,-3.1198,-3.1168,-3.0978,-3.1256,-3.1549,-3.1359,-3.1446,-3.1446,-3.0934,-3.1022,-3.1292,-3.1541,-3.1994,-3.2505,-3.2654,-3.3148,-3.3492,-3.3492,-3.3492,-3.3492,-3.3492,-3.3492,-3.346,-3.3381,-3.3444,-3.3429,-3.327,-3.3079,-3.2952,-3.2952,-3.2809,-3.2888,-3.3238,-3.2841,-3.2618,-3.2618,-3.4189,-3.5757,-3.7191,-3.9101,-4.0592,-4.1959,-4.1959,-4.2186,-4.2642,-4.3097,-4.3366,-4.347,-4.347,-4.3263,-4.2911,-4.2828,-4.2766,-4.2787,-4.289,-4.3139,-4.347,-4.3573,-4.3615,-4.3615,-1.7372,-1.7388,-1.7421,-1.7518,-1.7681,-1.7794,-1.7794,-1.7867,-1.7916,-1.7916,-1.7997,-1.8239,-1.8425,-1.8693,-1.9039,-1.9402,-1.947,-1.9699,-1.9679,-1.9839,-1.9925,-1.973,-1.999,-2.0129,-1.9921,-2.0978,-2.2019,-2.2654,-2.3503,-2.452,-2.5373,-2.5373,-2.5884,-2.6914,-2.7759,-2.8615,-2.9635,-3.0484,-3.0817,-3.0817,-3.0817,-3.0817,-3.0817,-3.0817,-3.0934,-3.1051,-3.089,-3.1139,-3.152,-3.1359,-3.1739,-3.2207,-3.19,-3.1783,-3.1739,-3.1593,-3.1549,-3.1505,-3.1329,-3.1417,-3.152,-3.1359,-3.1446,-3.1476,-3.1139,-3.1183,-3.1212,-3.1224,-3.1497,-3.1994,-3.2505,-3.2834,-3.3312,-3.3492,-3.3492,-3.3492,-3.3492,-3.3492,-3.3429,-3.3254,-3.3381,-3.3492,-3.3492,-3.3317,-3.3206,-3.3206,-3.3047,-3.3031,-3.3222,-3.2888,-3.2698,-3.2698,-3.4075,-3.5279,-3.639,-3.7755,-3.9223,-4.0563,-4.1692,-4.2497,-4.2932,-4.318,-4.3284,-4.3284,-4.3511,-4.3346,-4.2932,-4.3159,-4.3242,-4.3242,-4.3242,-4.3387,-4.3615,-4.3615,-4.3615,-4.3615,-1.7112,-1.7136,-1.7161,-1.7161,-1.7339,-1.7478,-1.7478,-1.7624,-1.7729,-1.7729,-1.7867,-1.7965,-1.7965,-1.8441,-1.8812,-1.9175,-1.9158,-1.9191,-1.8822,-1.9339,-1.9464,-1.9277,-1.9971,-2.0187,-1.9977,-2.0346,-2.1048,-2.2199,-2.2199,-2.3053,-2.459,-2.4543,-2.4702,-2.5032,-2.6563,-2.7591,-2.8278,-2.9691,-3.0527,-3.0832,-3.0949,-3.0964,-3.092,-3.0964,-3.1022,-3.1066,-3.1007,-3.1344,-3.1754,-3.149,-3.1973,-3.2588,-3.2046,-3.2061,-3.2237,-3.1959,-3.1841,-3.1783,-3.1724,-3.1593,-3.1461,-3.1402,-3.1432,-3.1476,-3.1476,-3.1388,-3.1227,-3.0964,-3.1194,-3.1677,-3.2085,-3.2535,-3.2834,-3.3164,-3.3312,-3.3312,-3.3312,-3.3476,-3.3381,-3.3079,-3.3301,-3.3492,-3.3492,-3.3492,-3.3492,-3.3492,-3.3206,-3.3047,-3.3047,-3.2761,-3.2587,-3.2587,-3.3842,-3.4925,-3.5549,-3.6479,-3.7576,-3.853,-4.0656,-4.1915,-4.2583,-4.2885,-4.3035,-4.3056,-4.3449,-4.3387,-4.3077,-4.3449,-4.3615,-4.3615,-4.3615,-4.3615,-4.3615,-4.3615,-4.3615,-4.3615,-1.7112,-1.7242,-1.7348,-1.7348,-1.7624,-1.7843,-1.7843,-1.7989,-1.8103,-1.8103,-1.8127,-1.8144,-1.8144,-1.803,-1.8067,-1.8431,-1.8414,-1.8682,-1.8804,-1.898,-1.9357,-1.9487,-1.9688,-2.0064,-2.0185,-2.0422,-2.06,-2.0529,-2.0529,-2.0695,-2.0871,-2.0686,-2.1455,-2.2987,-2.3159,-2.5032,-2.811,-2.8717,-2.9705,-3.0876,-3.1446,-3.149,-3.1271,-3.1563,-3.1841,-3.2046,-3.1768,-3.1724,-3.1783,-3.1739,-3.2002,-3.2339,-3.2251,-3.2251,-3.228,-3.2237,-3.2017,-3.1739,-3.1446,-3.1754,-3.209,-3.1798,-3.1944,-3.2149,-3.2149,-3.171,-3.13,-3.1256,-3.1357,-3.1571,-3.2038,-3.2206,-3.2339,-3.2339,-3.267,-3.2819,-3.2819,-3.3312,-3.346,-3.3413,-3.346,-3.3492,-3.3492,-3.3492,-3.3492,-3.3492,-3.3444,-3.3413,-3.3413,-3.3365,-3.3333,-3.3333,-3.3497,-3.4473,-3.5926,-3.6035,-3.7011,-3.853,-3.891,-3.9831,-4.1325,-4.2882,-4.3511,-4.3532,-4.3594,-4.3573,-4.3532,-4.3594,-4.3615,-4.3615,-4.3615,-4.3615,-4.3615,-4.3615,-4.3615,-4.3615,-1.7112,-1.7258,-1.7388,-1.7388,-1.7591,-1.7762,-1.7762,-1.7827,-1.7875,-1.7875,-1.7965,-1.803,-1.803,-1.8046,-1.803,-1.8317,-1.8309,-1.8234,-1.8233,-1.894,-1.9461,-1.9339,-2.017,-2.0552,-2.0412,-2.0724,-2.079,-2.0563,-2.0459,-2.0403,-2.0393,-2.0185,-2.0433,-2.1289,-2.2326,-2.3704,-2.527,-2.6574,-2.8181,-2.9815,-3.0093,-3.0823,-3.1593,-3.1739,-3.1885,-3.1988,-3.1856,-3.1915,-3.2046,-3.1856,-3.2134,-3.2485,-3.212,-3.2266,-3.2515,-3.2339,-3.231,-3.2266,-3.1944,-3.2061,-3.2207,-3.1871,-3.19,-3.1959,-3.1783,-3.152,-3.1315,-3.1315,-3.1219,-3.1253,-3.1915,-3.1888,-3.1888,-3.2403,-3.2447,-3.2505,-3.2505,-3.2819,-3.3164,-3.3476,-3.3492,-3.3492,-3.3492,-3.3492,-3.3492,-3.3492,-3.3492,-3.3492,-3.3492,-3.3492,-3.3492,-3.3492,-3.3492,-3.3804,-3.4588,-3.4588,-3.4896,-3.5706,-3.6637,-3.8073,-3.9669,-4.1404,-4.2076,-4.1835,-4.3034,-4.347,-4.3242,-4.3511,-4.3615,-4.3615,-4.3615,-4.3615,-4.3615,-4.3615,-4.3615,-4.3615]}]]